<?xml version="1.0" encoding="UTF-8" standalone="no" ?>
<gpx xmlns="http://www.topografix.com/GPX/1/1" xmlns:xsi="http://www.w3.org/2001/XMLSchema-instance" xsi:schemaLocation="http://www.topografix.com/GPX/1/1 http://www.topografix.com/GPX/1/1/gpx.xsd" version="1.1" creator="VisuGPX - https://www.visugpx.com">
  <metadata>
    <name>100 km de Millau</name>
    <desc><![CDATA[Trace GPX du parcours des 100 km de Millau]]></desc>
  </metadata>
  <trk>
    <name><![CDATA[100 km de Millau]]></name>
    <extensions>
      <line xmlns="http://www.topografix.com/GPX/gpx_style/0/2">
        <color>0000FF</color>
        <width>4</width>
      </line>
    </extensions>
    <trkseg>
      <trkpt lat="44.1005" lon="3.07784">
        <ele>380.46284223232</ele>
        <time>2021-08-08T16:40:48.000Z</time>
      </trkpt>
      <trkpt lat="44.10057" lon="3.07809">
        <ele>380.33778380786</ele>
        <time>2021-08-08T16:40:48.006Z</time>
      </trkpt>
      <trkpt lat="44.10017" lon="3.07832">
        <ele>380.0565830939</ele>
        <time>2021-08-08T16:40:48.027Z</time>
      </trkpt>
      <trkpt lat="44.1" lon="3.0784">
        <ele>379.83391971296</ele>
        <time>2021-08-08T16:40:48.054Z</time>
      </trkpt>
      <trkpt lat="44.09978" lon="3.07842">
        <ele>379.62524181011</ele>
        <time>2021-08-08T16:40:48.088Z</time>
      </trkpt>
      <trkpt lat="44.09972" lon="3.07838">
        <ele>379.39564663937</ele>
        <time>2021-08-08T16:40:48.124Z</time>
      </trkpt>
      <trkpt lat="44.09964" lon="3.07839">
        <ele>379.15127951401</ele>
        <time>2021-08-08T16:40:48.163Z</time>
      </trkpt>
      <trkpt lat="44.09958" lon="3.07845">
        <ele>378.8810300484</ele>
        <time>2021-08-08T16:40:48.205Z</time>
      </trkpt>
      <trkpt lat="44.09955" lon="3.07854">
        <ele>378.57622262736</ele>
        <time>2021-08-08T16:40:48.249Z</time>
      </trkpt>
      <trkpt lat="44.09959" lon="3.07872">
        <ele>378.18815377881</ele>
        <time>2021-08-08T16:40:48.297Z</time>
      </trkpt>
      <trkpt lat="44.09964" lon="3.07879">
        <ele>377.77018291601</ele>
        <time>2021-08-08T16:40:48.348Z</time>
      </trkpt>
      <trkpt lat="44.09964" lon="3.07915">
        <ele>377.22704786158</ele>
        <time>2021-08-08T16:40:48.407Z</time>
      </trkpt>
      <trkpt lat="44.09993" lon="3.08103">
        <ele>376.40804068818</ele>
        <time>2021-08-08T16:40:48.513Z</time>
      </trkpt>
      <trkpt lat="44.0999" lon="3.08106">
        <ele>375.74145633739</ele>
        <time>2021-08-08T16:40:48.620Z</time>
      </trkpt>
      <trkpt lat="44.09989" lon="3.08114">
        <ele>375.05947200546</ele>
        <time>2021-08-08T16:40:48.729Z</time>
      </trkpt>
      <trkpt lat="44.09992" lon="3.08122">
        <ele>374.35298314335</ele>
        <time>2021-08-08T16:40:48.840Z</time>
      </trkpt>
      <trkpt lat="44.09997" lon="3.08125">
        <ele>373.63713598974</ele>
        <time>2021-08-08T16:40:48.953Z</time>
      </trkpt>
      <trkpt lat="44.10003" lon="3.08123">
        <ele>372.91939868639</ele>
        <time>2021-08-08T16:40:49.068Z</time>
      </trkpt>
      <trkpt lat="44.10005" lon="3.08119">
        <ele>372.22450605329</ele>
        <time>2021-08-08T16:40:49.184Z</time>
      </trkpt>
      <trkpt lat="44.10022" lon="3.08121">
        <ele>371.43801088332</ele>
        <time>2021-08-08T16:40:49.306Z</time>
      </trkpt>
      <trkpt lat="44.10041" lon="3.0812">
        <ele>370.6622326297</ele>
        <time>2021-08-08T16:40:49.434Z</time>
      </trkpt>
      <trkpt lat="44.10073" lon="3.08122">
        <ele>369.9317669384</ele>
        <time>2021-08-08T16:40:49.573Z</time>
      </trkpt>
      <trkpt lat="44.10085" lon="3.08125">
        <ele>369.21873263708</ele>
        <time>2021-08-08T16:40:49.716Z</time>
      </trkpt>
      <trkpt lat="44.10096" lon="3.0813">
        <ele>368.50388504271</ele>
        <time>2021-08-08T16:40:49.863Z</time>
      </trkpt>
      <trkpt lat="44.10117" lon="3.08149">
        <ele>367.70751312495</ele>
        <time>2021-08-08T16:40:50.018Z</time>
      </trkpt>
      <trkpt lat="44.10133" lon="3.08172">
        <ele>366.82612485502</ele>
        <time>2021-08-08T16:40:50.181Z</time>
      </trkpt>
      <trkpt lat="44.10142" lon="3.08192">
        <ele>365.99797571323</ele>
        <time>2021-08-08T16:40:50.349Z</time>
      </trkpt>
      <trkpt lat="44.10147" lon="3.08207">
        <ele>365.20771857439</ele>
        <time>2021-08-08T16:40:50.521Z</time>
      </trkpt>
      <trkpt lat="44.10154" lon="3.08249">
        <ele>364.32978575124</ele>
        <time>2021-08-08T16:40:50.704Z</time>
      </trkpt>
      <trkpt lat="44.10163" lon="3.08352">
        <ele>363.48542493158</ele>
        <time>2021-08-08T16:40:50.912Z</time>
      </trkpt>
      <trkpt lat="44.10181" lon="3.0852">
        <ele>362.57293026483</ele>
        <time>2021-08-08T16:40:51.160Z</time>
      </trkpt>
      <trkpt lat="44.10178" lon="3.08541">
        <ele>361.76911071453</ele>
        <time>2021-08-08T16:40:51.414Z</time>
      </trkpt>
      <trkpt lat="44.10172" lon="3.08555">
        <ele>361.03667486528</ele>
        <time>2021-08-08T16:40:51.671Z</time>
      </trkpt>
      <trkpt lat="44.10164" lon="3.08563">
        <ele>360.38617004267</ele>
        <time>2021-08-08T16:40:51.932Z</time>
      </trkpt>
      <trkpt lat="44.10162" lon="3.0857">
        <ele>359.8312323215</ele>
        <time>2021-08-08T16:40:52.195Z</time>
      </trkpt>
      <trkpt lat="44.10162" lon="3.08581">
        <ele>359.34749078595</ele>
        <time>2021-08-08T16:40:52.460Z</time>
      </trkpt>
      <trkpt lat="44.10164" lon="3.08587">
        <ele>358.94633751135</ele>
        <time>2021-08-08T16:40:52.727Z</time>
      </trkpt>
      <trkpt lat="44.10171" lon="3.08595">
        <ele>358.61217691622</ele>
        <time>2021-08-08T16:40:52.997Z</time>
      </trkpt>
      <trkpt lat="44.10177" lon="3.08597">
        <ele>358.35909713531</ele>
        <time>2021-08-08T16:40:53.269Z</time>
      </trkpt>
      <trkpt lat="44.10185" lon="3.08594">
        <ele>358.18192022128</ele>
        <time>2021-08-08T16:40:53.544Z</time>
      </trkpt>
      <trkpt lat="44.10191" lon="3.08586">
        <ele>358.08942687311</ele>
        <time>2021-08-08T16:40:53.821Z</time>
      </trkpt>
      <trkpt lat="44.10192" lon="3.08578">
        <ele>358.07393439357</ele>
        <time>2021-08-08T16:40:54.100Z</time>
      </trkpt>
      <trkpt lat="44.10208" lon="3.08574">
        <ele>358.10676301278</ele>
        <time>2021-08-08T16:40:54.385Z</time>
      </trkpt>
      <trkpt lat="44.10218" lon="3.08569">
        <ele>358.19347938909</ele>
        <time>2021-08-08T16:40:54.673Z</time>
      </trkpt>
      <trkpt lat="44.10289" lon="3.08512">
        <ele>358.28608133757</ele>
        <time>2021-08-08T16:40:54.989Z</time>
      </trkpt>
      <trkpt lat="44.10334" lon="3.08485">
        <ele>358.4801609645</ele>
        <time>2021-08-08T16:40:55.321Z</time>
      </trkpt>
      <trkpt lat="44.10361" lon="3.08473">
        <ele>358.65652910482</ele>
        <time>2021-08-08T16:40:55.662Z</time>
      </trkpt>
      <trkpt lat="44.1037" lon="3.08467">
        <ele>358.87038847997</ele>
        <time>2021-08-08T16:40:56.007Z</time>
      </trkpt>
      <trkpt lat="44.1053" lon="3.08424">
        <ele>359.02792071075</ele>
        <time>2021-08-08T16:40:56.406Z</time>
      </trkpt>
      <trkpt lat="44.1054" lon="3.08423">
        <ele>359.28629610717</ele>
        <time>2021-08-08T16:40:56.808Z</time>
      </trkpt>
      <trkpt lat="44.10577" lon="3.08424">
        <ele>359.60880610917</ele>
        <time>2021-08-08T16:40:57.223Z</time>
      </trkpt>
      <trkpt lat="44.1063" lon="3.08432">
        <ele>359.89860257547</ele>
        <time>2021-08-08T16:40:57.656Z</time>
      </trkpt>
      <trkpt lat="44.1065" lon="3.08428">
        <ele>360.15822858337</ele>
        <time>2021-08-08T16:40:58.095Z</time>
      </trkpt>
      <trkpt lat="44.10665" lon="3.08422">
        <ele>360.43257284694</ele>
        <time>2021-08-08T16:40:58.540Z</time>
      </trkpt>
      <trkpt lat="44.10679" lon="3.0841">
        <ele>360.7185056681</ele>
        <time>2021-08-08T16:40:58.990Z</time>
      </trkpt>
      <trkpt lat="44.10691" lon="3.08389">
        <ele>361.04387237084</ele>
        <time>2021-08-08T16:40:59.446Z</time>
      </trkpt>
      <trkpt lat="44.10697" lon="3.08372">
        <ele>361.38296075506</ele>
        <time>2021-08-08T16:40:59.907Z</time>
      </trkpt>
      <trkpt lat="44.10713" lon="3.08253">
        <ele>361.97522226528</ele>
        <time>2021-08-08T16:41:00.397Z</time>
      </trkpt>
      <trkpt lat="44.1073" lon="3.08149">
        <ele>362.47603063522</ele>
        <time>2021-08-08T16:41:00.913Z</time>
      </trkpt>
      <trkpt lat="44.10737" lon="3.08127">
        <ele>362.84458004292</ele>
        <time>2021-08-08T16:41:01.434Z</time>
      </trkpt>
      <trkpt lat="44.10742" lon="3.08124">
        <ele>363.19120166453</ele>
        <time>2021-08-08T16:41:01.957Z</time>
      </trkpt>
      <trkpt lat="44.10747" lon="3.08113">
        <ele>363.50054921058</ele>
        <time>2021-08-08T16:41:02.483Z</time>
      </trkpt>
      <trkpt lat="44.10747" lon="3.08102">
        <ele>363.78526416852</ele>
        <time>2021-08-08T16:41:03.012Z</time>
      </trkpt>
      <trkpt lat="44.10743" lon="3.08092">
        <ele>364.0480112478</ele>
        <time>2021-08-08T16:41:03.544Z</time>
      </trkpt>
      <trkpt lat="44.10735" lon="3.08086">
        <ele>364.30050336725</ele>
        <time>2021-08-08T16:41:04.079Z</time>
      </trkpt>
      <trkpt lat="44.10729" lon="3.08086">
        <ele>364.52786362182</ele>
        <time>2021-08-08T16:41:04.616Z</time>
      </trkpt>
      <trkpt lat="44.10722" lon="3.0809">
        <ele>364.73271811514</ele>
        <time>2021-08-08T16:41:05.155Z</time>
      </trkpt>
      <trkpt lat="44.10716" lon="3.08101">
        <ele>364.92644708546</ele>
        <time>2021-08-08T16:41:05.698Z</time>
      </trkpt>
      <trkpt lat="44.10716" lon="3.08111">
        <ele>365.09916233028</ele>
        <time>2021-08-08T16:41:06.243Z</time>
      </trkpt>
      <trkpt lat="44.1072" lon="3.08123">
        <ele>365.24806944395</ele>
        <time>2021-08-08T16:41:06.791Z</time>
      </trkpt>
      <trkpt lat="44.10724" lon="3.08127">
        <ele>365.37215590541</ele>
        <time>2021-08-08T16:41:07.341Z</time>
      </trkpt>
      <trkpt lat="44.10729" lon="3.08129">
        <ele>365.47952246171</ele>
        <time>2021-08-08T16:41:07.893Z</time>
      </trkpt>
      <trkpt lat="44.10741" lon="3.08125">
        <ele>365.55390133629</ele>
        <time>2021-08-08T16:41:08.449Z</time>
      </trkpt>
      <trkpt lat="44.10745" lon="3.08117">
        <ele>365.61202209981</ele>
        <time>2021-08-08T16:41:09.007Z</time>
      </trkpt>
      <trkpt lat="44.10763" lon="3.08108">
        <ele>365.64543579321</ele>
        <time>2021-08-08T16:41:09.571Z</time>
      </trkpt>
      <trkpt lat="44.1078" lon="3.08103">
        <ele>365.67334280533</ele>
        <time>2021-08-08T16:41:10.141Z</time>
      </trkpt>
      <trkpt lat="44.1081" lon="3.0811">
        <ele>365.72379028374</ele>
        <time>2021-08-08T16:41:10.721Z</time>
      </trkpt>
      <trkpt lat="44.10823" lon="3.08115">
        <ele>365.76896433908</ele>
        <time>2021-08-08T16:41:11.306Z</time>
      </trkpt>
      <trkpt lat="44.10914" lon="3.08141">
        <ele>365.83778594748</ele>
        <time>2021-08-08T16:41:11.922Z</time>
      </trkpt>
      <trkpt lat="44.10983" lon="3.08159">
        <ele>365.94604864537</ele>
        <time>2021-08-08T16:41:12.561Z</time>
      </trkpt>
      <trkpt lat="44.11011" lon="3.08169">
        <ele>366.01335110265</ele>
        <time>2021-08-08T16:41:13.210Z</time>
      </trkpt>
      <trkpt lat="44.1101" lon="3.08175">
        <ele>366.04558363156</ele>
        <time>2021-08-08T16:41:13.860Z</time>
      </trkpt>
      <trkpt lat="44.11014" lon="3.0818">
        <ele>366.08073265676</ele>
        <time>2021-08-08T16:41:14.512Z</time>
      </trkpt>
      <trkpt lat="44.11019" lon="3.08178">
        <ele>366.1298689609</ele>
        <time>2021-08-08T16:41:15.166Z</time>
      </trkpt>
      <trkpt lat="44.1102" lon="3.08171">
        <ele>366.18157260977</ele>
        <time>2021-08-08T16:41:15.822Z</time>
      </trkpt>
      <trkpt lat="44.11096" lon="3.08194">
        <ele>366.24912459815</ele>
        <time>2021-08-08T16:41:16.504Z</time>
      </trkpt>
      <trkpt lat="44.11136" lon="3.08203">
        <ele>366.31096287201</ele>
        <time>2021-08-08T16:41:17.199Z</time>
      </trkpt>
      <trkpt lat="44.11246" lon="3.08236">
        <ele>366.37267048427</ele>
        <time>2021-08-08T16:41:17.932Z</time>
      </trkpt>
      <trkpt lat="44.11387" lon="3.08275">
        <ele>366.32767487543</ele>
        <time>2021-08-08T16:41:18.712Z</time>
      </trkpt>
      <trkpt lat="44.11418" lon="3.08294">
        <ele>366.38514361588</ele>
        <time>2021-08-08T16:41:19.504Z</time>
      </trkpt>
      <trkpt lat="44.11567" lon="3.08413">
        <ele>366.45240124716</ele>
        <time>2021-08-08T16:41:20.353Z</time>
      </trkpt>
      <trkpt lat="44.11574" lon="3.08423">
        <ele>366.51778948766</ele>
        <time>2021-08-08T16:41:21.205Z</time>
      </trkpt>
      <trkpt lat="44.11594" lon="3.08442">
        <ele>366.60886062563</ele>
        <time>2021-08-08T16:41:22.066Z</time>
      </trkpt>
      <trkpt lat="44.116" lon="3.08454">
        <ele>366.69046182952</ele>
        <time>2021-08-08T16:41:22.930Z</time>
      </trkpt>
      <trkpt lat="44.11602" lon="3.08463">
        <ele>366.78227709327</ele>
        <time>2021-08-08T16:41:23.796Z</time>
      </trkpt>
      <trkpt lat="44.11608" lon="3.08471">
        <ele>366.90553758849</ele>
        <time>2021-08-08T16:41:24.665Z</time>
      </trkpt>
      <trkpt lat="44.11615" lon="3.08474">
        <ele>367.06547318872</ele>
        <time>2021-08-08T16:41:25.537Z</time>
      </trkpt>
      <trkpt lat="44.11624" lon="3.08472">
        <ele>367.26666959159</ele>
        <time>2021-08-08T16:41:26.412Z</time>
      </trkpt>
      <trkpt lat="44.11661" lon="3.08491">
        <ele>367.50959855794</ele>
        <time>2021-08-08T16:41:27.300Z</time>
      </trkpt>
      <trkpt lat="44.11705" lon="3.08524">
        <ele>367.72164941261</ele>
        <time>2021-08-08T16:41:28.204Z</time>
      </trkpt>
      <trkpt lat="44.11713" lon="3.08528">
        <ele>367.93513112957</ele>
        <time>2021-08-08T16:41:29.111Z</time>
      </trkpt>
      <trkpt lat="44.1181" lon="3.08552">
        <ele>368.39784629681</ele>
        <time>2021-08-08T16:41:30.051Z</time>
      </trkpt>
      <trkpt lat="44.11824" lon="3.08556">
        <ele>368.6855486781</ele>
        <time>2021-08-08T16:41:30.996Z</time>
      </trkpt>
      <trkpt lat="44.1184" lon="3.08564">
        <ele>368.96546336243</ele>
        <time>2021-08-08T16:41:31.946Z</time>
      </trkpt>
      <trkpt lat="44.11854" lon="3.08576">
        <ele>369.2163498209</ele>
        <time>2021-08-08T16:41:32.902Z</time>
      </trkpt>
      <trkpt lat="44.11878" lon="3.08602">
        <ele>369.49135576931</ele>
        <time>2021-08-08T16:41:33.868Z</time>
      </trkpt>
      <trkpt lat="44.11922" lon="3.08656">
        <ele>369.76967358276</ele>
        <time>2021-08-08T16:41:34.854Z</time>
      </trkpt>
      <trkpt lat="44.11961" lon="3.08706">
        <ele>370.01571002477</ele>
        <time>2021-08-08T16:41:35.857Z</time>
      </trkpt>
      <trkpt lat="44.12062" lon="3.08866">
        <ele>370.0062757305</ele>
        <time>2021-08-08T16:41:36.911Z</time>
      </trkpt>
      <trkpt lat="44.1214" lon="3.08994">
        <ele>370.24296732514</ele>
        <time>2021-08-08T16:41:38.006Z</time>
      </trkpt>
      <trkpt lat="44.12185" lon="3.09088">
        <ele>370.40984951534</ele>
        <time>2021-08-08T16:41:39.128Z</time>
      </trkpt>
      <trkpt lat="44.12257" lon="3.09264">
        <ele>370.83748244612</ele>
        <time>2021-08-08T16:41:40.298Z</time>
      </trkpt>
      <trkpt lat="44.12281" lon="3.09319">
        <ele>371.09895600374</ele>
        <time>2021-08-08T16:41:41.484Z</time>
      </trkpt>
      <trkpt lat="44.12316" lon="3.09389">
        <ele>371.50064455709</ele>
        <time>2021-08-08T16:41:42.690Z</time>
      </trkpt>
      <trkpt lat="44.12362" lon="3.09467">
        <ele>371.97052086761</ele>
        <time>2021-08-08T16:41:43.921Z</time>
      </trkpt>
      <trkpt lat="44.12414" lon="3.09547">
        <ele>372.25998471869</ele>
        <time>2021-08-08T16:41:45.177Z</time>
      </trkpt>
      <trkpt lat="44.12513" lon="3.09707">
        <ele>372.54378731668</ele>
        <time>2021-08-08T16:41:46.484Z</time>
      </trkpt>
      <trkpt lat="44.1255" lon="3.0976">
        <ele>372.91447895323</ele>
        <time>2021-08-08T16:41:47.809Z</time>
      </trkpt>
      <trkpt lat="44.12567" lon="3.09781">
        <ele>373.35597495988</ele>
        <time>2021-08-08T16:41:49.141Z</time>
      </trkpt>
      <trkpt lat="44.12599" lon="3.09811">
        <ele>373.90953192101</ele>
        <time>2021-08-08T16:41:50.486Z</time>
      </trkpt>
      <trkpt lat="44.12622" lon="3.09828">
        <ele>374.42029126729</ele>
        <time>2021-08-08T16:41:51.840Z</time>
      </trkpt>
      <trkpt lat="44.12654" lon="3.09845">
        <ele>374.93420381497</ele>
        <time>2021-08-08T16:41:53.205Z</time>
      </trkpt>
      <trkpt lat="44.12697" lon="3.09858">
        <ele>375.48391196335</ele>
        <time>2021-08-08T16:41:54.585Z</time>
      </trkpt>
      <trkpt lat="44.12731" lon="3.09862">
        <ele>375.93879074532</ele>
        <time>2021-08-08T16:41:55.976Z</time>
      </trkpt>
      <trkpt lat="44.12748" lon="3.09861">
        <ele>376.46102278989</ele>
        <time>2021-08-08T16:41:57.373Z</time>
      </trkpt>
      <trkpt lat="44.12793" lon="3.09854">
        <ele>377.0349292207</ele>
        <time>2021-08-08T16:41:58.785Z</time>
      </trkpt>
      <trkpt lat="44.12885" lon="3.09829">
        <ele>377.58951901351</ele>
        <time>2021-08-08T16:42:00.228Z</time>
      </trkpt>
      <trkpt lat="44.12925" lon="3.0982">
        <ele>378.15931298956</ele>
        <time>2021-08-08T16:42:01.685Z</time>
      </trkpt>
      <trkpt lat="44.12947" lon="3.09817">
        <ele>378.7314083851</ele>
        <time>2021-08-08T16:42:03.149Z</time>
      </trkpt>
      <trkpt lat="44.1297" lon="3.09816">
        <ele>379.33615565684</ele>
        <time>2021-08-08T16:42:04.621Z</time>
      </trkpt>
      <trkpt lat="44.1299" lon="3.09816">
        <ele>379.95261875573</ele>
        <time>2021-08-08T16:42:06.100Z</time>
      </trkpt>
      <trkpt lat="44.13036" lon="3.0982">
        <ele>380.5710164269</ele>
        <time>2021-08-08T16:42:07.594Z</time>
      </trkpt>
      <trkpt lat="44.13071" lon="3.09829">
        <ele>381.22353572648</ele>
        <time>2021-08-08T16:42:09.100Z</time>
      </trkpt>
      <trkpt lat="44.13117" lon="3.09844">
        <ele>381.83946369876</ele>
        <time>2021-08-08T16:42:10.622Z</time>
      </trkpt>
      <trkpt lat="44.13341" lon="3.09927">
        <ele>382.56132980509</ele>
        <time>2021-08-08T16:42:12.221Z</time>
      </trkpt>
      <trkpt lat="44.13423" lon="3.09955">
        <ele>383.46701329534</ele>
        <time>2021-08-08T16:42:13.848Z</time>
      </trkpt>
      <trkpt lat="44.13461" lon="3.09963">
        <ele>384.27936015486</ele>
        <time>2021-08-08T16:42:15.488Z</time>
      </trkpt>
      <trkpt lat="44.13498" lon="3.09968">
        <ele>385.060963715</ele>
        <time>2021-08-08T16:42:17.140Z</time>
      </trkpt>
      <trkpt lat="44.13521" lon="3.0997">
        <ele>385.87335991845</ele>
        <time>2021-08-08T16:42:18.800Z</time>
      </trkpt>
      <trkpt lat="44.13635" lon="3.09973">
        <ele>386.78533706155</ele>
        <time>2021-08-08T16:42:20.498Z</time>
      </trkpt>
      <trkpt lat="44.13681" lon="3.0998">
        <ele>387.57831367528</ele>
        <time>2021-08-08T16:42:22.211Z</time>
      </trkpt>
      <trkpt lat="44.13697" lon="3.0998">
        <ele>388.3521741239</ele>
        <time>2021-08-08T16:42:23.930Z</time>
      </trkpt>
      <trkpt lat="44.13773" lon="3.09996">
        <ele>388.95684820378</ele>
        <time>2021-08-08T16:42:25.674Z</time>
      </trkpt>
      <trkpt lat="44.13929" lon="3.10024">
        <ele>390.01711443975</ele>
        <time>2021-08-08T16:42:27.471Z</time>
      </trkpt>
      <trkpt lat="44.13962" lon="3.10039">
        <ele>390.57349710702</ele>
        <time>2021-08-08T16:42:29.279Z</time>
      </trkpt>
      <trkpt lat="44.13977" lon="3.10049">
        <ele>391.03470277217</ele>
        <time>2021-08-08T16:42:31.093Z</time>
      </trkpt>
      <trkpt lat="44.13995" lon="3.10055">
        <ele>391.5117691412</ele>
        <time>2021-08-08T16:42:32.913Z</time>
      </trkpt>
      <trkpt lat="44.14039" lon="3.10048">
        <ele>392.1730060112</ele>
        <time>2021-08-08T16:42:34.748Z</time>
      </trkpt>
      <trkpt lat="44.14076" lon="3.10037">
        <ele>392.56609369357</ele>
        <time>2021-08-08T16:42:36.595Z</time>
      </trkpt>
      <trkpt lat="44.14091" lon="3.10028">
        <ele>392.91322852655</ele>
        <time>2021-08-08T16:42:38.448Z</time>
      </trkpt>
      <trkpt lat="44.1411" lon="3.10007">
        <ele>393.34440606416</ele>
        <time>2021-08-08T16:42:40.309Z</time>
      </trkpt>
      <trkpt lat="44.14147" lon="3.0995">
        <ele>393.9474660935</ele>
        <time>2021-08-08T16:42:42.188Z</time>
      </trkpt>
      <trkpt lat="44.1417" lon="3.09919">
        <ele>393.73679235313</ele>
        <time>2021-08-08T16:42:44.078Z</time>
      </trkpt>
      <trkpt lat="44.14227" lon="3.09871">
        <ele>393.43517175292</ele>
        <time>2021-08-08T16:42:45.990Z</time>
      </trkpt>
      <trkpt lat="44.14253" lon="3.09853">
        <ele>393.21437930568</ele>
        <time>2021-08-08T16:42:47.912Z</time>
      </trkpt>
      <trkpt lat="44.14266" lon="3.09846">
        <ele>392.93138766431</ele>
        <time>2021-08-08T16:42:49.839Z</time>
      </trkpt>
      <trkpt lat="44.14282" lon="3.09843">
        <ele>392.53547789758</ele>
        <time>2021-08-08T16:42:51.771Z</time>
      </trkpt>
      <trkpt lat="44.14315" lon="3.09845">
        <ele>391.98389280198</ele>
        <time>2021-08-08T16:42:53.714Z</time>
      </trkpt>
      <trkpt lat="44.14337" lon="3.09847">
        <ele>391.43857185392</ele>
        <time>2021-08-08T16:42:55.664Z</time>
      </trkpt>
      <trkpt lat="44.14373" lon="3.09855">
        <ele>390.81067146593</ele>
        <time>2021-08-08T16:42:57.627Z</time>
      </trkpt>
      <trkpt lat="44.14387" lon="3.09861">
        <ele>390.30126536229</ele>
        <time>2021-08-08T16:42:59.594Z</time>
      </trkpt>
      <trkpt lat="44.14446" lon="3.09897">
        <ele>389.59942807513</ele>
        <time>2021-08-08T16:43:01.583Z</time>
      </trkpt>
      <trkpt lat="44.14478" lon="3.09914">
        <ele>388.94145034387</ele>
        <time>2021-08-08T16:43:03.583Z</time>
      </trkpt>
      <trkpt lat="44.14497" lon="3.09915">
        <ele>388.42525082918</ele>
        <time>2021-08-08T16:43:05.590Z</time>
      </trkpt>
      <trkpt lat="44.14507" lon="3.09912">
        <ele>387.9467296416</ele>
        <time>2021-08-08T16:43:07.600Z</time>
      </trkpt>
      <trkpt lat="44.14547" lon="3.09884">
        <ele>387.68285641417</ele>
        <time>2021-08-08T16:43:09.625Z</time>
      </trkpt>
      <trkpt lat="44.14571" lon="3.0987">
        <ele>387.26421478475</ele>
        <time>2021-08-08T16:43:11.659Z</time>
      </trkpt>
      <trkpt lat="44.14583" lon="3.09866">
        <ele>386.7802470767</ele>
        <time>2021-08-08T16:43:13.697Z</time>
      </trkpt>
      <trkpt lat="44.14627" lon="3.09858">
        <ele>386.26257010324</ele>
        <time>2021-08-08T16:43:15.750Z</time>
      </trkpt>
      <trkpt lat="44.14649" lon="3.09847">
        <ele>385.77428452566</ele>
        <time>2021-08-08T16:43:17.810Z</time>
      </trkpt>
      <trkpt lat="44.14661" lon="3.09837">
        <ele>385.34726006868</ele>
        <time>2021-08-08T16:43:19.875Z</time>
      </trkpt>
      <trkpt lat="44.14701" lon="3.09795">
        <ele>385.04682904356</ele>
        <time>2021-08-08T16:43:21.957Z</time>
      </trkpt>
      <trkpt lat="44.14717" lon="3.09784">
        <ele>384.60785506242</ele>
        <time>2021-08-08T16:43:24.045Z</time>
      </trkpt>
      <trkpt lat="44.14727" lon="3.09781">
        <ele>384.0950549652</ele>
        <time>2021-08-08T16:43:26.136Z</time>
      </trkpt>
      <trkpt lat="44.14754" lon="3.09783">
        <ele>383.45690586445</ele>
        <time>2021-08-08T16:43:28.236Z</time>
      </trkpt>
      <trkpt lat="44.1492" lon="3.09808">
        <ele>382.82601914887</ele>
        <time>2021-08-08T16:43:30.392Z</time>
      </trkpt>
      <trkpt lat="44.14954" lon="3.09811">
        <ele>382.36911485236</ele>
        <time>2021-08-08T16:43:32.559Z</time>
      </trkpt>
      <trkpt lat="44.14974" lon="3.09811">
        <ele>381.85750620547</ele>
        <time>2021-08-08T16:43:34.733Z</time>
      </trkpt>
      <trkpt lat="44.15076" lon="3.09798">
        <ele>381.37986508369</ele>
        <time>2021-08-08T16:43:36.941Z</time>
      </trkpt>
      <trkpt lat="44.15127" lon="3.09789">
        <ele>380.75387827541</ele>
        <time>2021-08-08T16:43:39.166Z</time>
      </trkpt>
      <trkpt lat="44.15151" lon="3.09787">
        <ele>380.20987582053</ele>
        <time>2021-08-08T16:43:41.399Z</time>
      </trkpt>
      <trkpt lat="44.15151" lon="3.09791">
        <ele>379.69922744181</ele>
        <time>2021-08-08T16:43:43.633Z</time>
      </trkpt>
      <trkpt lat="44.15154" lon="3.09797">
        <ele>379.17491679758</ele>
        <time>2021-08-08T16:43:45.869Z</time>
      </trkpt>
      <trkpt lat="44.15157" lon="3.09799">
        <ele>378.68023458531</ele>
        <time>2021-08-08T16:43:48.106Z</time>
      </trkpt>
      <trkpt lat="44.15163" lon="3.09799">
        <ele>378.19585731103</ele>
        <time>2021-08-08T16:43:50.345Z</time>
      </trkpt>
      <trkpt lat="44.15168" lon="3.09793">
        <ele>377.75861118297</ele>
        <time>2021-08-08T16:43:52.586Z</time>
      </trkpt>
      <trkpt lat="44.15169" lon="3.09786">
        <ele>377.3562442314</ele>
        <time>2021-08-08T16:43:54.829Z</time>
      </trkpt>
      <trkpt lat="44.15292" lon="3.09782">
        <ele>376.63730670438</ele>
        <time>2021-08-08T16:43:57.113Z</time>
      </trkpt>
      <trkpt lat="44.15358" lon="3.09789">
        <ele>376.30682816846</ele>
        <time>2021-08-08T16:43:59.419Z</time>
      </trkpt>
      <trkpt lat="44.15431" lon="3.09793">
        <ele>375.99153258582</ele>
        <time>2021-08-08T16:44:01.749Z</time>
      </trkpt>
      <trkpt lat="44.15453" lon="3.09795">
        <ele>375.65101956684</ele>
        <time>2021-08-08T16:44:04.087Z</time>
      </trkpt>
      <trkpt lat="44.15467" lon="3.098">
        <ele>375.31010699392</ele>
        <time>2021-08-08T16:44:06.429Z</time>
      </trkpt>
      <trkpt lat="44.15486" lon="3.09801">
        <ele>375.00266842839</ele>
        <time>2021-08-08T16:44:08.778Z</time>
      </trkpt>
      <trkpt lat="44.15504" lon="3.09809">
        <ele>374.69738754815</ele>
        <time>2021-08-08T16:44:11.133Z</time>
      </trkpt>
      <trkpt lat="44.15512" lon="3.0982">
        <ele>374.39861407889</ele>
        <time>2021-08-08T16:44:13.492Z</time>
      </trkpt>
      <trkpt lat="44.15519" lon="3.09826">
        <ele>374.13224154854</ele>
        <time>2021-08-08T16:44:15.854Z</time>
      </trkpt>
      <trkpt lat="44.15551" lon="3.09842">
        <ele>373.8919691256</ele>
        <time>2021-08-08T16:44:18.227Z</time>
      </trkpt>
      <trkpt lat="44.15569" lon="3.09848">
        <ele>373.68275183264</ele>
        <time>2021-08-08T16:44:20.606Z</time>
      </trkpt>
      <trkpt lat="44.15604" lon="3.09851">
        <ele>373.52467864359</ele>
        <time>2021-08-08T16:44:22.997Z</time>
      </trkpt>
      <trkpt lat="44.15615" lon="3.0985">
        <ele>373.37303538111</ele>
        <time>2021-08-08T16:44:25.391Z</time>
      </trkpt>
      <trkpt lat="44.15639" lon="3.09853">
        <ele>373.24771185123</ele>
        <time>2021-08-08T16:44:27.793Z</time>
      </trkpt>
      <trkpt lat="44.15676" lon="3.09855">
        <ele>373.16161441965</ele>
        <time>2021-08-08T16:44:30.208Z</time>
      </trkpt>
      <trkpt lat="44.15684" lon="3.09857">
        <ele>373.06221919012</ele>
        <time>2021-08-08T16:44:32.626Z</time>
      </trkpt>
      <trkpt lat="44.15698" lon="3.0987">
        <ele>372.95564029606</ele>
        <time>2021-08-08T16:44:35.049Z</time>
      </trkpt>
      <trkpt lat="44.15727" lon="3.0992">
        <ele>372.7230431539</ele>
        <time>2021-08-08T16:44:37.488Z</time>
      </trkpt>
      <trkpt lat="44.15754" lon="3.09959">
        <ele>372.61296093062</ele>
        <time>2021-08-08T16:44:39.940Z</time>
      </trkpt>
      <trkpt lat="44.1577" lon="3.09989">
        <ele>372.57661942049</ele>
        <time>2021-08-08T16:44:42.400Z</time>
      </trkpt>
      <trkpt lat="44.15777" lon="3.10009">
        <ele>372.60155737039</ele>
        <time>2021-08-08T16:44:44.866Z</time>
      </trkpt>
      <trkpt lat="44.15785" lon="3.10048">
        <ele>372.69823725977</ele>
        <time>2021-08-08T16:44:47.342Z</time>
      </trkpt>
      <trkpt lat="44.15832" lon="3.1039">
        <ele>372.69857950593</ele>
        <time>2021-08-08T16:44:49.901Z</time>
      </trkpt>
      <trkpt lat="44.15846" lon="3.10438">
        <ele>372.892225335</ele>
        <time>2021-08-08T16:44:52.473Z</time>
      </trkpt>
      <trkpt lat="44.15867" lon="3.10496">
        <ele>373.17300182565</ele>
        <time>2021-08-08T16:44:55.060Z</time>
      </trkpt>
      <trkpt lat="44.15891" lon="3.10593">
        <ele>373.51961097648</ele>
        <time>2021-08-08T16:44:57.672Z</time>
      </trkpt>
      <trkpt lat="44.15942" lon="3.10843">
        <ele>373.91880221053</ele>
        <time>2021-08-08T16:45:00.346Z</time>
      </trkpt>
      <trkpt lat="44.15957" lon="3.10935">
        <ele>374.15417600714</ele>
        <time>2021-08-08T16:45:03.043Z</time>
      </trkpt>
      <trkpt lat="44.15974" lon="3.11003">
        <ele>374.53310913538</ele>
        <time>2021-08-08T16:45:05.757Z</time>
      </trkpt>
      <trkpt lat="44.16013" lon="3.11094">
        <ele>374.89825290827</ele>
        <time>2021-08-08T16:45:08.496Z</time>
      </trkpt>
      <trkpt lat="44.16058" lon="3.11186">
        <ele>375.45678537978</ele>
        <time>2021-08-08T16:45:11.262Z</time>
      </trkpt>
      <trkpt lat="44.16112" lon="3.11291">
        <ele>375.90436247397</ele>
        <time>2021-08-08T16:45:14.059Z</time>
      </trkpt>
      <trkpt lat="44.16135" lon="3.11332">
        <ele>376.39064775841</ele>
        <time>2021-08-08T16:45:16.869Z</time>
      </trkpt>
      <trkpt lat="44.16159" lon="3.11358">
        <ele>376.83040266619</ele>
        <time>2021-08-08T16:45:19.689Z</time>
      </trkpt>
      <trkpt lat="44.16176" lon="3.11369">
        <ele>377.26807538151</ele>
        <time>2021-08-08T16:45:22.515Z</time>
      </trkpt>
      <trkpt lat="44.16193" lon="3.11377">
        <ele>377.7167877921</ele>
        <time>2021-08-08T16:45:25.347Z</time>
      </trkpt>
      <trkpt lat="44.16206" lon="3.11379">
        <ele>378.11060187474</ele>
        <time>2021-08-08T16:45:28.183Z</time>
      </trkpt>
      <trkpt lat="44.1622" lon="3.11379">
        <ele>378.49183032044</ele>
        <time>2021-08-08T16:45:31.024Z</time>
      </trkpt>
      <trkpt lat="44.16253" lon="3.11373">
        <ele>379.00615888668</ele>
        <time>2021-08-08T16:45:33.876Z</time>
      </trkpt>
      <trkpt lat="44.16287" lon="3.11362">
        <ele>379.51901476016</ele>
        <time>2021-08-08T16:45:36.740Z</time>
      </trkpt>
      <trkpt lat="44.16335" lon="3.11349">
        <ele>379.73897997529</ele>
        <time>2021-08-08T16:45:39.620Z</time>
      </trkpt>
      <trkpt lat="44.16369" lon="3.11336">
        <ele>380.02109438549</ele>
        <time>2021-08-08T16:45:42.512Z</time>
      </trkpt>
      <trkpt lat="44.16402" lon="3.11326">
        <ele>380.24900924487</ele>
        <time>2021-08-08T16:45:45.415Z</time>
      </trkpt>
      <trkpt lat="44.16452" lon="3.11321">
        <ele>380.16699096352</ele>
        <time>2021-08-08T16:45:48.335Z</time>
      </trkpt>
      <trkpt lat="44.1649" lon="3.11312">
        <ele>380.32835782081</ele>
        <time>2021-08-08T16:45:51.268Z</time>
      </trkpt>
      <trkpt lat="44.16505" lon="3.1131">
        <ele>380.40355535942</ele>
        <time>2021-08-08T16:45:54.206Z</time>
      </trkpt>
      <trkpt lat="44.16521" lon="3.11313">
        <ele>380.3881303923</ele>
        <time>2021-08-08T16:45:57.149Z</time>
      </trkpt>
      <trkpt lat="44.16534" lon="3.11319">
        <ele>380.38141559356</ele>
        <time>2021-08-08T16:46:00.097Z</time>
      </trkpt>
      <trkpt lat="44.16549" lon="3.1133">
        <ele>380.37282840568</ele>
        <time>2021-08-08T16:46:03.050Z</time>
      </trkpt>
      <trkpt lat="44.16578" lon="3.11358">
        <ele>380.3205465918</ele>
        <time>2021-08-08T16:46:06.015Z</time>
      </trkpt>
      <trkpt lat="44.16601" lon="3.11383">
        <ele>380.33443093519</ele>
        <time>2021-08-08T16:46:08.990Z</time>
      </trkpt>
      <trkpt lat="44.16622" lon="3.114">
        <ele>380.38597789322</ele>
        <time>2021-08-08T16:46:11.973Z</time>
      </trkpt>
      <trkpt lat="44.16696" lon="3.11451">
        <ele>380.55967732404</ele>
        <time>2021-08-08T16:46:14.983Z</time>
      </trkpt>
      <trkpt lat="44.16739" lon="3.11487">
        <ele>380.68644031194</ele>
        <time>2021-08-08T16:46:18.010Z</time>
      </trkpt>
      <trkpt lat="44.16757" lon="3.11525">
        <ele>380.77115193843</ele>
        <time>2021-08-08T16:46:21.048Z</time>
      </trkpt>
      <trkpt lat="44.16767" lon="3.11556">
        <ele>380.89524916524</ele>
        <time>2021-08-08T16:46:24.094Z</time>
      </trkpt>
      <trkpt lat="44.16771" lon="3.11582">
        <ele>381.0375201529</ele>
        <time>2021-08-08T16:46:27.147Z</time>
      </trkpt>
      <trkpt lat="44.16775" lon="3.11629">
        <ele>381.21345711536</ele>
        <time>2021-08-08T16:46:30.211Z</time>
      </trkpt>
      <trkpt lat="44.16791" lon="3.11693">
        <ele>381.48658247761</ele>
        <time>2021-08-08T16:46:33.291Z</time>
      </trkpt>
      <trkpt lat="44.16815" lon="3.11771">
        <ele>381.85895644093</ele>
        <time>2021-08-08T16:46:36.391Z</time>
      </trkpt>
      <trkpt lat="44.1682" lon="3.11792">
        <ele>382.21315535677</ele>
        <time>2021-08-08T16:46:39.497Z</time>
      </trkpt>
      <trkpt lat="44.16826" lon="3.11881">
        <ele>382.51910080668</ele>
        <time>2021-08-08T16:46:42.624Z</time>
      </trkpt>
      <trkpt lat="44.16834" lon="3.11917">
        <ele>382.90218095641</ele>
        <time>2021-08-08T16:46:45.760Z</time>
      </trkpt>
      <trkpt lat="44.16919" lon="3.12145">
        <ele>383.32879903103</ele>
        <time>2021-08-08T16:46:48.958Z</time>
      </trkpt>
      <trkpt lat="44.16963" lon="3.12282">
        <ele>383.59597097685</ele>
        <time>2021-08-08T16:46:52.192Z</time>
      </trkpt>
      <trkpt lat="44.16976" lon="3.1231">
        <ele>384.14864148033</ele>
        <time>2021-08-08T16:46:55.434Z</time>
      </trkpt>
      <trkpt lat="44.1699" lon="3.12327">
        <ele>384.76953737284</ele>
        <time>2021-08-08T16:46:58.682Z</time>
      </trkpt>
      <trkpt lat="44.1701" lon="3.12343">
        <ele>385.4667521824</ele>
        <time>2021-08-08T16:47:01.938Z</time>
      </trkpt>
      <trkpt lat="44.17062" lon="3.12369">
        <ele>386.25681955235</ele>
        <time>2021-08-08T16:47:05.212Z</time>
      </trkpt>
      <trkpt lat="44.17118" lon="3.12404">
        <ele>387.04519808134</ele>
        <time>2021-08-08T16:47:08.507Z</time>
      </trkpt>
      <trkpt lat="44.17153" lon="3.12424">
        <ele>387.7078800511</ele>
        <time>2021-08-08T16:47:11.814Z</time>
      </trkpt>
      <trkpt lat="44.1717" lon="3.12432">
        <ele>388.41370869012</ele>
        <time>2021-08-08T16:47:15.127Z</time>
      </trkpt>
      <trkpt lat="44.17217" lon="3.12447">
        <ele>389.18389060719</ele>
        <time>2021-08-08T16:47:18.456Z</time>
      </trkpt>
      <trkpt lat="44.1729" lon="3.1246">
        <ele>389.90126211019</ele>
        <time>2021-08-08T16:47:21.810Z</time>
      </trkpt>
      <trkpt lat="44.17302" lon="3.12461">
        <ele>390.5627203395</ele>
        <time>2021-08-08T16:47:25.168Z</time>
      </trkpt>
      <trkpt lat="44.17318" lon="3.1246">
        <ele>391.22841802531</ele>
        <time>2021-08-08T16:47:28.531Z</time>
      </trkpt>
      <trkpt lat="44.17329" lon="3.12457">
        <ele>391.87923234609</ele>
        <time>2021-08-08T16:47:31.898Z</time>
      </trkpt>
      <trkpt lat="44.17343" lon="3.12452">
        <ele>392.51619444982</ele>
        <time>2021-08-08T16:47:35.270Z</time>
      </trkpt>
      <trkpt lat="44.17415" lon="3.12414">
        <ele>393.28229703362</ele>
        <time>2021-08-08T16:47:38.667Z</time>
      </trkpt>
      <trkpt lat="44.17434" lon="3.12409">
        <ele>393.74843152466</ele>
        <time>2021-08-08T16:47:42.071Z</time>
      </trkpt>
      <trkpt lat="44.17458" lon="3.12407">
        <ele>394.14603321851</ele>
        <time>2021-08-08T16:47:45.483Z</time>
      </trkpt>
      <trkpt lat="44.17483" lon="3.1241">
        <ele>394.41572227783</ele>
        <time>2021-08-08T16:47:48.903Z</time>
      </trkpt>
      <trkpt lat="44.17516" lon="3.12422">
        <ele>394.47825573917</ele>
        <time>2021-08-08T16:47:52.335Z</time>
      </trkpt>
      <trkpt lat="44.17524" lon="3.12429">
        <ele>394.58019573717</ele>
        <time>2021-08-08T16:47:55.770Z</time>
      </trkpt>
      <trkpt lat="44.17552" lon="3.12445">
        <ele>394.6206883683</ele>
        <time>2021-08-08T16:47:59.215Z</time>
      </trkpt>
      <trkpt lat="44.17569" lon="3.12451">
        <ele>394.67033573988</ele>
        <time>2021-08-08T16:48:02.666Z</time>
      </trkpt>
      <trkpt lat="44.17595" lon="3.12455">
        <ele>394.69115967724</ele>
        <time>2021-08-08T16:48:06.125Z</time>
      </trkpt>
      <trkpt lat="44.17672" lon="3.12451">
        <ele>394.83796030609</ele>
        <time>2021-08-08T16:48:09.610Z</time>
      </trkpt>
      <trkpt lat="44.17733" lon="3.12442">
        <ele>394.7949659382</ele>
        <time>2021-08-08T16:48:13.116Z</time>
      </trkpt>
      <trkpt lat="44.17777" lon="3.12438">
        <ele>394.57199374358</ele>
        <time>2021-08-08T16:48:16.636Z</time>
      </trkpt>
      <trkpt lat="44.1782" lon="3.12431">
        <ele>394.26786417238</ele>
        <time>2021-08-08T16:48:20.171Z</time>
      </trkpt>
      <trkpt lat="44.17864" lon="3.12426">
        <ele>393.89872010353</ele>
        <time>2021-08-08T16:48:23.720Z</time>
      </trkpt>
      <trkpt lat="44.17886" lon="3.12428">
        <ele>393.4795116478</ele>
        <time>2021-08-08T16:48:27.277Z</time>
      </trkpt>
      <trkpt lat="44.17904" lon="3.12433">
        <ele>392.93945213454</ele>
        <time>2021-08-08T16:48:30.840Z</time>
      </trkpt>
      <trkpt lat="44.17924" lon="3.12441">
        <ele>392.29865841617</ele>
        <time>2021-08-08T16:48:34.410Z</time>
      </trkpt>
      <trkpt lat="44.18133" lon="3.12541">
        <ele>391.43972100091</ele>
        <time>2021-08-08T16:48:38.054Z</time>
      </trkpt>
      <trkpt lat="44.18158" lon="3.12556">
        <ele>390.68543565496</ele>
        <time>2021-08-08T16:48:41.707Z</time>
      </trkpt>
      <trkpt lat="44.18224" lon="3.12601">
        <ele>389.71394138979</ele>
        <time>2021-08-08T16:48:45.384Z</time>
      </trkpt>
      <trkpt lat="44.18261" lon="3.12641">
        <ele>388.75649689887</ele>
        <time>2021-08-08T16:48:49.077Z</time>
      </trkpt>
      <trkpt lat="44.18292" lon="3.12662">
        <ele>387.91954440536</ele>
        <time>2021-08-08T16:48:52.781Z</time>
      </trkpt>
      <trkpt lat="44.18325" lon="3.12676">
        <ele>387.15307340434</ele>
        <time>2021-08-08T16:48:56.497Z</time>
      </trkpt>
      <trkpt lat="44.18395" lon="3.12697">
        <ele>386.39350743043</ele>
        <time>2021-08-08T16:49:00.237Z</time>
      </trkpt>
      <trkpt lat="44.18427" lon="3.12709">
        <ele>385.52358515062</ele>
        <time>2021-08-08T16:49:03.988Z</time>
      </trkpt>
      <trkpt lat="44.18453" lon="3.12728">
        <ele>384.64115546164</ele>
        <time>2021-08-08T16:49:07.748Z</time>
      </trkpt>
      <trkpt lat="44.18556" lon="3.12815">
        <ele>383.79653517404</ele>
        <time>2021-08-08T16:49:11.549Z</time>
      </trkpt>
      <trkpt lat="44.18577" lon="3.12835">
        <ele>383.02620820227</ele>
        <time>2021-08-08T16:49:15.358Z</time>
      </trkpt>
      <trkpt lat="44.18672" lon="3.12914">
        <ele>382.4159293715</ele>
        <time>2021-08-08T16:49:19.204Z</time>
      </trkpt>
      <trkpt lat="44.18675" lon="3.12918">
        <ele>381.69640154856</ele>
        <time>2021-08-08T16:49:23.051Z</time>
      </trkpt>
      <trkpt lat="44.18751" lon="3.1298">
        <ele>381.04910879956</ele>
        <time>2021-08-08T16:49:26.928Z</time>
      </trkpt>
      <trkpt lat="44.18786" lon="3.13014">
        <ele>380.37419958574</ele>
        <time>2021-08-08T16:49:30.819Z</time>
      </trkpt>
      <trkpt lat="44.18802" lon="3.13033">
        <ele>379.71508247571</ele>
        <time>2021-08-08T16:49:34.717Z</time>
      </trkpt>
      <trkpt lat="44.18799" lon="3.13038">
        <ele>379.11153469862</ele>
        <time>2021-08-08T16:49:38.617Z</time>
      </trkpt>
      <trkpt lat="44.18799" lon="3.13044">
        <ele>378.54855563373</ele>
        <time>2021-08-08T16:49:42.518Z</time>
      </trkpt>
      <trkpt lat="44.18801" lon="3.13048">
        <ele>378.03306685826</ele>
        <time>2021-08-08T16:49:46.420Z</time>
      </trkpt>
      <trkpt lat="44.18806" lon="3.13049">
        <ele>377.57057687245</ele>
        <time>2021-08-08T16:49:50.324Z</time>
      </trkpt>
      <trkpt lat="44.18837" lon="3.13188">
        <ele>377.01003088429</ele>
        <time>2021-08-08T16:49:54.263Z</time>
      </trkpt>
      <trkpt lat="44.1887" lon="3.13319">
        <ele>376.71375737071</ele>
        <time>2021-08-08T16:49:58.235Z</time>
      </trkpt>
      <trkpt lat="44.18902" lon="3.1346">
        <ele>376.35848603417</ele>
        <time>2021-08-08T16:50:02.243Z</time>
      </trkpt>
      <trkpt lat="44.18932" lon="3.13579">
        <ele>376.05104970351</ele>
        <time>2021-08-08T16:50:06.281Z</time>
      </trkpt>
      <trkpt lat="44.18962" lon="3.13712">
        <ele>375.90037872297</ele>
        <time>2021-08-08T16:50:10.352Z</time>
      </trkpt>
      <trkpt lat="44.19031" lon="3.13997">
        <ele>375.6902088498</ele>
        <time>2021-08-08T16:50:14.495Z</time>
      </trkpt>
      <trkpt lat="44.19058" lon="3.14116">
        <ele>375.83477021626</ele>
        <time>2021-08-08T16:50:18.668Z</time>
      </trkpt>
      <trkpt lat="44.19062" lon="3.14152">
        <ele>375.96013997614</ele>
        <time>2021-08-08T16:50:22.850Z</time>
      </trkpt>
      <trkpt lat="44.19067" lon="3.14284">
        <ele>376.30227852717</ele>
        <time>2021-08-08T16:50:27.064Z</time>
      </trkpt>
      <trkpt lat="44.19072" lon="3.14318">
        <ele>376.63798458648</ele>
        <time>2021-08-08T16:50:31.286Z</time>
      </trkpt>
      <trkpt lat="44.19105" lon="3.14473">
        <ele>376.94562542155</ele>
        <time>2021-08-08T16:50:35.547Z</time>
      </trkpt>
      <trkpt lat="44.19115" lon="3.14532">
        <ele>377.37258996012</ele>
        <time>2021-08-08T16:50:39.822Z</time>
      </trkpt>
      <trkpt lat="44.19135" lon="3.14673">
        <ele>378.073088465</ele>
        <time>2021-08-08T16:50:44.132Z</time>
      </trkpt>
      <trkpt lat="44.19137" lon="3.14703">
        <ele>378.75771328257</ele>
        <time>2021-08-08T16:50:48.449Z</time>
      </trkpt>
      <trkpt lat="44.19131" lon="3.14756">
        <ele>379.5148832432</ele>
        <time>2021-08-08T16:50:52.779Z</time>
      </trkpt>
      <trkpt lat="44.19108" lon="3.14863">
        <ele>380.25497954819</ele>
        <time>2021-08-08T16:50:57.136Z</time>
      </trkpt>
      <trkpt lat="44.19087" lon="3.1493">
        <ele>381.13574319766</ele>
        <time>2021-08-08T16:51:01.510Z</time>
      </trkpt>
      <trkpt lat="44.19064" lon="3.15015">
        <ele>382.21046361546</ele>
        <time>2021-08-08T16:51:05.906Z</time>
      </trkpt>
      <trkpt lat="44.19041" lon="3.15092">
        <ele>383.22404696054</ele>
        <time>2021-08-08T16:51:10.322Z</time>
      </trkpt>
      <trkpt lat="44.19004" lon="3.15186">
        <ele>384.39901107162</ele>
        <time>2021-08-08T16:51:14.764Z</time>
      </trkpt>
      <trkpt lat="44.18973" lon="3.15285">
        <ele>385.74621976795</ele>
        <time>2021-08-08T16:51:19.232Z</time>
      </trkpt>
      <trkpt lat="44.18943" lon="3.15409">
        <ele>386.73603494624</ele>
        <time>2021-08-08T16:51:23.731Z</time>
      </trkpt>
      <trkpt lat="44.1894" lon="3.15439">
        <ele>388.04639110473</ele>
        <time>2021-08-08T16:51:28.237Z</time>
      </trkpt>
      <trkpt lat="44.18942" lon="3.15474">
        <ele>389.37811981557</ele>
        <time>2021-08-08T16:51:32.752Z</time>
      </trkpt>
      <trkpt lat="44.18948" lon="3.15505">
        <ele>390.81157209739</ele>
        <time>2021-08-08T16:51:37.274Z</time>
      </trkpt>
      <trkpt lat="44.18958" lon="3.15534">
        <ele>392.26661006093</ele>
        <time>2021-08-08T16:51:41.804Z</time>
      </trkpt>
      <trkpt lat="44.18967" lon="3.15552">
        <ele>393.77574566527</ele>
        <time>2021-08-08T16:51:46.339Z</time>
      </trkpt>
      <trkpt lat="44.18983" lon="3.15578">
        <ele>395.35365816738</ele>
        <time>2021-08-08T16:51:50.883Z</time>
      </trkpt>
      <trkpt lat="44.18997" lon="3.15592">
        <ele>396.94767665775</ele>
        <time>2021-08-08T16:51:55.432Z</time>
      </trkpt>
      <trkpt lat="44.19042" lon="3.1563">
        <ele>398.54091163477</ele>
        <time>2021-08-08T16:51:59.999Z</time>
      </trkpt>
      <trkpt lat="44.19063" lon="3.15643">
        <ele>399.98854194888</ele>
        <time>2021-08-08T16:52:04.574Z</time>
      </trkpt>
      <trkpt lat="44.19094" lon="3.15652">
        <ele>401.54781694327</ele>
        <time>2021-08-08T16:52:09.159Z</time>
      </trkpt>
      <trkpt lat="44.19148" lon="3.1565">
        <ele>403.24289120382</ele>
        <time>2021-08-08T16:52:13.762Z</time>
      </trkpt>
      <trkpt lat="44.19189" lon="3.15645">
        <ele>404.81938082972</ele>
        <time>2021-08-08T16:52:18.379Z</time>
      </trkpt>
      <trkpt lat="44.19236" lon="3.15632">
        <ele>406.30870739567</ele>
        <time>2021-08-08T16:52:23.012Z</time>
      </trkpt>
      <trkpt lat="44.19285" lon="3.1561">
        <ele>407.48652440176</ele>
        <time>2021-08-08T16:52:27.662Z</time>
      </trkpt>
      <trkpt lat="44.19309" lon="3.15607">
        <ele>408.27213048796</ele>
        <time>2021-08-08T16:52:32.320Z</time>
      </trkpt>
      <trkpt lat="44.19316" lon="3.15604">
        <ele>409.04734625189</ele>
        <time>2021-08-08T16:52:36.980Z</time>
      </trkpt>
      <trkpt lat="44.19377" lon="3.15541">
        <ele>409.92468338552</ele>
        <time>2021-08-08T16:52:41.666Z</time>
      </trkpt>
      <trkpt lat="44.19401" lon="3.15511">
        <ele>410.42777959048</ele>
        <time>2021-08-08T16:52:46.362Z</time>
      </trkpt>
      <trkpt lat="44.19438" lon="3.15473">
        <ele>410.92045959364</ele>
        <time>2021-08-08T16:52:51.074Z</time>
      </trkpt>
      <trkpt lat="44.1946" lon="3.15444">
        <ele>411.39363347803</ele>
        <time>2021-08-08T16:52:55.796Z</time>
      </trkpt>
      <trkpt lat="44.19475" lon="3.15427">
        <ele>411.41592916282</ele>
        <time>2021-08-08T16:53:00.524Z</time>
      </trkpt>
      <trkpt lat="44.19486" lon="3.15417">
        <ele>411.30456571655</ele>
        <time>2021-08-08T16:53:05.257Z</time>
      </trkpt>
      <trkpt lat="44.19497" lon="3.1541">
        <ele>410.99261775287</ele>
        <time>2021-08-08T16:53:09.994Z</time>
      </trkpt>
      <trkpt lat="44.19539" lon="3.1539">
        <ele>410.22824058085</ele>
        <time>2021-08-08T16:53:14.746Z</time>
      </trkpt>
      <trkpt lat="44.19582" lon="3.15375">
        <ele>409.55769745763</ele>
        <time>2021-08-08T16:53:19.512Z</time>
      </trkpt>
      <trkpt lat="44.19618" lon="3.15368">
        <ele>408.71655806064</ele>
        <time>2021-08-08T16:53:24.291Z</time>
      </trkpt>
      <trkpt lat="44.19641" lon="3.15369">
        <ele>407.98813084787</ele>
        <time>2021-08-08T16:53:29.077Z</time>
      </trkpt>
      <trkpt lat="44.19697" lon="3.1538">
        <ele>407.04879920768</ele>
        <time>2021-08-08T16:53:33.882Z</time>
      </trkpt>
      <trkpt lat="44.19737" lon="3.15384">
        <ele>406.1211239581</ele>
        <time>2021-08-08T16:53:38.700Z</time>
      </trkpt>
      <trkpt lat="44.19782" lon="3.15381">
        <ele>405.14530948246</ele>
        <time>2021-08-08T16:53:43.533Z</time>
      </trkpt>
      <trkpt lat="44.19851" lon="3.15368">
        <ele>404.08294448937</ele>
        <time>2021-08-08T16:53:48.390Z</time>
      </trkpt>
      <trkpt lat="44.19877" lon="3.15366">
        <ele>403.08589299919</ele>
        <time>2021-08-08T16:53:53.255Z</time>
      </trkpt>
      <trkpt lat="44.19901" lon="3.15368">
        <ele>402.11431365561</ele>
        <time>2021-08-08T16:53:58.128Z</time>
      </trkpt>
      <trkpt lat="44.19921" lon="3.15372">
        <ele>401.12406838571</ele>
        <time>2021-08-08T16:54:03.008Z</time>
      </trkpt>
      <trkpt lat="44.19942" lon="3.15379">
        <ele>400.10371471122</ele>
        <time>2021-08-08T16:54:07.895Z</time>
      </trkpt>
      <trkpt lat="44.19964" lon="3.15391">
        <ele>399.17780297367</ele>
        <time>2021-08-08T16:54:12.790Z</time>
      </trkpt>
      <trkpt lat="44.19981" lon="3.15403">
        <ele>398.24325987113</ele>
        <time>2021-08-08T16:54:17.691Z</time>
      </trkpt>
      <trkpt lat="44.19999" lon="3.15419">
        <ele>397.29311342121</ele>
        <time>2021-08-08T16:54:22.600Z</time>
      </trkpt>
      <trkpt lat="44.20029" lon="3.15453">
        <ele>396.36444159979</ele>
        <time>2021-08-08T16:54:27.522Z</time>
      </trkpt>
      <trkpt lat="44.20052" lon="3.15489">
        <ele>395.47062569825</ele>
        <time>2021-08-08T16:54:32.455Z</time>
      </trkpt>
      <trkpt lat="44.2007" lon="3.15533">
        <ele>394.52491516213</ele>
        <time>2021-08-08T16:54:37.400Z</time>
      </trkpt>
      <trkpt lat="44.20089" lon="3.15592">
        <ele>393.64941927327</ele>
        <time>2021-08-08T16:54:42.361Z</time>
      </trkpt>
      <trkpt lat="44.20097" lon="3.15623">
        <ele>392.86713863686</ele>
        <time>2021-08-08T16:54:47.330Z</time>
      </trkpt>
      <trkpt lat="44.20111" lon="3.15659">
        <ele>392.16588525044</ele>
        <time>2021-08-08T16:54:52.308Z</time>
      </trkpt>
      <trkpt lat="44.2012" lon="3.15675">
        <ele>391.52460556192</ele>
        <time>2021-08-08T16:54:57.291Z</time>
      </trkpt>
      <trkpt lat="44.2013" lon="3.15685">
        <ele>390.93166762752</ele>
        <time>2021-08-08T16:55:02.278Z</time>
      </trkpt>
      <trkpt lat="44.20151" lon="3.157">
        <ele>390.40769457594</ele>
        <time>2021-08-08T16:55:07.273Z</time>
      </trkpt>
      <trkpt lat="44.20188" lon="3.15708">
        <ele>390.08042070131</ele>
        <time>2021-08-08T16:55:12.281Z</time>
      </trkpt>
      <trkpt lat="44.20271" lon="3.15708">
        <ele>389.22940065259</ele>
        <time>2021-08-08T16:55:17.316Z</time>
      </trkpt>
      <trkpt lat="44.20287" lon="3.1571">
        <ele>388.82586006605</ele>
        <time>2021-08-08T16:55:22.357Z</time>
      </trkpt>
      <trkpt lat="44.20301" lon="3.15714">
        <ele>388.45407383407</ele>
        <time>2021-08-08T16:55:27.403Z</time>
      </trkpt>
      <trkpt lat="44.20311" lon="3.15719">
        <ele>388.10793773332</ele>
        <time>2021-08-08T16:55:32.452Z</time>
      </trkpt>
      <trkpt lat="44.20324" lon="3.1573">
        <ele>387.76111609025</ele>
        <time>2021-08-08T16:55:37.506Z</time>
      </trkpt>
      <trkpt lat="44.20335" lon="3.15744">
        <ele>387.42765531727</ele>
        <time>2021-08-08T16:55:42.565Z</time>
      </trkpt>
      <trkpt lat="44.20344" lon="3.15771">
        <ele>387.10104122396</ele>
        <time>2021-08-08T16:55:47.631Z</time>
      </trkpt>
      <trkpt lat="44.20359" lon="3.15845">
        <ele>386.84317274492</ele>
        <time>2021-08-08T16:55:52.716Z</time>
      </trkpt>
      <trkpt lat="44.20364" lon="3.15878">
        <ele>386.73219012342</ele>
        <time>2021-08-08T16:55:57.809Z</time>
      </trkpt>
      <trkpt lat="44.20362" lon="3.15898">
        <ele>386.60831189615</ele>
        <time>2021-08-08T16:56:02.907Z</time>
      </trkpt>
      <trkpt lat="44.20358" lon="3.15906">
        <ele>386.48064105257</ele>
        <time>2021-08-08T16:56:08.007Z</time>
      </trkpt>
      <trkpt lat="44.20349" lon="3.15916">
        <ele>386.36735556386</ele>
        <time>2021-08-08T16:56:13.111Z</time>
      </trkpt>
      <trkpt lat="44.20277" lon="3.1595">
        <ele>386.26130085806</ele>
        <time>2021-08-08T16:56:18.240Z</time>
      </trkpt>
      <trkpt lat="44.20171" lon="3.15995">
        <ele>386.15385596018</ele>
        <time>2021-08-08T16:56:23.406Z</time>
      </trkpt>
      <trkpt lat="44.20141" lon="3.1601">
        <ele>385.96443740306</ele>
        <time>2021-08-08T16:56:28.583Z</time>
      </trkpt>
      <trkpt lat="44.2013" lon="3.16019">
        <ele>385.96480862264</ele>
        <time>2021-08-08T16:56:33.764Z</time>
      </trkpt>
      <trkpt lat="44.20115" lon="3.16043">
        <ele>385.90058539978</ele>
        <time>2021-08-08T16:56:38.953Z</time>
      </trkpt>
      <trkpt lat="44.20103" lon="3.16086">
        <ele>385.97680146758</ele>
        <time>2021-08-08T16:56:44.153Z</time>
      </trkpt>
      <trkpt lat="44.201" lon="3.16121">
        <ele>386.12417226428</ele>
        <time>2021-08-08T16:56:49.361Z</time>
      </trkpt>
      <trkpt lat="44.201" lon="3.16177">
        <ele>386.32510232319</ele>
        <time>2021-08-08T16:56:54.583Z</time>
      </trkpt>
      <trkpt lat="44.20107" lon="3.16265">
        <ele>386.18368039021</ele>
        <time>2021-08-08T16:56:59.826Z</time>
      </trkpt>
      <trkpt lat="44.20109" lon="3.16431">
        <ele>385.86067962711</ele>
        <time>2021-08-08T16:57:05.109Z</time>
      </trkpt>
      <trkpt lat="44.20113" lon="3.16496">
        <ele>386.01225919603</ele>
        <time>2021-08-08T16:57:10.407Z</time>
      </trkpt>
      <trkpt lat="44.20124" lon="3.16579">
        <ele>386.27107039851</ele>
        <time>2021-08-08T16:57:15.725Z</time>
      </trkpt>
      <trkpt lat="44.20122" lon="3.16755">
        <ele>386.26811377939</ele>
        <time>2021-08-08T16:57:21.086Z</time>
      </trkpt>
      <trkpt lat="44.2014" lon="3.16939">
        <ele>386.51562177436</ele>
        <time>2021-08-08T16:57:26.491Z</time>
      </trkpt>
      <trkpt lat="44.20143" lon="3.16961">
        <ele>386.59623457613</ele>
        <time>2021-08-08T16:57:31.902Z</time>
      </trkpt>
      <trkpt lat="44.20158" lon="3.17035">
        <ele>386.77816992162</ele>
        <time>2021-08-08T16:57:37.331Z</time>
      </trkpt>
      <trkpt lat="44.20164" lon="3.17116">
        <ele>386.81989867529</ele>
        <time>2021-08-08T16:57:42.780Z</time>
      </trkpt>
      <trkpt lat="44.20176" lon="3.17176">
        <ele>386.97421532953</ele>
        <time>2021-08-08T16:57:48.243Z</time>
      </trkpt>
      <trkpt lat="44.20181" lon="3.17212">
        <ele>387.08982496459</ele>
        <time>2021-08-08T16:57:53.715Z</time>
      </trkpt>
      <trkpt lat="44.20183" lon="3.17264">
        <ele>387.20795887658</ele>
        <time>2021-08-08T16:57:59.200Z</time>
      </trkpt>
      <trkpt lat="44.20178" lon="3.17337">
        <ele>387.46754109018</ele>
        <time>2021-08-08T16:58:04.702Z</time>
      </trkpt>
      <trkpt lat="44.20175" lon="3.17348">
        <ele>387.73349688179</ele>
        <time>2021-08-08T16:58:10.207Z</time>
      </trkpt>
      <trkpt lat="44.20169" lon="3.17361">
        <ele>388.06679982315</ele>
        <time>2021-08-08T16:58:15.716Z</time>
      </trkpt>
      <trkpt lat="44.20146" lon="3.17398">
        <ele>388.40717606442</ele>
        <time>2021-08-08T16:58:21.237Z</time>
      </trkpt>
      <trkpt lat="44.2014" lon="3.17412">
        <ele>388.66808267811</ele>
        <time>2021-08-08T16:58:26.762Z</time>
      </trkpt>
      <trkpt lat="44.20125" lon="3.17459">
        <ele>388.97435775215</ele>
        <time>2021-08-08T16:58:32.299Z</time>
      </trkpt>
      <trkpt lat="44.20109" lon="3.17524">
        <ele>389.25148022875</ele>
        <time>2021-08-08T16:58:37.852Z</time>
      </trkpt>
      <trkpt lat="44.20106" lon="3.1754">
        <ele>389.65449295375</ele>
        <time>2021-08-08T16:58:43.409Z</time>
      </trkpt>
      <trkpt lat="44.20105" lon="3.17608">
        <ele>390.15511652569</ele>
        <time>2021-08-08T16:58:48.983Z</time>
      </trkpt>
      <trkpt lat="44.20101" lon="3.17654">
        <ele>390.68381113693</ele>
        <time>2021-08-08T16:58:54.568Z</time>
      </trkpt>
      <trkpt lat="44.20089" lon="3.17734">
        <ele>391.17774725557</ele>
        <time>2021-08-08T16:59:00.172Z</time>
      </trkpt>
      <trkpt lat="44.20081" lon="3.17775">
        <ele>391.63462676298</ele>
        <time>2021-08-08T16:59:05.786Z</time>
      </trkpt>
      <trkpt lat="44.2007" lon="3.17808">
        <ele>392.14354159536</ele>
        <time>2021-08-08T16:59:11.409Z</time>
      </trkpt>
      <trkpt lat="44.20027" lon="3.17911">
        <ele>392.43348825528</ele>
        <time>2021-08-08T16:59:17.061Z</time>
      </trkpt>
      <trkpt lat="44.19995" lon="3.17996">
        <ele>393.01657336187</ele>
        <time>2021-08-08T16:59:22.736Z</time>
      </trkpt>
      <trkpt lat="44.19982" lon="3.18039">
        <ele>393.40073371998</ele>
        <time>2021-08-08T16:59:28.422Z</time>
      </trkpt>
      <trkpt lat="44.19975" lon="3.18075">
        <ele>393.7894239038</ele>
        <time>2021-08-08T16:59:34.117Z</time>
      </trkpt>
      <trkpt lat="44.19974" lon="3.18107">
        <ele>394.18700128664</ele>
        <time>2021-08-08T16:59:39.820Z</time>
      </trkpt>
      <trkpt lat="44.19979" lon="3.18222">
        <ele>394.74960633237</ele>
        <time>2021-08-08T16:59:45.550Z</time>
      </trkpt>
      <trkpt lat="44.19978" lon="3.18239">
        <ele>395.10140765156</ele>
        <time>2021-08-08T16:59:51.284Z</time>
      </trkpt>
      <trkpt lat="44.19969" lon="3.18285">
        <ele>395.40515231342</ele>
        <time>2021-08-08T16:59:57.030Z</time>
      </trkpt>
      <trkpt lat="44.19961" lon="3.18313">
        <ele>395.631242673</ele>
        <time>2021-08-08T17:00:02.783Z</time>
      </trkpt>
      <trkpt lat="44.19945" lon="3.18355">
        <ele>395.79868572691</ele>
        <time>2021-08-08T17:00:08.547Z</time>
      </trkpt>
      <trkpt lat="44.19924" lon="3.18399">
        <ele>396.05966961277</ele>
        <time>2021-08-08T17:00:14.324Z</time>
      </trkpt>
      <trkpt lat="44.19906" lon="3.18427">
        <ele>396.17361693376</ele>
        <time>2021-08-08T17:00:20.110Z</time>
      </trkpt>
      <trkpt lat="44.19884" lon="3.18454">
        <ele>396.26157242501</ele>
        <time>2021-08-08T17:00:25.906Z</time>
      </trkpt>
      <trkpt lat="44.19856" lon="3.18478">
        <ele>396.3243509956</ele>
        <time>2021-08-08T17:00:31.713Z</time>
      </trkpt>
      <trkpt lat="44.1971" lon="3.18578">
        <ele>396.05870182643</ele>
        <time>2021-08-08T17:00:37.574Z</time>
      </trkpt>
      <trkpt lat="44.19702" lon="3.18584">
        <ele>395.98883876459</ele>
        <time>2021-08-08T17:00:43.438Z</time>
      </trkpt>
      <trkpt lat="44.19682" lon="3.18604">
        <ele>395.89703450931</ele>
        <time>2021-08-08T17:00:49.310Z</time>
      </trkpt>
      <trkpt lat="44.19671" lon="3.1862">
        <ele>395.82481797948</ele>
        <time>2021-08-08T17:00:55.188Z</time>
      </trkpt>
      <trkpt lat="44.19654" lon="3.18651">
        <ele>395.73222675881</ele>
        <time>2021-08-08T17:01:01.075Z</time>
      </trkpt>
      <trkpt lat="44.19644" lon="3.18684">
        <ele>395.55903991139</ele>
        <time>2021-08-08T17:01:06.971Z</time>
      </trkpt>
      <trkpt lat="44.19639" lon="3.18725">
        <ele>395.37462775126</ele>
        <time>2021-08-08T17:01:12.876Z</time>
      </trkpt>
      <trkpt lat="44.19639" lon="3.18745">
        <ele>395.1980500827</ele>
        <time>2021-08-08T17:01:18.786Z</time>
      </trkpt>
      <trkpt lat="44.19643" lon="3.18784">
        <ele>394.9379581</ele>
        <time>2021-08-08T17:01:24.706Z</time>
      </trkpt>
      <trkpt lat="44.19654" lon="3.18818">
        <ele>394.71352654525</ele>
        <time>2021-08-08T17:01:30.635Z</time>
      </trkpt>
      <trkpt lat="44.19662" lon="3.18832">
        <ele>394.5174968658</ele>
        <time>2021-08-08T17:01:36.568Z</time>
      </trkpt>
      <trkpt lat="44.19672" lon="3.18844">
        <ele>394.32724929275</ele>
        <time>2021-08-08T17:01:42.505Z</time>
      </trkpt>
      <trkpt lat="44.19683" lon="3.18854">
        <ele>394.10751648734</ele>
        <time>2021-08-08T17:01:48.447Z</time>
      </trkpt>
      <trkpt lat="44.19696" lon="3.18862">
        <ele>393.90176211314</ele>
        <time>2021-08-08T17:01:54.393Z</time>
      </trkpt>
      <trkpt lat="44.19747" lon="3.18885">
        <ele>393.70703566743</ele>
        <time>2021-08-08T17:02:00.357Z</time>
      </trkpt>
      <trkpt lat="44.19765" lon="3.18897">
        <ele>393.49634946785</ele>
        <time>2021-08-08T17:02:06.328Z</time>
      </trkpt>
      <trkpt lat="44.19783" lon="3.18918">
        <ele>393.24165873128</ele>
        <time>2021-08-08T17:02:12.307Z</time>
      </trkpt>
      <trkpt lat="44.19811" lon="3.18967">
        <ele>393.05148111088</ele>
        <time>2021-08-08T17:02:18.301Z</time>
      </trkpt>
      <trkpt lat="44.19873" lon="3.191">
        <ele>392.86645291169</ele>
        <time>2021-08-08T17:02:24.333Z</time>
      </trkpt>
      <trkpt lat="44.19879" lon="3.19134">
        <ele>392.73493897359</ele>
        <time>2021-08-08T17:02:30.373Z</time>
      </trkpt>
      <trkpt lat="44.19879" lon="3.19168">
        <ele>392.58406186265</ele>
        <time>2021-08-08T17:02:36.421Z</time>
      </trkpt>
      <trkpt lat="44.19875" lon="3.19236">
        <ele>392.51103278786</ele>
        <time>2021-08-08T17:02:42.486Z</time>
      </trkpt>
      <trkpt lat="44.19872" lon="3.19259">
        <ele>392.44700535964</ele>
        <time>2021-08-08T17:02:48.556Z</time>
      </trkpt>
      <trkpt lat="44.19866" lon="3.19284">
        <ele>392.44355278338</ele>
        <time>2021-08-08T17:02:54.633Z</time>
      </trkpt>
      <trkpt lat="44.19842" lon="3.19355">
        <ele>392.50781014714</ele>
        <time>2021-08-08T17:03:00.729Z</time>
      </trkpt>
      <trkpt lat="44.19788" lon="3.19502">
        <ele>392.62431664823</ele>
        <time>2021-08-08T17:03:06.864Z</time>
      </trkpt>
      <trkpt lat="44.1976" lon="3.19569">
        <ele>392.7189144424</ele>
        <time>2021-08-08T17:03:13.018Z</time>
      </trkpt>
      <trkpt lat="44.19715" lon="3.19757">
        <ele>392.79005175484</ele>
        <time>2021-08-08T17:03:19.219Z</time>
      </trkpt>
      <trkpt lat="44.1971" lon="3.1977">
        <ele>392.98790227268</ele>
        <time>2021-08-08T17:03:25.424Z</time>
      </trkpt>
      <trkpt lat="44.19658" lon="3.19867">
        <ele>393.2446324767</ele>
        <time>2021-08-08T17:03:31.658Z</time>
      </trkpt>
      <trkpt lat="44.19569" lon="3.20016">
        <ele>393.26897552436</ele>
        <time>2021-08-08T17:03:37.938Z</time>
      </trkpt>
      <trkpt lat="44.1956" lon="3.20033">
        <ele>393.58337807702</ele>
        <time>2021-08-08T17:03:44.223Z</time>
      </trkpt>
      <trkpt lat="44.19548" lon="3.20068">
        <ele>393.84821930181</ele>
        <time>2021-08-08T17:03:50.518Z</time>
      </trkpt>
      <trkpt lat="44.19534" lon="3.20135">
        <ele>394.18375256675</ele>
        <time>2021-08-08T17:03:56.829Z</time>
      </trkpt>
      <trkpt lat="44.19508" lon="3.20238">
        <ele>394.63535820508</ele>
        <time>2021-08-08T17:04:03.166Z</time>
      </trkpt>
      <trkpt lat="44.19482" lon="3.20393">
        <ele>394.99582091752</ele>
        <time>2021-08-08T17:04:09.542Z</time>
      </trkpt>
      <trkpt lat="44.1945" lon="3.20479">
        <ele>395.24039681788</ele>
        <time>2021-08-08T17:04:15.941Z</time>
      </trkpt>
      <trkpt lat="44.19449" lon="3.20504">
        <ele>395.66501285392</ele>
        <time>2021-08-08T17:04:22.346Z</time>
      </trkpt>
      <trkpt lat="44.19453" lon="3.20541">
        <ele>396.16576407192</ele>
        <time>2021-08-08T17:04:28.760Z</time>
      </trkpt>
      <trkpt lat="44.1946" lon="3.20585">
        <ele>396.72065296105</ele>
        <time>2021-08-08T17:04:35.185Z</time>
      </trkpt>
      <trkpt lat="44.19459" lon="3.20622">
        <ele>397.26993886614</ele>
        <time>2021-08-08T17:04:41.619Z</time>
      </trkpt>
      <trkpt lat="44.19451" lon="3.20689">
        <ele>397.81580887462</ele>
        <time>2021-08-08T17:04:48.069Z</time>
      </trkpt>
      <trkpt lat="44.19451" lon="3.20718">
        <ele>398.39889844334</ele>
        <time>2021-08-08T17:04:54.526Z</time>
      </trkpt>
      <trkpt lat="44.19458" lon="3.20767">
        <ele>399.05596531846</ele>
        <time>2021-08-08T17:05:00.995Z</time>
      </trkpt>
      <trkpt lat="44.19433" lon="3.20797">
        <ele>399.39665970035</ele>
        <time>2021-08-08T17:05:07.475Z</time>
      </trkpt>
      <trkpt lat="44.19427" lon="3.20802">
        <ele>399.876909259</ele>
        <time>2021-08-08T17:05:13.957Z</time>
      </trkpt>
      <trkpt lat="44.19369" lon="3.20835">
        <ele>400.84715324051</ele>
        <time>2021-08-08T17:05:20.460Z</time>
      </trkpt>
      <trkpt lat="44.19342" lon="3.20848">
        <ele>401.70036303846</ele>
        <time>2021-08-08T17:05:26.972Z</time>
      </trkpt>
      <trkpt lat="44.19332" lon="3.20849">
        <ele>402.20820422089</ele>
        <time>2021-08-08T17:05:33.488Z</time>
      </trkpt>
      <trkpt lat="44.19328" lon="3.20848">
        <ele>402.54591451772</ele>
        <time>2021-08-08T17:05:40.005Z</time>
      </trkpt>
      <trkpt lat="44.19321" lon="3.20843">
        <ele>402.81217980602</ele>
        <time>2021-08-08T17:05:46.525Z</time>
      </trkpt>
      <trkpt lat="44.1931" lon="3.20818">
        <ele>402.80358217737</ele>
        <time>2021-08-08T17:05:53.052Z</time>
      </trkpt>
      <trkpt lat="44.19292" lon="3.20784">
        <ele>402.71381237489</ele>
        <time>2021-08-08T17:05:59.589Z</time>
      </trkpt>
      <trkpt lat="44.19277" lon="3.20763">
        <ele>402.66113104563</ele>
        <time>2021-08-08T17:06:06.133Z</time>
      </trkpt>
      <trkpt lat="44.19254" lon="3.20742">
        <ele>402.56350958278</ele>
        <time>2021-08-08T17:06:12.686Z</time>
      </trkpt>
      <trkpt lat="44.19237" lon="3.20719">
        <ele>402.42816702934</ele>
        <time>2021-08-08T17:06:19.247Z</time>
      </trkpt>
      <trkpt lat="44.19204" lon="3.20661">
        <ele>402.12897504334</ele>
        <time>2021-08-08T17:06:25.826Z</time>
      </trkpt>
      <trkpt lat="44.19181" lon="3.20617">
        <ele>401.79734805757</ele>
        <time>2021-08-08T17:06:32.418Z</time>
      </trkpt>
      <trkpt lat="44.19177" lon="3.20613">
        <ele>401.61071953611</ele>
        <time>2021-08-08T17:06:39.012Z</time>
      </trkpt>
      <trkpt lat="44.19166" lon="3.20609">
        <ele>401.41868518709</ele>
        <time>2021-08-08T17:06:45.609Z</time>
      </trkpt>
      <trkpt lat="44.19107" lon="3.20624">
        <ele>401.21764586492</ele>
        <time>2021-08-08T17:06:52.226Z</time>
      </trkpt>
      <trkpt lat="44.19091" lon="3.20631">
        <ele>401.08377931385</ele>
        <time>2021-08-08T17:06:58.849Z</time>
      </trkpt>
      <trkpt lat="44.19086" lon="3.20638">
        <ele>400.98742808823</ele>
        <time>2021-08-08T17:07:05.474Z</time>
      </trkpt>
      <trkpt lat="44.1908" lon="3.20652">
        <ele>400.93377719399</ele>
        <time>2021-08-08T17:07:12.103Z</time>
      </trkpt>
      <trkpt lat="44.19077" lon="3.20701">
        <ele>400.89394021417</ele>
        <time>2021-08-08T17:07:18.744Z</time>
      </trkpt>
      <trkpt lat="44.19076" lon="3.20708">
        <ele>400.92486384974</ele>
        <time>2021-08-08T17:07:25.387Z</time>
      </trkpt>
      <trkpt lat="44.19072" lon="3.20717">
        <ele>401.01022933838</ele>
        <time>2021-08-08T17:07:32.032Z</time>
      </trkpt>
      <trkpt lat="44.19069" lon="3.20739">
        <ele>401.15925781064</ele>
        <time>2021-08-08T17:07:38.683Z</time>
      </trkpt>
      <trkpt lat="44.19063" lon="3.20807">
        <ele>401.48912636768</ele>
        <time>2021-08-08T17:07:45.350Z</time>
      </trkpt>
      <trkpt lat="44.19058" lon="3.20845">
        <ele>401.8092777846</ele>
        <time>2021-08-08T17:07:52.026Z</time>
      </trkpt>
      <trkpt lat="44.19049" lon="3.20957">
        <ele>402.35119673185</ele>
        <time>2021-08-08T17:07:58.729Z</time>
      </trkpt>
      <trkpt lat="44.19021" lon="3.20953">
        <ele>402.7119759424</ele>
        <time>2021-08-08T17:08:05.442Z</time>
      </trkpt>
      <trkpt lat="44.19008" lon="3.20949">
        <ele>403.4564439604</ele>
        <time>2021-08-08T17:08:12.159Z</time>
      </trkpt>
      <trkpt lat="44.19" lon="3.2095">
        <ele>404.21117725252</ele>
        <time>2021-08-08T17:08:18.879Z</time>
      </trkpt>
      <trkpt lat="44.18997" lon="3.20953">
        <ele>404.97159219335</ele>
        <time>2021-08-08T17:08:25.600Z</time>
      </trkpt>
      <trkpt lat="44.18993" lon="3.20961">
        <ele>405.82278016119</ele>
        <time>2021-08-08T17:08:32.323Z</time>
      </trkpt>
      <trkpt lat="44.18989" lon="3.20977">
        <ele>406.73035937135</ele>
        <time>2021-08-08T17:08:39.050Z</time>
      </trkpt>
      <trkpt lat="44.18978" lon="3.21031">
        <ele>407.62450443984</ele>
        <time>2021-08-08T17:08:45.791Z</time>
      </trkpt>
      <trkpt lat="44.18964" lon="3.21055">
        <ele>408.6799395314</ele>
        <time>2021-08-08T17:08:52.539Z</time>
      </trkpt>
      <trkpt lat="44.18951" lon="3.21061">
        <ele>409.80907013164</ele>
        <time>2021-08-08T17:08:59.292Z</time>
      </trkpt>
      <trkpt lat="44.18942" lon="3.21059">
        <ele>410.96886515242</ele>
        <time>2021-08-08T17:09:06.048Z</time>
      </trkpt>
      <trkpt lat="44.18899" lon="3.2103">
        <ele>412.24147400538</ele>
        <time>2021-08-08T17:09:12.820Z</time>
      </trkpt>
      <trkpt lat="44.18871" lon="3.20993">
        <ele>413.59680796562</ele>
        <time>2021-08-08T17:09:19.605Z</time>
      </trkpt>
      <trkpt lat="44.18854" lon="3.20977">
        <ele>414.93238196062</ele>
        <time>2021-08-08T17:09:26.397Z</time>
      </trkpt>
      <trkpt lat="44.18838" lon="3.20965">
        <ele>416.30238472334</ele>
        <time>2021-08-08T17:09:33.195Z</time>
      </trkpt>
      <trkpt lat="44.18831" lon="3.20953">
        <ele>417.67030777847</ele>
        <time>2021-08-08T17:09:39.996Z</time>
      </trkpt>
      <trkpt lat="44.18839" lon="3.20949">
        <ele>418.97815926329</ele>
        <time>2021-08-08T17:09:46.800Z</time>
      </trkpt>
      <trkpt lat="44.18844" lon="3.2095">
        <ele>420.29172655974</ele>
        <time>2021-08-08T17:09:53.606Z</time>
      </trkpt>
      <trkpt lat="44.18865" lon="3.2097">
        <ele>421.49738565944</ele>
        <time>2021-08-08T17:10:00.420Z</time>
      </trkpt>
      <trkpt lat="44.18906" lon="3.21015">
        <ele>422.64400395187</ele>
        <time>2021-08-08T17:10:07.252Z</time>
      </trkpt>
      <trkpt lat="44.18918" lon="3.21023">
        <ele>423.9893712301</ele>
        <time>2021-08-08T17:10:14.088Z</time>
      </trkpt>
      <trkpt lat="44.18928" lon="3.21024">
        <ele>425.36769856516</ele>
        <time>2021-08-08T17:10:20.928Z</time>
      </trkpt>
      <trkpt lat="44.18932" lon="3.21015">
        <ele>426.78489138691</ele>
        <time>2021-08-08T17:10:27.770Z</time>
      </trkpt>
      <trkpt lat="44.18934" lon="3.2099">
        <ele>428.26931826591</ele>
        <time>2021-08-08T17:10:34.618Z</time>
      </trkpt>
      <trkpt lat="44.18925" lon="3.20931">
        <ele>429.87334206051</ele>
        <time>2021-08-08T17:10:41.481Z</time>
      </trkpt>
      <trkpt lat="44.1892" lon="3.20879">
        <ele>431.31061771212</ele>
        <time>2021-08-08T17:10:48.356Z</time>
      </trkpt>
      <trkpt lat="44.18916" lon="3.20868">
        <ele>432.63075143396</ele>
        <time>2021-08-08T17:10:55.234Z</time>
      </trkpt>
      <trkpt lat="44.18905" lon="3.20859">
        <ele>433.92608964552</ele>
        <time>2021-08-08T17:11:02.116Z</time>
      </trkpt>
      <trkpt lat="44.18896" lon="3.20844">
        <ele>435.14513105603</ele>
        <time>2021-08-08T17:11:09.003Z</time>
      </trkpt>
      <trkpt lat="44.18892" lon="3.20828">
        <ele>436.28513852424</ele>
        <time>2021-08-08T17:11:15.894Z</time>
      </trkpt>
      <trkpt lat="44.18892" lon="3.2082">
        <ele>437.2919166189</ele>
        <time>2021-08-08T17:11:22.787Z</time>
      </trkpt>
      <trkpt lat="44.18896" lon="3.20803">
        <ele>438.18095368367</ele>
        <time>2021-08-08T17:11:29.684Z</time>
      </trkpt>
      <trkpt lat="44.18912" lon="3.20764">
        <ele>439.01495833585</ele>
        <time>2021-08-08T17:11:36.592Z</time>
      </trkpt>
      <trkpt lat="44.18933" lon="3.20691">
        <ele>439.7652106375</ele>
        <time>2021-08-08T17:11:43.519Z</time>
      </trkpt>
      <trkpt lat="44.18948" lon="3.20572">
        <ele>440.88750458532</ele>
        <time>2021-08-08T17:11:50.475Z</time>
      </trkpt>
      <trkpt lat="44.18947" lon="3.20527">
        <ele>441.53009707717</ele>
        <time>2021-08-08T17:11:57.442Z</time>
      </trkpt>
      <trkpt lat="44.1895" lon="3.20473">
        <ele>441.90178195449</ele>
        <time>2021-08-08T17:12:04.422Z</time>
      </trkpt>
      <trkpt lat="44.18966" lon="3.20378">
        <ele>441.98310122442</ele>
        <time>2021-08-08T17:12:11.425Z</time>
      </trkpt>
      <trkpt lat="44.18979" lon="3.20313">
        <ele>441.65050008991</ele>
        <time>2021-08-08T17:12:18.444Z</time>
      </trkpt>
      <trkpt lat="44.18999" lon="3.20257">
        <ele>441.16283997902</ele>
        <time>2021-08-08T17:12:25.478Z</time>
      </trkpt>
      <trkpt lat="44.1901" lon="3.20238">
        <ele>440.1908748993</ele>
        <time>2021-08-08T17:12:32.518Z</time>
      </trkpt>
      <trkpt lat="44.19023" lon="3.20223">
        <ele>438.99015298357</ele>
        <time>2021-08-08T17:12:39.564Z</time>
      </trkpt>
      <trkpt lat="44.19047" lon="3.20209">
        <ele>437.26305819285</ele>
        <time>2021-08-08T17:12:46.619Z</time>
      </trkpt>
      <trkpt lat="44.19079" lon="3.20196">
        <ele>434.71431747786</ele>
        <time>2021-08-08T17:12:53.685Z</time>
      </trkpt>
      <trkpt lat="44.19153" lon="3.20171">
        <ele>431.61423613969</ele>
        <time>2021-08-08T17:13:00.776Z</time>
      </trkpt>
      <trkpt lat="44.19166" lon="3.20163">
        <ele>429.98116248369</ele>
        <time>2021-08-08T17:13:07.872Z</time>
      </trkpt>
      <trkpt lat="44.19204" lon="3.20125">
        <ele>428.14258748849</ele>
        <time>2021-08-08T17:13:14.983Z</time>
      </trkpt>
      <trkpt lat="44.19279" lon="3.20042">
        <ele>426.33634894265</ele>
        <time>2021-08-08T17:13:22.126Z</time>
      </trkpt>
      <trkpt lat="44.19289" lon="3.20027">
        <ele>424.81218964266</ele>
        <time>2021-08-08T17:13:29.274Z</time>
      </trkpt>
      <trkpt lat="44.19301" lon="3.20003">
        <ele>423.27761304816</ele>
        <time>2021-08-08T17:13:36.429Z</time>
      </trkpt>
      <trkpt lat="44.19398" lon="3.19739">
        <ele>421.71226831149</ele>
        <time>2021-08-08T17:13:43.655Z</time>
      </trkpt>
      <trkpt lat="44.19437" lon="3.1966">
        <ele>420.18021381507</ele>
        <time>2021-08-08T17:13:50.904Z</time>
      </trkpt>
      <trkpt lat="44.19446" lon="3.19632">
        <ele>418.97350463956</ele>
        <time>2021-08-08T17:13:58.161Z</time>
      </trkpt>
      <trkpt lat="44.19457" lon="3.19587">
        <ele>417.99849377196</ele>
        <time>2021-08-08T17:14:05.429Z</time>
      </trkpt>
      <trkpt lat="44.19476" lon="3.19457">
        <ele>417.22492017256</ele>
        <time>2021-08-08T17:14:12.729Z</time>
      </trkpt>
      <trkpt lat="44.19481" lon="3.19413">
        <ele>416.48980638071</ele>
        <time>2021-08-08T17:14:20.040Z</time>
      </trkpt>
      <trkpt lat="44.19481" lon="3.19382">
        <ele>415.99400055469</ele>
        <time>2021-08-08T17:14:27.358Z</time>
      </trkpt>
      <trkpt lat="44.19456" lon="3.1923">
        <ele>415.75579503339</ele>
        <time>2021-08-08T17:14:34.713Z</time>
      </trkpt>
      <trkpt lat="44.19446" lon="3.19152">
        <ele>415.37805526974</ele>
        <time>2021-08-08T17:14:42.087Z</time>
      </trkpt>
      <trkpt lat="44.19435" lon="3.19042">
        <ele>415.33315217381</ele>
        <time>2021-08-08T17:14:49.488Z</time>
      </trkpt>
      <trkpt lat="44.19417" lon="3.18917">
        <ele>415.88542354851</ele>
        <time>2021-08-08T17:14:56.920Z</time>
      </trkpt>
      <trkpt lat="44.19405" lon="3.18816">
        <ele>416.36267331844</ele>
        <time>2021-08-08T17:15:04.376Z</time>
      </trkpt>
      <trkpt lat="44.19408" lon="3.18762">
        <ele>416.27155416267</ele>
        <time>2021-08-08T17:15:11.845Z</time>
      </trkpt>
      <trkpt lat="44.19437" lon="3.18669">
        <ele>415.83807669163</ele>
        <time>2021-08-08T17:15:19.338Z</time>
      </trkpt>
      <trkpt lat="44.1945" lon="3.18603">
        <ele>415.53765685303</ele>
        <time>2021-08-08T17:15:26.848Z</time>
      </trkpt>
      <trkpt lat="44.19453" lon="3.18531">
        <ele>415.61493774992</ele>
        <time>2021-08-08T17:15:34.375Z</time>
      </trkpt>
      <trkpt lat="44.19454" lon="3.18458">
        <ele>416.02117049565</ele>
        <time>2021-08-08T17:15:41.920Z</time>
      </trkpt>
      <trkpt lat="44.19471" lon="3.18386">
        <ele>416.35408321394</ele>
        <time>2021-08-08T17:15:49.483Z</time>
      </trkpt>
      <trkpt lat="44.19496" lon="3.1833">
        <ele>416.16639205846</ele>
        <time>2021-08-08T17:15:57.062Z</time>
      </trkpt>
      <trkpt lat="44.19561" lon="3.18195">
        <ele>415.83076764904</ele>
        <time>2021-08-08T17:16:04.680Z</time>
      </trkpt>
      <trkpt lat="44.19619" lon="3.1808">
        <ele>415.37489652972</ele>
        <time>2021-08-08T17:16:12.331Z</time>
      </trkpt>
      <trkpt lat="44.19669" lon="3.17967">
        <ele>415.7183651889</ele>
        <time>2021-08-08T17:16:20.014Z</time>
      </trkpt>
      <trkpt lat="44.19714" lon="3.17911">
        <ele>414.99593746049</ele>
        <time>2021-08-08T17:16:27.717Z</time>
      </trkpt>
      <trkpt lat="44.19762" lon="3.17846">
        <ele>414.97418686072</ele>
        <time>2021-08-08T17:16:35.443Z</time>
      </trkpt>
      <trkpt lat="44.19846" lon="3.17675">
        <ele>415.5559193763</ele>
        <time>2021-08-08T17:16:43.218Z</time>
      </trkpt>
      <trkpt lat="44.19888" lon="3.17597">
        <ele>415.31641269321</ele>
        <time>2021-08-08T17:16:51.017Z</time>
      </trkpt>
      <trkpt lat="44.1993" lon="3.175">
        <ele>414.77432690437</ele>
        <time>2021-08-08T17:16:58.843Z</time>
      </trkpt>
      <trkpt lat="44.19946" lon="3.17449">
        <ele>414.47217959193</ele>
        <time>2021-08-08T17:17:06.682Z</time>
      </trkpt>
      <trkpt lat="44.19953" lon="3.1741">
        <ele>414.3071165229</ele>
        <time>2021-08-08T17:17:14.531Z</time>
      </trkpt>
      <trkpt lat="44.19956" lon="3.17362">
        <ele>414.14546314805</ele>
        <time>2021-08-08T17:17:22.391Z</time>
      </trkpt>
      <trkpt lat="44.19955" lon="3.173">
        <ele>414.06425781798</ele>
        <time>2021-08-08T17:17:30.266Z</time>
      </trkpt>
      <trkpt lat="44.19957" lon="3.17253">
        <ele>413.77256378288</ele>
        <time>2021-08-08T17:17:38.152Z</time>
      </trkpt>
      <trkpt lat="44.19963" lon="3.17192">
        <ele>413.28372375678</ele>
        <time>2021-08-08T17:17:46.053Z</time>
      </trkpt>
      <trkpt lat="44.19996" lon="3.17035">
        <ele>411.8080645832</ele>
        <time>2021-08-08T17:17:53.993Z</time>
      </trkpt>
      <trkpt lat="44.20009" lon="3.16981">
        <ele>411.08890473956</ele>
        <time>2021-08-08T17:18:01.947Z</time>
      </trkpt>
      <trkpt lat="44.20015" lon="3.16944">
        <ele>410.70788067907</ele>
        <time>2021-08-08T17:18:09.910Z</time>
      </trkpt>
      <trkpt lat="44.2002" lon="3.16898">
        <ele>410.26691253137</ele>
        <time>2021-08-08T17:18:17.884Z</time>
      </trkpt>
      <trkpt lat="44.20018" lon="3.16841">
        <ele>409.79949201998</ele>
        <time>2021-08-08T17:18:25.872Z</time>
      </trkpt>
      <trkpt lat="44.19957" lon="3.16398">
        <ele>409.9401846414</ele>
        <time>2021-08-08T17:18:33.968Z</time>
      </trkpt>
      <trkpt lat="44.19932" lon="3.16237">
        <ele>409.5417523956</ele>
        <time>2021-08-08T17:18:42.104Z</time>
      </trkpt>
      <trkpt lat="44.19926" lon="3.16203">
        <ele>409.06343811063</ele>
        <time>2021-08-08T17:18:50.248Z</time>
      </trkpt>
      <trkpt lat="44.19878" lon="3.16002">
        <ele>408.19787386725</ele>
        <time>2021-08-08T17:18:58.443Z</time>
      </trkpt>
      <trkpt lat="44.19863" lon="3.15954">
        <ele>407.6352315286</ele>
        <time>2021-08-08T17:19:06.650Z</time>
      </trkpt>
      <trkpt lat="44.19849" lon="3.15925">
        <ele>407.43708818683</ele>
        <time>2021-08-08T17:19:14.866Z</time>
      </trkpt>
      <trkpt lat="44.19818" lon="3.15878">
        <ele>407.29225192826</ele>
        <time>2021-08-08T17:19:23.097Z</time>
      </trkpt>
      <trkpt lat="44.19764" lon="3.15805">
        <ele>406.86869028971</ele>
        <time>2021-08-08T17:19:31.353Z</time>
      </trkpt>
      <trkpt lat="44.19754" lon="3.15794">
        <ele>406.40986179933</ele>
        <time>2021-08-08T17:19:39.613Z</time>
      </trkpt>
      <trkpt lat="44.19726" lon="3.1577">
        <ele>405.90031353103</ele>
        <time>2021-08-08T17:19:47.884Z</time>
      </trkpt>
      <trkpt lat="44.197" lon="3.15756">
        <ele>405.67934823648</ele>
        <time>2021-08-08T17:19:56.165Z</time>
      </trkpt>
      <trkpt lat="44.19681" lon="3.1575">
        <ele>405.47153641719</ele>
        <time>2021-08-08T17:20:04.452Z</time>
      </trkpt>
      <trkpt lat="44.19668" lon="3.15748">
        <ele>405.3016926054</ele>
        <time>2021-08-08T17:20:12.744Z</time>
      </trkpt>
      <trkpt lat="44.19657" lon="3.15747">
        <ele>405.19667405728</ele>
        <time>2021-08-08T17:20:21.039Z</time>
      </trkpt>
      <trkpt lat="44.19642" lon="3.1575">
        <ele>405.20336948905</ele>
        <time>2021-08-08T17:20:29.339Z</time>
      </trkpt>
      <trkpt lat="44.19628" lon="3.15755">
        <ele>405.29228123094</ele>
        <time>2021-08-08T17:20:37.644Z</time>
      </trkpt>
      <trkpt lat="44.19571" lon="3.15783">
        <ele>405.63909869344</ele>
        <time>2021-08-08T17:20:45.969Z</time>
      </trkpt>
      <trkpt lat="44.19557" lon="3.15785">
        <ele>405.70640713687</ele>
        <time>2021-08-08T17:20:54.299Z</time>
      </trkpt>
      <trkpt lat="44.19528" lon="3.15785">
        <ele>405.68410765583</ele>
        <time>2021-08-08T17:21:02.639Z</time>
      </trkpt>
      <trkpt lat="44.19518" lon="3.15787">
        <ele>405.8926089887</ele>
        <time>2021-08-08T17:21:10.982Z</time>
      </trkpt>
      <trkpt lat="44.19499" lon="3.15794">
        <ele>406.20572937262</ele>
        <time>2021-08-08T17:21:19.332Z</time>
      </trkpt>
      <trkpt lat="44.19391" lon="3.15867">
        <ele>406.75012487478</ele>
        <time>2021-08-08T17:21:27.722Z</time>
      </trkpt>
      <trkpt lat="44.1935" lon="3.15889">
        <ele>407.1327670203</ele>
        <time>2021-08-08T17:21:36.126Z</time>
      </trkpt>
      <trkpt lat="44.1928" lon="3.15916">
        <ele>407.27008071982</ele>
        <time>2021-08-08T17:21:44.554Z</time>
      </trkpt>
      <trkpt lat="44.19238" lon="3.15929">
        <ele>407.82625842891</ele>
        <time>2021-08-08T17:21:52.997Z</time>
      </trkpt>
      <trkpt lat="44.19212" lon="3.15935">
        <ele>408.48282016396</ele>
        <time>2021-08-08T17:22:01.449Z</time>
      </trkpt>
      <trkpt lat="44.19158" lon="3.1594">
        <ele>409.05952054164</ele>
        <time>2021-08-08T17:22:09.919Z</time>
      </trkpt>
      <trkpt lat="44.19139" lon="3.15939">
        <ele>409.71705796794</ele>
        <time>2021-08-08T17:22:18.395Z</time>
      </trkpt>
      <trkpt lat="44.19097" lon="3.15931">
        <ele>410.29623536968</ele>
        <time>2021-08-08T17:22:26.885Z</time>
      </trkpt>
      <trkpt lat="44.1901" lon="3.15895">
        <ele>411.06087742773</ele>
        <time>2021-08-08T17:22:35.405Z</time>
      </trkpt>
      <trkpt lat="44.18985" lon="3.15883">
        <ele>411.9761634389</ele>
        <time>2021-08-08T17:22:43.934Z</time>
      </trkpt>
      <trkpt lat="44.18953" lon="3.15865">
        <ele>413.08655319015</ele>
        <time>2021-08-08T17:22:52.475Z</time>
      </trkpt>
      <trkpt lat="44.18918" lon="3.1584">
        <ele>414.02150143195</ele>
        <time>2021-08-08T17:23:01.029Z</time>
      </trkpt>
      <trkpt lat="44.18864" lon="3.15806">
        <ele>415.28919037656</ele>
        <time>2021-08-08T17:23:09.603Z</time>
      </trkpt>
      <trkpt lat="44.18856" lon="3.158">
        <ele>416.32075907336</ele>
        <time>2021-08-08T17:23:18.180Z</time>
      </trkpt>
      <trkpt lat="44.18849" lon="3.15792">
        <ele>417.29208777161</ele>
        <time>2021-08-08T17:23:26.760Z</time>
      </trkpt>
      <trkpt lat="44.18828" lon="3.15759">
        <ele>418.29972203196</ele>
        <time>2021-08-08T17:23:35.350Z</time>
      </trkpt>
      <trkpt lat="44.18809" lon="3.15723">
        <ele>419.22529980439</ele>
        <time>2021-08-08T17:23:43.951Z</time>
      </trkpt>
      <trkpt lat="44.1879" lon="3.15681">
        <ele>420.00800951576</ele>
        <time>2021-08-08T17:23:52.564Z</time>
      </trkpt>
      <trkpt lat="44.18776" lon="3.15647">
        <ele>420.5988540761</ele>
        <time>2021-08-08T17:24:01.186Z</time>
      </trkpt>
      <trkpt lat="44.18768" lon="3.15623">
        <ele>421.03597757941</ele>
        <time>2021-08-08T17:24:09.815Z</time>
      </trkpt>
      <trkpt lat="44.18741" lon="3.15496">
        <ele>421.60408550513</ele>
        <time>2021-08-08T17:24:18.475Z</time>
      </trkpt>
      <trkpt lat="44.18725" lon="3.15388">
        <ele>421.71798211889</ele>
        <time>2021-08-08T17:24:27.162Z</time>
      </trkpt>
      <trkpt lat="44.18719" lon="3.15329">
        <ele>421.6245257019</ele>
        <time>2021-08-08T17:24:35.863Z</time>
      </trkpt>
      <trkpt lat="44.18715" lon="3.15262">
        <ele>421.36409300757</ele>
        <time>2021-08-08T17:24:44.580Z</time>
      </trkpt>
      <trkpt lat="44.18715" lon="3.15217">
        <ele>420.89477678745</ele>
        <time>2021-08-08T17:24:53.308Z</time>
      </trkpt>
      <trkpt lat="44.18718" lon="3.15199">
        <ele>420.11315678815</ele>
        <time>2021-08-08T17:25:02.040Z</time>
      </trkpt>
      <trkpt lat="44.18727" lon="3.15178">
        <ele>419.07074450288</ele>
        <time>2021-08-08T17:25:10.778Z</time>
      </trkpt>
      <trkpt lat="44.18767" lon="3.15138">
        <ele>416.82514548305</ele>
        <time>2021-08-08T17:25:19.533Z</time>
      </trkpt>
      <trkpt lat="44.18776" lon="3.15126">
        <ele>415.4546428295</ele>
        <time>2021-08-08T17:25:28.292Z</time>
      </trkpt>
      <trkpt lat="44.18795" lon="3.15088">
        <ele>414.07280008127</ele>
        <time>2021-08-08T17:25:37.062Z</time>
      </trkpt>
      <trkpt lat="44.18825" lon="3.14991">
        <ele>412.6136732768</ele>
        <time>2021-08-08T17:25:45.857Z</time>
      </trkpt>
      <trkpt lat="44.18876" lon="3.14841">
        <ele>411.07817692745</ele>
        <time>2021-08-08T17:25:54.692Z</time>
      </trkpt>
      <trkpt lat="44.1889" lon="3.14791">
        <ele>409.90415872819</ele>
        <time>2021-08-08T17:26:03.540Z</time>
      </trkpt>
      <trkpt lat="44.18893" lon="3.14741">
        <ele>408.69462784137</ele>
        <time>2021-08-08T17:26:12.400Z</time>
      </trkpt>
      <trkpt lat="44.18889" lon="3.14648">
        <ele>407.58054280384</ele>
        <time>2021-08-08T17:26:21.282Z</time>
      </trkpt>
      <trkpt lat="44.18909" lon="3.14493">
        <ele>406.23352408114</ele>
        <time>2021-08-08T17:26:30.202Z</time>
      </trkpt>
      <trkpt lat="44.18908" lon="3.14447">
        <ele>404.9955855476</ele>
        <time>2021-08-08T17:26:39.133Z</time>
      </trkpt>
      <trkpt lat="44.189" lon="3.1439">
        <ele>403.68526547828</ele>
        <time>2021-08-08T17:26:48.078Z</time>
      </trkpt>
      <trkpt lat="44.18848" lon="3.14196">
        <ele>402.76023457515</ele>
        <time>2021-08-08T17:26:57.073Z</time>
      </trkpt>
      <trkpt lat="44.18821" lon="3.14115">
        <ele>401.76690836057</ele>
        <time>2021-08-08T17:27:06.089Z</time>
      </trkpt>
      <trkpt lat="44.18801" lon="3.14066">
        <ele>400.86721430326</ele>
        <time>2021-08-08T17:27:15.119Z</time>
      </trkpt>
      <trkpt lat="44.18788" lon="3.14025">
        <ele>400.01237065922</ele>
        <time>2021-08-08T17:27:24.159Z</time>
      </trkpt>
      <trkpt lat="44.18764" lon="3.13963">
        <ele>399.08945114576</ele>
        <time>2021-08-08T17:27:33.216Z</time>
      </trkpt>
      <trkpt lat="44.18729" lon="3.13815">
        <ele>398.05833626082</ele>
        <time>2021-08-08T17:27:42.311Z</time>
      </trkpt>
      <trkpt lat="44.18713" lon="3.13739">
        <ele>397.19598220237</ele>
        <time>2021-08-08T17:27:51.425Z</time>
      </trkpt>
      <trkpt lat="44.18702" lon="3.13697">
        <ele>396.43189916201</ele>
        <time>2021-08-08T17:28:00.549Z</time>
      </trkpt>
      <trkpt lat="44.18682" lon="3.13646">
        <ele>395.86944914046</ele>
        <time>2021-08-08T17:28:09.687Z</time>
      </trkpt>
      <trkpt lat="44.18655" lon="3.13566">
        <ele>395.35483333948</ele>
        <time>2021-08-08T17:28:18.846Z</time>
      </trkpt>
      <trkpt lat="44.18637" lon="3.13521">
        <ele>394.94010884848</ele>
        <time>2021-08-08T17:28:28.018Z</time>
      </trkpt>
      <trkpt lat="44.18614" lon="3.13478">
        <ele>394.5646780227</ele>
        <time>2021-08-08T17:28:37.203Z</time>
      </trkpt>
      <trkpt lat="44.18589" lon="3.1344">
        <ele>394.21193367602</ele>
        <time>2021-08-08T17:28:46.400Z</time>
      </trkpt>
      <trkpt lat="44.18573" lon="3.13423">
        <ele>394.06021780825</ele>
        <time>2021-08-08T17:28:55.604Z</time>
      </trkpt>
      <trkpt lat="44.18545" lon="3.13401">
        <ele>394.060724784</ele>
        <time>2021-08-08T17:29:04.818Z</time>
      </trkpt>
      <trkpt lat="44.1845" lon="3.13334">
        <ele>394.11692218235</ele>
        <time>2021-08-08T17:29:14.068Z</time>
      </trkpt>
      <trkpt lat="44.18428" lon="3.13321">
        <ele>394.24811315877</ele>
        <time>2021-08-08T17:29:23.326Z</time>
      </trkpt>
      <trkpt lat="44.18405" lon="3.1331">
        <ele>394.47351499662</ele>
        <time>2021-08-08T17:29:32.592Z</time>
      </trkpt>
      <trkpt lat="44.18364" lon="3.13296">
        <ele>394.80176356779</ele>
        <time>2021-08-08T17:29:41.872Z</time>
      </trkpt>
      <trkpt lat="44.18313" lon="3.13299">
        <ele>395.37543328962</ele>
        <time>2021-08-08T17:29:51.169Z</time>
      </trkpt>
      <trkpt lat="44.18298" lon="3.13297">
        <ele>395.86614093211</ele>
        <time>2021-08-08T17:30:00.471Z</time>
      </trkpt>
      <trkpt lat="44.1828" lon="3.13291">
        <ele>396.39620560717</ele>
        <time>2021-08-08T17:30:09.779Z</time>
      </trkpt>
      <trkpt lat="44.18243" lon="3.13274">
        <ele>396.95209835614</ele>
        <time>2021-08-08T17:30:19.100Z</time>
      </trkpt>
      <trkpt lat="44.18224" lon="3.13268">
        <ele>397.58990183766</ele>
        <time>2021-08-08T17:30:28.428Z</time>
      </trkpt>
      <trkpt lat="44.18216" lon="3.13268">
        <ele>398.28371198537</ele>
        <time>2021-08-08T17:30:37.758Z</time>
      </trkpt>
      <trkpt lat="44.18196" lon="3.13277">
        <ele>399.10249202412</ele>
        <time>2021-08-08T17:30:47.095Z</time>
      </trkpt>
      <trkpt lat="44.18182" lon="3.13276">
        <ele>399.96005160845</ele>
        <time>2021-08-08T17:30:56.437Z</time>
      </trkpt>
      <trkpt lat="44.18176" lon="3.13273">
        <ele>400.74637469848</ele>
        <time>2021-08-08T17:31:05.781Z</time>
      </trkpt>
      <trkpt lat="44.18161" lon="3.13256">
        <ele>401.55126920311</ele>
        <time>2021-08-08T17:31:15.132Z</time>
      </trkpt>
      <trkpt lat="44.1812" lon="3.13202">
        <ele>402.50114058168</ele>
        <time>2021-08-08T17:31:24.502Z</time>
      </trkpt>
      <trkpt lat="44.18082" lon="3.13157">
        <ele>403.17482146473</ele>
        <time>2021-08-08T17:31:33.888Z</time>
      </trkpt>
      <trkpt lat="44.18068" lon="3.13144">
        <ele>403.85392290404</ele>
        <time>2021-08-08T17:31:43.280Z</time>
      </trkpt>
      <trkpt lat="44.18002" lon="3.13102">
        <ele>404.52551780495</ele>
        <time>2021-08-08T17:31:52.696Z</time>
      </trkpt>
      <trkpt lat="44.17924" lon="3.13048">
        <ele>405.26559035284</ele>
        <time>2021-08-08T17:32:02.141Z</time>
      </trkpt>
      <trkpt lat="44.17905" lon="3.13037">
        <ele>405.88160074614</ele>
        <time>2021-08-08T17:32:11.593Z</time>
      </trkpt>
      <trkpt lat="44.17896" lon="3.13037">
        <ele>406.52766911537</ele>
        <time>2021-08-08T17:32:21.048Z</time>
      </trkpt>
      <trkpt lat="44.17883" lon="3.13054">
        <ele>407.19183599115</ele>
        <time>2021-08-08T17:32:30.509Z</time>
      </trkpt>
      <trkpt lat="44.17877" lon="3.13072">
        <ele>407.83318246458</ele>
        <time>2021-08-08T17:32:39.975Z</time>
      </trkpt>
      <trkpt lat="44.17876" lon="3.13097">
        <ele>408.47811968545</ele>
        <time>2021-08-08T17:32:49.447Z</time>
      </trkpt>
      <trkpt lat="44.17874" lon="3.13108">
        <ele>409.05162618336</ele>
        <time>2021-08-08T17:32:58.921Z</time>
      </trkpt>
      <trkpt lat="44.17872" lon="3.13111">
        <ele>409.55010571633</ele>
        <time>2021-08-08T17:33:08.396Z</time>
      </trkpt>
      <trkpt lat="44.17868" lon="3.13113">
        <ele>410.00243009371</ele>
        <time>2021-08-08T17:33:17.873Z</time>
      </trkpt>
      <trkpt lat="44.1786" lon="3.13112">
        <ele>410.40566737922</ele>
        <time>2021-08-08T17:33:27.352Z</time>
      </trkpt>
      <trkpt lat="44.17781" lon="3.1308">
        <ele>411.00775292475</ele>
        <time>2021-08-08T17:33:36.859Z</time>
      </trkpt>
      <trkpt lat="44.1777" lon="3.13077">
        <ele>411.35019060976</ele>
        <time>2021-08-08T17:33:46.370Z</time>
      </trkpt>
      <trkpt lat="44.1775" lon="3.13074">
        <ele>411.64055892777</ele>
        <time>2021-08-08T17:33:55.887Z</time>
      </trkpt>
      <trkpt lat="44.17728" lon="3.13073">
        <ele>411.90360652619</ele>
        <time>2021-08-08T17:34:05.412Z</time>
      </trkpt>
      <trkpt lat="44.17655" lon="3.13072">
        <ele>412.20792082853</ele>
        <time>2021-08-08T17:34:14.961Z</time>
      </trkpt>
      <trkpt lat="44.17628" lon="3.13065">
        <ele>412.41515272649</ele>
        <time>2021-08-08T17:34:24.519Z</time>
      </trkpt>
      <trkpt lat="44.17604" lon="3.13046">
        <ele>412.56669914627</ele>
        <time>2021-08-08T17:34:34.086Z</time>
      </trkpt>
      <trkpt lat="44.17548" lon="3.12986">
        <ele>412.62434435528</ele>
        <time>2021-08-08T17:34:43.677Z</time>
      </trkpt>
      <trkpt lat="44.17522" lon="3.12969">
        <ele>412.68003294556</ele>
        <time>2021-08-08T17:34:53.277Z</time>
      </trkpt>
      <trkpt lat="44.17499" lon="3.12961">
        <ele>412.65370134892</ele>
        <time>2021-08-08T17:35:02.885Z</time>
      </trkpt>
      <trkpt lat="44.17487" lon="3.12958">
        <ele>412.69350768383</ele>
        <time>2021-08-08T17:35:12.497Z</time>
      </trkpt>
      <trkpt lat="44.17431" lon="3.12958">
        <ele>412.86564433731</ele>
        <time>2021-08-08T17:35:22.128Z</time>
      </trkpt>
      <trkpt lat="44.17398" lon="3.12956">
        <ele>413.01686419095</ele>
        <time>2021-08-08T17:35:31.770Z</time>
      </trkpt>
      <trkpt lat="44.1734" lon="3.12939">
        <ele>413.02195383472</ele>
        <time>2021-08-08T17:35:41.432Z</time>
      </trkpt>
      <trkpt lat="44.17327" lon="3.12938">
        <ele>413.12424096569</ele>
        <time>2021-08-08T17:35:51.098Z</time>
      </trkpt>
      <trkpt lat="44.17305" lon="3.12941">
        <ele>413.30521181987</ele>
        <time>2021-08-08T17:36:00.772Z</time>
      </trkpt>
      <trkpt lat="44.1728" lon="3.12949">
        <ele>413.49904204184</ele>
        <time>2021-08-08T17:36:10.454Z</time>
      </trkpt>
      <trkpt lat="44.17272" lon="3.1295">
        <ele>413.64738204673</ele>
        <time>2021-08-08T17:36:20.139Z</time>
      </trkpt>
      <trkpt lat="44.17255" lon="3.12948">
        <ele>413.81675082234</ele>
        <time>2021-08-08T17:36:29.830Z</time>
      </trkpt>
      <trkpt lat="44.17245" lon="3.12945">
        <ele>413.9453673027</ele>
        <time>2021-08-08T17:36:39.524Z</time>
      </trkpt>
      <trkpt lat="44.17153" lon="3.12904">
        <ele>414.0656382107</ele>
        <time>2021-08-08T17:36:49.250Z</time>
      </trkpt>
      <trkpt lat="44.17078" lon="3.12863">
        <ele>414.21724713757</ele>
        <time>2021-08-08T17:36:59.003Z</time>
      </trkpt>
      <trkpt lat="44.16968" lon="3.12787">
        <ele>414.28151973128</ele>
        <time>2021-08-08T17:37:08.797Z</time>
      </trkpt>
      <trkpt lat="44.16918" lon="3.12758">
        <ele>414.47192778914</ele>
        <time>2021-08-08T17:37:18.609Z</time>
      </trkpt>
      <trkpt lat="44.16907" lon="3.1275">
        <ele>414.58439843322</ele>
        <time>2021-08-08T17:37:28.425Z</time>
      </trkpt>
      <trkpt lat="44.16899" lon="3.12743">
        <ele>414.67343002012</ele>
        <time>2021-08-08T17:37:38.244Z</time>
      </trkpt>
      <trkpt lat="44.16867" lon="3.12707">
        <ele>414.63676424729</ele>
        <time>2021-08-08T17:37:48.077Z</time>
      </trkpt>
      <trkpt lat="44.1684" lon="3.12685">
        <ele>414.75487263821</ele>
        <time>2021-08-08T17:37:57.920Z</time>
      </trkpt>
      <trkpt lat="44.1681" lon="3.12666">
        <ele>414.94796589058</ele>
        <time>2021-08-08T17:38:07.774Z</time>
      </trkpt>
      <trkpt lat="44.16793" lon="3.12652">
        <ele>415.03605932847</ele>
        <time>2021-08-08T17:38:17.635Z</time>
      </trkpt>
      <trkpt lat="44.16769" lon="3.12625">
        <ele>415.01758296007</ele>
        <time>2021-08-08T17:38:27.506Z</time>
      </trkpt>
      <trkpt lat="44.16748" lon="3.12595">
        <ele>414.87435973006</ele>
        <time>2021-08-08T17:38:37.387Z</time>
      </trkpt>
      <trkpt lat="44.16736" lon="3.12581">
        <ele>414.85293961362</ele>
        <time>2021-08-08T17:38:47.274Z</time>
      </trkpt>
      <trkpt lat="44.16716" lon="3.12565">
        <ele>414.86301836714</ele>
        <time>2021-08-08T17:38:57.168Z</time>
      </trkpt>
      <trkpt lat="44.16693" lon="3.12543">
        <ele>414.83127400957</ele>
        <time>2021-08-08T17:39:07.072Z</time>
      </trkpt>
      <trkpt lat="44.1666" lon="3.12498">
        <ele>414.72494529685</ele>
        <time>2021-08-08T17:39:16.991Z</time>
      </trkpt>
      <trkpt lat="44.16624" lon="3.12467">
        <ele>414.69873491035</ele>
        <time>2021-08-08T17:39:26.924Z</time>
      </trkpt>
      <trkpt lat="44.16618" lon="3.12458">
        <ele>414.52193326015</ele>
        <time>2021-08-08T17:39:36.860Z</time>
      </trkpt>
      <trkpt lat="44.166" lon="3.12418">
        <ele>414.20057900162</ele>
        <time>2021-08-08T17:39:46.807Z</time>
      </trkpt>
      <trkpt lat="44.1659" lon="3.12379">
        <ele>413.89655522601</ele>
        <time>2021-08-08T17:39:56.764Z</time>
      </trkpt>
      <trkpt lat="44.16578" lon="3.1235">
        <ele>413.60570715205</ele>
        <time>2021-08-08T17:40:06.729Z</time>
      </trkpt>
      <trkpt lat="44.16532" lon="3.12254">
        <ele>413.49019201128</ele>
        <time>2021-08-08T17:40:16.722Z</time>
      </trkpt>
      <trkpt lat="44.16521" lon="3.12224">
        <ele>413.25430749668</ele>
        <time>2021-08-08T17:40:26.723Z</time>
      </trkpt>
      <trkpt lat="44.16518" lon="3.12208">
        <ele>412.89173476691</ele>
        <time>2021-08-08T17:40:36.728Z</time>
      </trkpt>
      <trkpt lat="44.16515" lon="3.12157">
        <ele>412.39784483121</ele>
        <time>2021-08-08T17:40:46.745Z</time>
      </trkpt>
      <trkpt lat="44.16515" lon="3.12115">
        <ele>411.8696961777</ele>
        <time>2021-08-08T17:40:56.772Z</time>
      </trkpt>
      <trkpt lat="44.16518" lon="3.12094">
        <ele>411.30280699318</ele>
        <time>2021-08-08T17:41:06.805Z</time>
      </trkpt>
      <trkpt lat="44.1652" lon="3.12061">
        <ele>410.6024115256</ele>
        <time>2021-08-08T17:41:16.846Z</time>
      </trkpt>
      <trkpt lat="44.16513" lon="3.12042">
        <ele>409.42667686085</ele>
        <time>2021-08-08T17:41:26.892Z</time>
      </trkpt>
      <trkpt lat="44.16492" lon="3.12012">
        <ele>408.81147506095</ele>
        <time>2021-08-08T17:41:36.948Z</time>
      </trkpt>
      <trkpt lat="44.16418" lon="3.11952">
        <ele>408.16630856562</ele>
        <time>2021-08-08T17:41:47.032Z</time>
      </trkpt>
      <trkpt lat="44.16386" lon="3.1192">
        <ele>407.59176006008</ele>
        <time>2021-08-08T17:41:57.129Z</time>
      </trkpt>
      <trkpt lat="44.16359" lon="3.11883">
        <ele>406.97053529037</ele>
        <time>2021-08-08T17:42:07.239Z</time>
      </trkpt>
      <trkpt lat="44.16297" lon="3.11774">
        <ele>406.09718130318</ele>
        <time>2021-08-08T17:42:17.382Z</time>
      </trkpt>
      <trkpt lat="44.16288" lon="3.11764">
        <ele>405.54738935401</ele>
        <time>2021-08-08T17:42:27.529Z</time>
      </trkpt>
      <trkpt lat="44.16249" lon="3.11732">
        <ele>404.82969077331</ele>
        <time>2021-08-08T17:42:37.691Z</time>
      </trkpt>
      <trkpt lat="44.16232" lon="3.11719">
        <ele>404.265559745</ele>
        <time>2021-08-08T17:42:47.860Z</time>
      </trkpt>
      <trkpt lat="44.16213" lon="3.11709">
        <ele>403.78720970535</ele>
        <time>2021-08-08T17:42:58.036Z</time>
      </trkpt>
      <trkpt lat="44.16207" lon="3.11709">
        <ele>403.44458498622</ele>
        <time>2021-08-08T17:43:08.214Z</time>
      </trkpt>
      <trkpt lat="44.16196" lon="3.11712">
        <ele>403.19861480052</ele>
        <time>2021-08-08T17:43:18.395Z</time>
      </trkpt>
      <trkpt lat="44.16153" lon="3.11728">
        <ele>403.15272158349</ele>
        <time>2021-08-08T17:43:28.591Z</time>
      </trkpt>
      <trkpt lat="44.16128" lon="3.11731">
        <ele>403.00706265284</ele>
        <time>2021-08-08T17:43:38.795Z</time>
      </trkpt>
      <trkpt lat="44.16116" lon="3.11728">
        <ele>402.83727013402</ele>
        <time>2021-08-08T17:43:49.004Z</time>
      </trkpt>
      <trkpt lat="44.16039" lon="3.11693">
        <ele>402.7572191638</ele>
        <time>2021-08-08T17:43:59.240Z</time>
      </trkpt>
      <trkpt lat="44.16022" lon="3.11688">
        <ele>402.7074251857</ele>
        <time>2021-08-08T17:44:09.481Z</time>
      </trkpt>
      <trkpt lat="44.16006" lon="3.11686">
        <ele>402.72513979288</ele>
        <time>2021-08-08T17:44:19.728Z</time>
      </trkpt>
      <trkpt lat="44.15946" lon="3.11661">
        <ele>402.7348814486</ele>
        <time>2021-08-08T17:44:29.996Z</time>
      </trkpt>
      <trkpt lat="44.15917" lon="3.11655">
        <ele>402.89407849577</ele>
        <time>2021-08-08T17:44:40.273Z</time>
      </trkpt>
      <trkpt lat="44.15904" lon="3.1165">
        <ele>402.99027461262</ele>
        <time>2021-08-08T17:44:50.555Z</time>
      </trkpt>
      <trkpt lat="44.15895" lon="3.11645">
        <ele>403.06207540426</ele>
        <time>2021-08-08T17:45:00.840Z</time>
      </trkpt>
      <trkpt lat="44.15876" lon="3.1163">
        <ele>403.10803559294</ele>
        <time>2021-08-08T17:45:11.132Z</time>
      </trkpt>
      <trkpt lat="44.15848" lon="3.11593">
        <ele>402.99474602687</ele>
        <time>2021-08-08T17:45:21.437Z</time>
      </trkpt>
      <trkpt lat="44.15774" lon="3.11475">
        <ele>403.40077511151</ele>
        <time>2021-08-08T17:45:31.780Z</time>
      </trkpt>
      <trkpt lat="44.15768" lon="3.1146">
        <ele>403.48720361325</ele>
        <time>2021-08-08T17:45:42.127Z</time>
      </trkpt>
      <trkpt lat="44.15769" lon="3.11438">
        <ele>403.45770940114</ele>
        <time>2021-08-08T17:45:52.479Z</time>
      </trkpt>
      <trkpt lat="44.15773" lon="3.11422">
        <ele>403.37318415636</ele>
        <time>2021-08-08T17:46:02.835Z</time>
      </trkpt>
      <trkpt lat="44.1579" lon="3.11382">
        <ele>403.0419836619</ele>
        <time>2021-08-08T17:46:13.202Z</time>
      </trkpt>
      <trkpt lat="44.15792" lon="3.11372">
        <ele>402.98775639102</ele>
        <time>2021-08-08T17:46:23.572Z</time>
      </trkpt>
      <trkpt lat="44.15792" lon="3.11363">
        <ele>402.95664404526</ele>
        <time>2021-08-08T17:46:33.944Z</time>
      </trkpt>
      <trkpt lat="44.15788" lon="3.11348">
        <ele>402.95860933539</ele>
        <time>2021-08-08T17:46:44.320Z</time>
      </trkpt>
      <trkpt lat="44.15765" lon="3.11307">
        <ele>403.00871831184</ele>
        <time>2021-08-08T17:46:54.708Z</time>
      </trkpt>
      <trkpt lat="44.15728" lon="3.11247">
        <ele>403.01929569997</ele>
        <time>2021-08-08T17:47:05.115Z</time>
      </trkpt>
      <trkpt lat="44.15619" lon="3.111">
        <ele>402.93722235759</ele>
        <time>2021-08-08T17:47:15.573Z</time>
      </trkpt>
      <trkpt lat="44.15576" lon="3.11032">
        <ele>403.02332886996</ele>
        <time>2021-08-08T17:47:26.053Z</time>
      </trkpt>
      <trkpt lat="44.15562" lon="3.11007">
        <ele>403.0107780668</ele>
        <time>2021-08-08T17:47:36.540Z</time>
      </trkpt>
      <trkpt lat="44.15559" lon="3.10997">
        <ele>402.9250564373</ele>
        <time>2021-08-08T17:47:47.030Z</time>
      </trkpt>
      <trkpt lat="44.1555" lon="3.10945">
        <ele>402.68426353086</ele>
        <time>2021-08-08T17:47:57.533Z</time>
      </trkpt>
      <trkpt lat="44.15539" lon="3.10913">
        <ele>402.5222509825</ele>
        <time>2021-08-08T17:48:08.044Z</time>
      </trkpt>
      <trkpt lat="44.15521" lon="3.10881">
        <ele>402.36736027001</ele>
        <time>2021-08-08T17:48:18.565Z</time>
      </trkpt>
      <trkpt lat="44.1551" lon="3.10867">
        <ele>402.23019095318</ele>
        <time>2021-08-08T17:48:29.091Z</time>
      </trkpt>
      <trkpt lat="44.15491" lon="3.10848">
        <ele>402.11579223431</ele>
        <time>2021-08-08T17:48:39.625Z</time>
      </trkpt>
      <trkpt lat="44.1548" lon="3.10832">
        <ele>401.88450827672</ele>
        <time>2021-08-08T17:48:50.164Z</time>
      </trkpt>
      <trkpt lat="44.15471" lon="3.10803">
        <ele>401.47606037798</ele>
        <time>2021-08-08T17:49:00.711Z</time>
      </trkpt>
      <trkpt lat="44.15463" lon="3.10783">
        <ele>401.09913221622</ele>
        <time>2021-08-08T17:49:11.263Z</time>
      </trkpt>
      <trkpt lat="44.15448" lon="3.10763">
        <ele>400.75952986634</ele>
        <time>2021-08-08T17:49:21.822Z</time>
      </trkpt>
      <trkpt lat="44.15437" lon="3.10753">
        <ele>400.52508073403</ele>
        <time>2021-08-08T17:49:32.385Z</time>
      </trkpt>
      <trkpt lat="44.15406" lon="3.10734">
        <ele>400.67125966488</ele>
        <time>2021-08-08T17:49:42.960Z</time>
      </trkpt>
      <trkpt lat="44.15396" lon="3.10721">
        <ele>400.34955541999</ele>
        <time>2021-08-08T17:49:53.539Z</time>
      </trkpt>
      <trkpt lat="44.15386" lon="3.10693">
        <ele>399.89611223486</ele>
        <time>2021-08-08T17:50:04.126Z</time>
      </trkpt>
      <trkpt lat="44.15371" lon="3.10641">
        <ele>399.26560090115</ele>
        <time>2021-08-08T17:50:14.726Z</time>
      </trkpt>
      <trkpt lat="44.15337" lon="3.10497">
        <ele>398.01793705069</ele>
        <time>2021-08-08T17:50:25.363Z</time>
      </trkpt>
      <trkpt lat="44.15321" lon="3.10437">
        <ele>397.05224001415</ele>
        <time>2021-08-08T17:50:36.015Z</time>
      </trkpt>
      <trkpt lat="44.15315" lon="3.1042">
        <ele>396.24156115973</ele>
        <time>2021-08-08T17:50:46.672Z</time>
      </trkpt>
      <trkpt lat="44.15303" lon="3.10393">
        <ele>395.3874261422</ele>
        <time>2021-08-08T17:50:57.336Z</time>
      </trkpt>
      <trkpt lat="44.15288" lon="3.1037">
        <ele>394.56576896605</ele>
        <time>2021-08-08T17:51:08.008Z</time>
      </trkpt>
      <trkpt lat="44.15271" lon="3.10324">
        <ele>393.50745032011</ele>
        <time>2021-08-08T17:51:18.692Z</time>
      </trkpt>
      <trkpt lat="44.15254" lon="3.10301">
        <ele>392.53400316751</ele>
        <time>2021-08-08T17:51:29.384Z</time>
      </trkpt>
      <trkpt lat="44.15244" lon="3.1028">
        <ele>391.53291819997</ele>
        <time>2021-08-08T17:51:40.082Z</time>
      </trkpt>
      <trkpt lat="44.15232" lon="3.10268">
        <ele>390.63354592437</ele>
        <time>2021-08-08T17:51:50.785Z</time>
      </trkpt>
      <trkpt lat="44.15224" lon="3.10263">
        <ele>389.78642932812</ele>
        <time>2021-08-08T17:52:01.491Z</time>
      </trkpt>
      <trkpt lat="44.1521" lon="3.1026">
        <ele>389.01209629046</ele>
        <time>2021-08-08T17:52:12.202Z</time>
      </trkpt>
      <trkpt lat="44.15178" lon="3.10261">
        <ele>388.26524403545</ele>
        <time>2021-08-08T17:52:22.923Z</time>
      </trkpt>
      <trkpt lat="44.1516" lon="3.10255">
        <ele>387.37995427349</ele>
        <time>2021-08-08T17:52:33.650Z</time>
      </trkpt>
      <trkpt lat="44.1515" lon="3.10254">
        <ele>386.58564794988</ele>
        <time>2021-08-08T17:52:44.381Z</time>
      </trkpt>
      <trkpt lat="44.15115" lon="3.10255">
        <ele>385.7784723057</ele>
        <time>2021-08-08T17:52:55.123Z</time>
      </trkpt>
      <trkpt lat="44.15108" lon="3.10256">
        <ele>385.08333056775</ele>
        <time>2021-08-08T17:53:05.868Z</time>
      </trkpt>
      <trkpt lat="44.15107" lon="3.10264">
        <ele>384.50166709057</ele>
        <time>2021-08-08T17:53:16.615Z</time>
      </trkpt>
      <trkpt lat="44.15099" lon="3.10272">
        <ele>383.96324408432</ele>
        <time>2021-08-08T17:53:27.365Z</time>
      </trkpt>
      <trkpt lat="44.15091" lon="3.10273">
        <ele>383.39398525927</ele>
        <time>2021-08-08T17:53:38.118Z</time>
      </trkpt>
      <trkpt lat="44.15052" lon="3.10247">
        <ele>382.61289962177</ele>
        <time>2021-08-08T17:53:48.885Z</time>
      </trkpt>
      <trkpt lat="44.15032" lon="3.1024">
        <ele>382.05755073509</ele>
        <time>2021-08-08T17:53:59.659Z</time>
      </trkpt>
      <trkpt lat="44.15014" lon="3.10242">
        <ele>381.6102145825</ele>
        <time>2021-08-08T17:54:10.439Z</time>
      </trkpt>
      <trkpt lat="44.14966" lon="3.10253">
        <ele>381.11040399751</ele>
        <time>2021-08-08T17:54:21.235Z</time>
      </trkpt>
      <trkpt lat="44.14907" lon="3.10285">
        <ele>380.79150977482</ele>
        <time>2021-08-08T17:54:32.052Z</time>
      </trkpt>
      <trkpt lat="44.14888" lon="3.10293">
        <ele>380.49177085065</ele>
        <time>2021-08-08T17:54:42.876Z</time>
      </trkpt>
      <trkpt lat="44.14837" lon="3.10303">
        <ele>380.21826475787</ele>
        <time>2021-08-08T17:54:53.717Z</time>
      </trkpt>
      <trkpt lat="44.14762" lon="3.10328">
        <ele>379.99845792</ele>
        <time>2021-08-08T17:55:04.584Z</time>
      </trkpt>
      <trkpt lat="44.1474" lon="3.10331">
        <ele>379.89724361695</ele>
        <time>2021-08-08T17:55:15.458Z</time>
      </trkpt>
      <trkpt lat="44.14729" lon="3.10331">
        <ele>379.78971128622</ele>
        <time>2021-08-08T17:55:26.336Z</time>
      </trkpt>
      <trkpt lat="44.14718" lon="3.10328">
        <ele>379.69340138719</ele>
        <time>2021-08-08T17:55:37.218Z</time>
      </trkpt>
      <trkpt lat="44.14653" lon="3.10297">
        <ele>379.46341261486</ele>
        <time>2021-08-08T17:55:48.123Z</time>
      </trkpt>
      <trkpt lat="44.14636" lon="3.10291">
        <ele>379.40997158806</ele>
        <time>2021-08-08T17:55:59.033Z</time>
      </trkpt>
      <trkpt lat="44.14602" lon="3.10283">
        <ele>379.36369740098</ele>
        <time>2021-08-08T17:56:09.955Z</time>
      </trkpt>
      <trkpt lat="44.14589" lon="3.10283">
        <ele>379.37512803865</ele>
        <time>2021-08-08T17:56:20.881Z</time>
      </trkpt>
      <trkpt lat="44.14573" lon="3.10287">
        <ele>379.43860358826</ele>
        <time>2021-08-08T17:56:31.813Z</time>
      </trkpt>
      <trkpt lat="44.14555" lon="3.10299">
        <ele>379.54275136109</ele>
        <time>2021-08-08T17:56:42.751Z</time>
      </trkpt>
      <trkpt lat="44.14531" lon="3.10331">
        <ele>379.65419729614</ele>
        <time>2021-08-08T17:56:53.700Z</time>
      </trkpt>
      <trkpt lat="44.14511" lon="3.10354">
        <ele>379.86387536479</ele>
        <time>2021-08-08T17:57:04.658Z</time>
      </trkpt>
      <trkpt lat="44.14501" lon="3.10363">
        <ele>380.02512111395</ele>
        <time>2021-08-08T17:57:15.620Z</time>
      </trkpt>
      <trkpt lat="44.1449" lon="3.10369">
        <ele>380.13747351842</ele>
        <time>2021-08-08T17:57:26.586Z</time>
      </trkpt>
      <trkpt lat="44.14454" lon="3.10382">
        <ele>380.29910772487</ele>
        <time>2021-08-08T17:57:37.564Z</time>
      </trkpt>
      <trkpt lat="44.14419" lon="3.1039">
        <ele>380.4682827168</ele>
        <time>2021-08-08T17:57:48.554Z</time>
      </trkpt>
      <trkpt lat="44.14355" lon="3.10389">
        <ele>380.48569145869</ele>
        <time>2021-08-08T17:57:59.565Z</time>
      </trkpt>
      <trkpt lat="44.14332" lon="3.10385">
        <ele>380.46156074975</ele>
        <time>2021-08-08T17:58:10.584Z</time>
      </trkpt>
      <trkpt lat="44.1432" lon="3.1038">
        <ele>380.34915292719</ele>
        <time>2021-08-08T17:58:21.607Z</time>
      </trkpt>
      <trkpt lat="44.14308" lon="3.1037">
        <ele>380.13694498191</ele>
        <time>2021-08-08T17:58:32.635Z</time>
      </trkpt>
      <trkpt lat="44.14266" lon="3.10326">
        <ele>379.65041237784</ele>
        <time>2021-08-08T17:58:43.681Z</time>
      </trkpt>
      <trkpt lat="44.14243" lon="3.10315">
        <ele>379.35749698324</ele>
        <time>2021-08-08T17:58:54.735Z</time>
      </trkpt>
      <trkpt lat="44.14206" lon="3.10301">
        <ele>379.06680897327</ele>
        <time>2021-08-08T17:59:05.801Z</time>
      </trkpt>
      <trkpt lat="44.14192" lon="3.10299">
        <ele>378.79029644383</ele>
        <time>2021-08-08T17:59:16.872Z</time>
      </trkpt>
      <trkpt lat="44.14184" lon="3.103">
        <ele>378.47189328842</ele>
        <time>2021-08-08T17:59:27.946Z</time>
      </trkpt>
      <trkpt lat="44.14137" lon="3.10312">
        <ele>378.15694156032</ele>
        <time>2021-08-08T17:59:39.036Z</time>
      </trkpt>
      <trkpt lat="44.14098" lon="3.1032">
        <ele>377.79589270323</ele>
        <time>2021-08-08T17:59:50.139Z</time>
      </trkpt>
      <trkpt lat="44.14066" lon="3.10323">
        <ele>377.39576754128</ele>
        <time>2021-08-08T18:00:01.253Z</time>
      </trkpt>
      <trkpt lat="44.14046" lon="3.10321">
        <ele>376.9504976066</ele>
        <time>2021-08-08T18:00:12.373Z</time>
      </trkpt>
      <trkpt lat="44.14013" lon="3.10314">
        <ele>376.49792632507</ele>
        <time>2021-08-08T18:00:23.504Z</time>
      </trkpt>
      <trkpt lat="44.13987" lon="3.10308">
        <ele>376.10405049781</ele>
        <time>2021-08-08T18:00:34.644Z</time>
      </trkpt>
      <trkpt lat="44.13969" lon="3.10302">
        <ele>375.66243148463</ele>
        <time>2021-08-08T18:00:45.790Z</time>
      </trkpt>
      <trkpt lat="44.13955" lon="3.10295">
        <ele>375.20473473951</ele>
        <time>2021-08-08T18:00:56.941Z</time>
      </trkpt>
      <trkpt lat="44.13897" lon="3.10253">
        <ele>374.610464228</ele>
        <time>2021-08-08T18:01:08.114Z</time>
      </trkpt>
      <trkpt lat="44.13879" lon="3.10245">
        <ele>374.21259447546</ele>
        <time>2021-08-08T18:01:19.293Z</time>
      </trkpt>
      <trkpt lat="44.13868" lon="3.10243">
        <ele>373.83394154354</ele>
        <time>2021-08-08T18:01:30.476Z</time>
      </trkpt>
      <trkpt lat="44.13849" lon="3.10236">
        <ele>373.45247386393</ele>
        <time>2021-08-08T18:01:41.666Z</time>
      </trkpt>
      <trkpt lat="44.13832" lon="3.10228">
        <ele>373.07343408107</ele>
        <time>2021-08-08T18:01:52.862Z</time>
      </trkpt>
      <trkpt lat="44.13759" lon="3.10184">
        <ele>372.63997861352</ele>
        <time>2021-08-08T18:02:04.084Z</time>
      </trkpt>
      <trkpt lat="44.13714" lon="3.10166">
        <ele>372.31287790951</ele>
        <time>2021-08-08T18:02:15.322Z</time>
      </trkpt>
      <trkpt lat="44.13666" lon="3.10156">
        <ele>372.00738123363</ele>
        <time>2021-08-08T18:02:26.576Z</time>
      </trkpt>
      <trkpt lat="44.13586" lon="3.10147">
        <ele>371.68171062323</ele>
        <time>2021-08-08T18:02:37.857Z</time>
      </trkpt>
      <trkpt lat="44.13512" lon="3.10143">
        <ele>371.4516825687</ele>
        <time>2021-08-08T18:02:49.162Z</time>
      </trkpt>
      <trkpt lat="44.13436" lon="3.10145">
        <ele>371.58967431612</ele>
        <time>2021-08-08T18:03:00.493Z</time>
      </trkpt>
      <trkpt lat="44.13425" lon="3.10144">
        <ele>371.46389124768</ele>
        <time>2021-08-08T18:03:11.827Z</time>
      </trkpt>
      <trkpt lat="44.13406" lon="3.10138">
        <ele>371.34991348451</ele>
        <time>2021-08-08T18:03:23.168Z</time>
      </trkpt>
      <trkpt lat="44.13345" lon="3.10112">
        <ele>371.31641105342</ele>
        <time>2021-08-08T18:03:34.530Z</time>
      </trkpt>
      <trkpt lat="44.13334" lon="3.10105">
        <ele>371.24259039338</ele>
        <time>2021-08-08T18:03:45.896Z</time>
      </trkpt>
      <trkpt lat="44.13326" lon="3.10099">
        <ele>371.1965420119</ele>
        <time>2021-08-08T18:03:57.265Z</time>
      </trkpt>
      <trkpt lat="44.13292" lon="3.10066">
        <ele>371.09430065072</ele>
        <time>2021-08-08T18:04:08.648Z</time>
      </trkpt>
      <trkpt lat="44.13266" lon="3.10047">
        <ele>371.09768988113</ele>
        <time>2021-08-08T18:04:20.041Z</time>
      </trkpt>
      <trkpt lat="44.13246" lon="3.10036">
        <ele>371.15689481875</ele>
        <time>2021-08-08T18:04:31.441Z</time>
      </trkpt>
      <trkpt lat="44.1321" lon="3.10019">
        <ele>371.25425909238</ele>
        <time>2021-08-08T18:04:42.854Z</time>
      </trkpt>
      <trkpt lat="44.13167" lon="3.10003">
        <ele>371.37720006021</ele>
        <time>2021-08-08T18:04:54.282Z</time>
      </trkpt>
      <trkpt lat="44.13149" lon="3.09997">
        <ele>371.54656116442</ele>
        <time>2021-08-08T18:05:05.716Z</time>
      </trkpt>
      <trkpt lat="44.13117" lon="3.09991">
        <ele>371.75482597136</ele>
        <time>2021-08-08T18:05:17.161Z</time>
      </trkpt>
      <trkpt lat="44.13088" lon="3.0999">
        <ele>371.97981213456</ele>
        <time>2021-08-08T18:05:28.615Z</time>
      </trkpt>
      <trkpt lat="44.13041" lon="3.09985">
        <ele>372.24729278493</ele>
        <time>2021-08-08T18:05:40.085Z</time>
      </trkpt>
      <trkpt lat="44.12982" lon="3.09984">
        <ele>372.51690164041</ele>
        <time>2021-08-08T18:05:51.575Z</time>
      </trkpt>
      <trkpt lat="44.12934" lon="3.09995">
        <ele>372.88270998802</ele>
        <time>2021-08-08T18:06:03.081Z</time>
      </trkpt>
      <trkpt lat="44.12859" lon="3.1002">
        <ele>373.18379503094</ele>
        <time>2021-08-08T18:06:14.613Z</time>
      </trkpt>
      <trkpt lat="44.12773" lon="3.10055">
        <ele>373.51850041859</ele>
        <time>2021-08-08T18:06:26.174Z</time>
      </trkpt>
      <trkpt lat="44.12722" lon="3.10064">
        <ele>373.86626248756</ele>
        <time>2021-08-08T18:06:37.753Z</time>
      </trkpt>
      <trkpt lat="44.12702" lon="3.10063">
        <ele>374.14848414359</ele>
        <time>2021-08-08T18:06:49.338Z</time>
      </trkpt>
      <trkpt lat="44.12653" lon="3.10068">
        <ele>374.45129972612</ele>
        <time>2021-08-08T18:07:00.940Z</time>
      </trkpt>
      <trkpt lat="44.12606" lon="3.1007">
        <ele>374.75686892539</ele>
        <time>2021-08-08T18:07:12.557Z</time>
      </trkpt>
      <trkpt lat="44.12553" lon="3.1006">
        <ele>375.17202782561</ele>
        <time>2021-08-08T18:07:24.192Z</time>
      </trkpt>
      <trkpt lat="44.12519" lon="3.10047">
        <ele>375.50454439253</ele>
        <time>2021-08-08T18:07:35.839Z</time>
      </trkpt>
      <trkpt lat="44.12477" lon="3.1002">
        <ele>375.82988226212</ele>
        <time>2021-08-08T18:07:47.501Z</time>
      </trkpt>
      <trkpt lat="44.12456" lon="3.10002">
        <ele>376.00363637084</ele>
        <time>2021-08-08T18:07:59.171Z</time>
      </trkpt>
      <trkpt lat="44.12437" lon="3.09978">
        <ele>376.09612773898</ele>
        <time>2021-08-08T18:08:10.850Z</time>
      </trkpt>
      <trkpt lat="44.12412" lon="3.09931">
        <ele>376.05945884914</ele>
        <time>2021-08-08T18:08:22.543Z</time>
      </trkpt>
      <trkpt lat="44.12402" lon="3.09908">
        <ele>376.00827745979</ele>
        <time>2021-08-08T18:08:34.243Z</time>
      </trkpt>
      <trkpt lat="44.12388" lon="3.09846">
        <ele>375.7843888142</ele>
        <time>2021-08-08T18:08:45.958Z</time>
      </trkpt>
      <trkpt lat="44.12378" lon="3.09812">
        <ele>375.45065782349</ele>
        <time>2021-08-08T18:08:57.682Z</time>
      </trkpt>
      <trkpt lat="44.12361" lon="3.09768">
        <ele>375.05068832801</ele>
        <time>2021-08-08T18:09:09.418Z</time>
      </trkpt>
      <trkpt lat="44.12346" lon="3.09739">
        <ele>374.69861735585</ele>
        <time>2021-08-08T18:09:21.163Z</time>
      </trkpt>
      <trkpt lat="44.12307" lon="3.09685">
        <ele>374.39270697991</ele>
        <time>2021-08-08T18:09:32.926Z</time>
      </trkpt>
      <trkpt lat="44.12193" lon="3.09548">
        <ele>373.86198249199</ele>
        <time>2021-08-08T18:09:44.739Z</time>
      </trkpt>
      <trkpt lat="44.12161" lon="3.09503">
        <ele>373.38145200644</ele>
        <time>2021-08-08T18:09:56.567Z</time>
      </trkpt>
      <trkpt lat="44.12078" lon="3.0935">
        <ele>372.9501353504</ele>
        <time>2021-08-08T18:10:08.441Z</time>
      </trkpt>
      <trkpt lat="44.12058" lon="3.09319">
        <ele>372.42228264772</ele>
        <time>2021-08-08T18:10:20.325Z</time>
      </trkpt>
      <trkpt lat="44.1203" lon="3.09284">
        <ele>371.89877357829</ele>
        <time>2021-08-08T18:10:32.222Z</time>
      </trkpt>
      <trkpt lat="44.12011" lon="3.09255">
        <ele>371.24872038611</ele>
        <time>2021-08-08T18:10:44.128Z</time>
      </trkpt>
      <trkpt lat="44.11986" lon="3.09197">
        <ele>370.30334324548</ele>
        <time>2021-08-08T18:10:56.051Z</time>
      </trkpt>
      <trkpt lat="44.11974" lon="3.09175">
        <ele>369.52771199057</ele>
        <time>2021-08-08T18:11:07.980Z</time>
      </trkpt>
      <trkpt lat="44.11933" lon="3.09122">
        <ele>368.70923735832</ele>
        <time>2021-08-08T18:11:19.928Z</time>
      </trkpt>
      <trkpt lat="44.11902" lon="3.09076">
        <ele>367.94880280666</ele>
        <time>2021-08-08T18:11:31.891Z</time>
      </trkpt>
      <trkpt lat="44.11784" lon="3.08914">
        <ele>367.02606639699</ele>
        <time>2021-08-08T18:11:43.909Z</time>
      </trkpt>
      <trkpt lat="44.11765" lon="3.08891">
        <ele>366.2992466465</ele>
        <time>2021-08-08T18:11:55.936Z</time>
      </trkpt>
      <trkpt lat="44.11731" lon="3.08855">
        <ele>365.57351099371</ele>
        <time>2021-08-08T18:12:07.977Z</time>
      </trkpt>
      <trkpt lat="44.11703" lon="3.08833">
        <ele>364.87172809255</ele>
        <time>2021-08-08T18:12:20.029Z</time>
      </trkpt>
      <trkpt lat="44.1165" lon="3.08798">
        <ele>364.23355095916</ele>
        <time>2021-08-08T18:12:32.100Z</time>
      </trkpt>
      <trkpt lat="44.11534" lon="3.08727">
        <ele>363.50565037441</ele>
        <time>2021-08-08T18:12:44.213Z</time>
      </trkpt>
      <trkpt lat="44.11486" lon="3.08699">
        <ele>362.88657229138</ele>
        <time>2021-08-08T18:12:56.344Z</time>
      </trkpt>
      <trkpt lat="44.11452" lon="3.08682">
        <ele>362.31382455551</ele>
        <time>2021-08-08T18:13:08.487Z</time>
      </trkpt>
      <trkpt lat="44.11439" lon="3.08677">
        <ele>361.78452642903</ele>
        <time>2021-08-08T18:13:20.634Z</time>
      </trkpt>
      <trkpt lat="44.11376" lon="3.08662">
        <ele>361.26824865323</ele>
        <time>2021-08-08T18:13:32.803Z</time>
      </trkpt>
      <trkpt lat="44.11334" lon="3.08643">
        <ele>360.80695845007</ele>
        <time>2021-08-08T18:13:44.986Z</time>
      </trkpt>
      <trkpt lat="44.11305" lon="3.08635">
        <ele>360.39431616295</ele>
        <time>2021-08-08T18:13:57.179Z</time>
      </trkpt>
      <trkpt lat="44.11287" lon="3.08633">
        <ele>360.02391415172</ele>
        <time>2021-08-08T18:14:09.378Z</time>
      </trkpt>
      <trkpt lat="44.11274" lon="3.08634">
        <ele>359.68774175129</ele>
        <time>2021-08-08T18:14:21.582Z</time>
      </trkpt>
      <trkpt lat="44.11224" lon="3.08633">
        <ele>359.3619796159</ele>
        <time>2021-08-08T18:14:33.802Z</time>
      </trkpt>
      <trkpt lat="44.11186" lon="3.08634">
        <ele>359.09332278605</ele>
        <time>2021-08-08T18:14:46.035Z</time>
      </trkpt>
      <trkpt lat="44.11165" lon="3.08638">
        <ele>358.85463596925</ele>
        <time>2021-08-08T18:14:58.275Z</time>
      </trkpt>
      <trkpt lat="44.11149" lon="3.08644">
        <ele>358.64918024065</ele>
        <time>2021-08-08T18:15:10.521Z</time>
      </trkpt>
      <trkpt lat="44.11113" lon="3.08668">
        <ele>358.50505916396</ele>
        <time>2021-08-08T18:15:22.780Z</time>
      </trkpt>
      <trkpt lat="44.11052" lon="3.08714">
        <ele>358.37055562365</ele>
        <time>2021-08-08T18:15:35.062Z</time>
      </trkpt>
      <trkpt lat="44.11044" lon="3.08718">
        <ele>358.20365544761</ele>
        <time>2021-08-08T18:15:47.347Z</time>
      </trkpt>
      <trkpt lat="44.10968" lon="3.08749">
        <ele>358.09531409988</ele>
        <time>2021-08-08T18:15:59.658Z</time>
      </trkpt>
      <trkpt lat="44.10877" lon="3.08777">
        <ele>358.0476909958</ele>
        <time>2021-08-08T18:16:12.000Z</time>
      </trkpt>
      <trkpt lat="44.10821" lon="3.08786">
        <ele>358.03038056667</ele>
        <time>2021-08-08T18:16:24.361Z</time>
      </trkpt>
      <trkpt lat="44.10792" lon="3.08789">
        <ele>357.89449846453</ele>
        <time>2021-08-08T18:16:36.732Z</time>
      </trkpt>
      <trkpt lat="44.107" lon="3.08792">
        <ele>357.48671972617</ele>
        <time>2021-08-08T18:16:49.133Z</time>
      </trkpt>
      <trkpt lat="44.10658" lon="3.08801">
        <ele>357.26114634521</ele>
        <time>2021-08-08T18:17:01.549Z</time>
      </trkpt>
      <trkpt lat="44.10638" lon="3.08806">
        <ele>357.04489955479</ele>
        <time>2021-08-08T18:17:13.971Z</time>
      </trkpt>
      <trkpt lat="44.10612" lon="3.08816">
        <ele>356.80691378588</ele>
        <time>2021-08-08T18:17:26.402Z</time>
      </trkpt>
      <trkpt lat="44.10583" lon="3.08833">
        <ele>356.66136092254</ele>
        <time>2021-08-08T18:17:38.844Z</time>
      </trkpt>
      <trkpt lat="44.1056" lon="3.08844">
        <ele>356.49053488657</ele>
        <time>2021-08-08T18:17:51.294Z</time>
      </trkpt>
      <trkpt lat="44.1051" lon="3.08862">
        <ele>356.32949619951</ele>
        <time>2021-08-08T18:18:03.761Z</time>
      </trkpt>
      <trkpt lat="44.10474" lon="3.0887">
        <ele>356.19119251393</ele>
        <time>2021-08-08T18:18:16.240Z</time>
      </trkpt>
      <trkpt lat="44.10373" lon="3.08865">
        <ele>356.03261701785</ele>
        <time>2021-08-08T18:18:28.753Z</time>
      </trkpt>
      <trkpt lat="44.10364" lon="3.08866">
        <ele>355.96319989455</ele>
        <time>2021-08-08T18:18:41.269Z</time>
      </trkpt>
      <trkpt lat="44.1036" lon="3.08865">
        <ele>355.92332529474</ele>
        <time>2021-08-08T18:18:53.786Z</time>
      </trkpt>
      <trkpt lat="44.10348" lon="3.0887">
        <ele>355.92719511118</ele>
        <time>2021-08-08T18:19:06.308Z</time>
      </trkpt>
      <trkpt lat="44.10338" lon="3.08865">
        <ele>355.95901741164</ele>
        <time>2021-08-08T18:19:18.833Z</time>
      </trkpt>
      <trkpt lat="44.10332" lon="3.08864">
        <ele>356.04021839181</ele>
        <time>2021-08-08T18:19:31.360Z</time>
      </trkpt>
      <trkpt lat="44.10328" lon="3.08865">
        <ele>356.17209985373</ele>
        <time>2021-08-08T18:19:43.889Z</time>
      </trkpt>
      <trkpt lat="44.10316" lon="3.0886">
        <ele>356.34820658168</ele>
        <time>2021-08-08T18:19:56.422Z</time>
      </trkpt>
      <trkpt lat="44.10301" lon="3.08842">
        <ele>356.56451166234</ele>
        <time>2021-08-08T18:20:08.961Z</time>
      </trkpt>
      <trkpt lat="44.10277" lon="3.08794">
        <ele>356.8596502447</ele>
        <time>2021-08-08T18:20:21.514Z</time>
      </trkpt>
      <trkpt lat="44.10264" lon="3.08772">
        <ele>357.20702507278</ele>
        <time>2021-08-08T18:20:34.074Z</time>
      </trkpt>
      <trkpt lat="44.10257" lon="3.08763">
        <ele>357.61980402843</ele>
        <time>2021-08-08T18:20:46.637Z</time>
      </trkpt>
      <trkpt lat="44.10214" lon="3.08721">
        <ele>358.09713191883</ele>
        <time>2021-08-08T18:20:59.218Z</time>
      </trkpt>
      <trkpt lat="44.10208" lon="3.08711">
        <ele>358.64251696127</ele>
        <time>2021-08-08T18:21:11.802Z</time>
      </trkpt>
      <trkpt lat="44.10203" lon="3.08698">
        <ele>359.25257531452</ele>
        <time>2021-08-08T18:21:24.390Z</time>
      </trkpt>
      <trkpt lat="44.10194" lon="3.08617">
        <ele>359.99929195052</ele>
        <time>2021-08-08T18:21:36.997Z</time>
      </trkpt>
      <trkpt lat="44.1019" lon="3.08594">
        <ele>360.75225198374</ele>
        <time>2021-08-08T18:21:49.610Z</time>
      </trkpt>
      <trkpt lat="44.10193" lon="3.08573">
        <ele>361.57611839494</ele>
        <time>2021-08-08T18:22:02.228Z</time>
      </trkpt>
      <trkpt lat="44.1019" lon="3.08562">
        <ele>362.42470402817</ele>
        <time>2021-08-08T18:22:14.849Z</time>
      </trkpt>
      <trkpt lat="44.10184" lon="3.08556">
        <ele>363.3015495449</ele>
        <time>2021-08-08T18:22:27.472Z</time>
      </trkpt>
      <trkpt lat="44.10163" lon="3.08352">
        <ele>363.48542493158</ele>
        <time>2021-08-08T18:22:40.145Z</time>
      </trkpt>
      <trkpt lat="44.10154" lon="3.08249">
        <ele>364.32978575124</ele>
        <time>2021-08-08T18:22:52.843Z</time>
      </trkpt>
      <trkpt lat="44.10147" lon="3.08207">
        <ele>365.20771857439</ele>
        <time>2021-08-08T18:23:05.551Z</time>
      </trkpt>
      <trkpt lat="44.10142" lon="3.08192">
        <ele>365.99797571323</ele>
        <time>2021-08-08T18:23:18.263Z</time>
      </trkpt>
      <trkpt lat="44.10133" lon="3.08172">
        <ele>366.82612485502</ele>
        <time>2021-08-08T18:23:30.981Z</time>
      </trkpt>
      <trkpt lat="44.10117" lon="3.08149">
        <ele>367.70751312495</ele>
        <time>2021-08-08T18:23:43.706Z</time>
      </trkpt>
      <trkpt lat="44.10096" lon="3.0813">
        <ele>368.50388504271</ele>
        <time>2021-08-08T18:23:56.440Z</time>
      </trkpt>
      <trkpt lat="44.10085" lon="3.08125">
        <ele>369.21873263708</ele>
        <time>2021-08-08T18:24:09.178Z</time>
      </trkpt>
      <trkpt lat="44.10073" lon="3.08122">
        <ele>369.9317669384</ele>
        <time>2021-08-08T18:24:21.920Z</time>
      </trkpt>
      <trkpt lat="44.10041" lon="3.0812">
        <ele>370.6622326297</ele>
        <time>2021-08-08T18:24:34.672Z</time>
      </trkpt>
      <trkpt lat="44.10039" lon="3.08114">
        <ele>374.09045577836</ele>
        <time>2021-08-08T18:24:47.426Z</time>
      </trkpt>
      <trkpt lat="44.10029" lon="3.0811">
        <ele>374.91395051358</ele>
        <time>2021-08-08T18:25:00.183Z</time>
      </trkpt>
      <trkpt lat="44.10007" lon="3.0811">
        <ele>375.73876557356</ele>
        <time>2021-08-08T18:25:12.948Z</time>
      </trkpt>
      <trkpt lat="44.10005" lon="3.08104">
        <ele>376.46229526309</ele>
        <time>2021-08-08T18:25:25.714Z</time>
      </trkpt>
      <trkpt lat="44.1" lon="3.081">
        <ele>377.13677000605</ele>
        <time>2021-08-08T18:25:38.482Z</time>
      </trkpt>
      <trkpt lat="44.09994" lon="3.08101">
        <ele>377.7474817555</ele>
        <time>2021-08-08T18:25:51.252Z</time>
      </trkpt>
      <trkpt lat="44.09993" lon="3.08103">
        <ele>376.40804068818</ele>
        <time>2021-08-08T18:26:04.023Z</time>
      </trkpt>
      <trkpt lat="44.09964" lon="3.07915">
        <ele>377.22704786158</ele>
        <time>2021-08-08T18:26:16.840Z</time>
      </trkpt>
      <trkpt lat="44.09977" lon="3.07889">
        <ele>379.3008997292</ele>
        <time>2021-08-08T18:26:29.665Z</time>
      </trkpt>
      <trkpt lat="44.09976" lon="3.07878">
        <ele>379.61904809126</ele>
        <time>2021-08-08T18:26:42.492Z</time>
      </trkpt>
      <trkpt lat="44.09981" lon="3.07873">
        <ele>379.84236006157</ele>
        <time>2021-08-08T18:26:55.321Z</time>
      </trkpt>
      <trkpt lat="44.09984" lon="3.07865">
        <ele>379.98031389182</ele>
        <time>2021-08-08T18:27:08.153Z</time>
      </trkpt>
      <trkpt lat="44.09984" lon="3.07852">
        <ele>380.03513247142</ele>
        <time>2021-08-08T18:27:20.988Z</time>
      </trkpt>
      <trkpt lat="44.09981" lon="3.07845">
        <ele>380.00611715347</ele>
        <time>2021-08-08T18:27:33.825Z</time>
      </trkpt>
      <trkpt lat="44.09976" lon="3.0784">
        <ele>379.8925835866</ele>
        <time>2021-08-08T18:27:46.664Z</time>
      </trkpt>
      <trkpt lat="44.09968" lon="3.07838">
        <ele>379.6957359329</ele>
        <time>2021-08-08T18:27:59.505Z</time>
      </trkpt>
      <trkpt lat="44.09957" lon="3.07831">
        <ele>379.41682624052</ele>
        <time>2021-08-08T18:28:12.350Z</time>
      </trkpt>
      <trkpt lat="44.09947" lon="3.0783">
        <ele>379.05532025214</ele>
        <time>2021-08-08T18:28:25.199Z</time>
      </trkpt>
      <trkpt lat="44.0994" lon="3.07824">
        <ele>378.610620127</ele>
        <time>2021-08-08T18:28:38.051Z</time>
      </trkpt>
      <trkpt lat="44.09929" lon="3.07797">
        <ele>378.08797296925</ele>
        <time>2021-08-08T18:28:50.910Z</time>
      </trkpt>
      <trkpt lat="44.09904" lon="3.07726">
        <ele>377.45236734289</ele>
        <time>2021-08-08T18:29:03.788Z</time>
      </trkpt>
      <trkpt lat="44.099" lon="3.07718">
        <ele>376.78317524607</ele>
        <time>2021-08-08T18:29:16.668Z</time>
      </trkpt>
      <trkpt lat="44.0989" lon="3.07708">
        <ele>376.05236667045</ele>
        <time>2021-08-08T18:29:29.552Z</time>
      </trkpt>
      <trkpt lat="44.09866" lon="3.07694">
        <ele>375.26455244378</ele>
        <time>2021-08-08T18:29:42.445Z</time>
      </trkpt>
      <trkpt lat="44.09822" lon="3.07684">
        <ele>374.39047067036</ele>
        <time>2021-08-08T18:29:55.353Z</time>
      </trkpt>
      <trkpt lat="44.09789" lon="3.0768">
        <ele>373.49521336695</ele>
        <time>2021-08-08T18:30:08.272Z</time>
      </trkpt>
      <trkpt lat="44.09739" lon="3.07677">
        <ele>372.55414900381</ele>
        <time>2021-08-08T18:30:21.208Z</time>
      </trkpt>
      <trkpt lat="44.0964" lon="3.07668">
        <ele>371.50417529097</ele>
        <time>2021-08-08T18:30:34.177Z</time>
      </trkpt>
      <trkpt lat="44.09563" lon="3.07658">
        <ele>370.32896426063</ele>
        <time>2021-08-08T18:30:47.172Z</time>
      </trkpt>
      <trkpt lat="44.09547" lon="3.07652">
        <ele>369.36922206721</ele>
        <time>2021-08-08T18:31:00.172Z</time>
      </trkpt>
      <trkpt lat="44.09544" lon="3.07646">
        <ele>368.49520906586</ele>
        <time>2021-08-08T18:31:13.174Z</time>
      </trkpt>
      <trkpt lat="44.09545" lon="3.07643">
        <ele>367.67058814301</ele>
        <time>2021-08-08T18:31:26.177Z</time>
      </trkpt>
      <trkpt lat="44.0954" lon="3.07629">
        <ele>366.85276367044</ele>
        <time>2021-08-08T18:31:39.183Z</time>
      </trkpt>
      <trkpt lat="44.09447" lon="3.07428">
        <ele>366.14214865414</ele>
        <time>2021-08-08T18:31:52.247Z</time>
      </trkpt>
      <trkpt lat="44.09443" lon="3.07414">
        <ele>365.44438790344</ele>
        <time>2021-08-08T18:32:05.314Z</time>
      </trkpt>
      <trkpt lat="44.09442" lon="3.07401">
        <ele>364.80001042414</ele>
        <time>2021-08-08T18:32:18.385Z</time>
      </trkpt>
      <trkpt lat="44.09443" lon="3.07388">
        <ele>364.21463857321</ele>
        <time>2021-08-08T18:32:31.459Z</time>
      </trkpt>
      <trkpt lat="44.09436" lon="3.07379">
        <ele>363.66992696444</ele>
        <time>2021-08-08T18:32:44.536Z</time>
      </trkpt>
      <trkpt lat="44.09432" lon="3.07378">
        <ele>363.18625064471</ele>
        <time>2021-08-08T18:32:57.614Z</time>
      </trkpt>
      <trkpt lat="44.09424" lon="3.07382">
        <ele>362.75429004533</ele>
        <time>2021-08-08T18:33:10.695Z</time>
      </trkpt>
      <trkpt lat="44.09416" lon="3.07406">
        <ele>362.36494725976</ele>
        <time>2021-08-08T18:33:23.782Z</time>
      </trkpt>
      <trkpt lat="44.09408" lon="3.07417">
        <ele>362.03377407297</ele>
        <time>2021-08-08T18:33:36.873Z</time>
      </trkpt>
      <trkpt lat="44.09389" lon="3.07434">
        <ele>361.71339347015</ele>
        <time>2021-08-08T18:33:49.972Z</time>
      </trkpt>
      <trkpt lat="44.09321" lon="3.07503">
        <ele>361.28599256097</ele>
        <time>2021-08-08T18:34:03.099Z</time>
      </trkpt>
      <trkpt lat="44.09206" lon="3.07614">
        <ele>361.44120447856</ele>
        <time>2021-08-08T18:34:16.272Z</time>
      </trkpt>
      <trkpt lat="44.09189" lon="3.07627">
        <ele>361.46588591918</ele>
        <time>2021-08-08T18:34:29.452Z</time>
      </trkpt>
      <trkpt lat="44.09122" lon="3.07692">
        <ele>361.59239276377</ele>
        <time>2021-08-08T18:34:42.659Z</time>
      </trkpt>
      <trkpt lat="44.09112" lon="3.07698">
        <ele>361.68429937234</ele>
        <time>2021-08-08T18:34:55.870Z</time>
      </trkpt>
      <trkpt lat="44.09099" lon="3.07701">
        <ele>361.8911753696</ele>
        <time>2021-08-08T18:35:09.085Z</time>
      </trkpt>
      <trkpt lat="44.09088" lon="3.07701">
        <ele>362.14041878855</ele>
        <time>2021-08-08T18:35:22.304Z</time>
      </trkpt>
      <trkpt lat="44.09078" lon="3.07698">
        <ele>362.42042789951</ele>
        <time>2021-08-08T18:35:35.526Z</time>
      </trkpt>
      <trkpt lat="44.09065" lon="3.07679">
        <ele>362.76827122055</ele>
        <time>2021-08-08T18:35:48.755Z</time>
      </trkpt>
      <trkpt lat="44.09061" lon="3.07666">
        <ele>363.0938076668</ele>
        <time>2021-08-08T18:36:01.987Z</time>
      </trkpt>
      <trkpt lat="44.0906" lon="3.07651">
        <ele>363.42889468303</ele>
        <time>2021-08-08T18:36:15.223Z</time>
      </trkpt>
      <trkpt lat="44.09087" lon="3.07525">
        <ele>363.75926964308</ele>
        <time>2021-08-08T18:36:28.490Z</time>
      </trkpt>
      <trkpt lat="44.09089" lon="3.07488">
        <ele>364.06173866549</ele>
        <time>2021-08-08T18:36:41.766Z</time>
      </trkpt>
      <trkpt lat="44.09086" lon="3.07453">
        <ele>364.34357953927</ele>
        <time>2021-08-08T18:36:55.051Z</time>
      </trkpt>
      <trkpt lat="44.09086" lon="3.0742">
        <ele>364.60221713619</ele>
        <time>2021-08-08T18:37:08.343Z</time>
      </trkpt>
      <trkpt lat="44.09089" lon="3.07385">
        <ele>364.84874230633</ele>
        <time>2021-08-08T18:37:21.644Z</time>
      </trkpt>
      <trkpt lat="44.09089" lon="3.07349">
        <ele>365.13538197731</ele>
        <time>2021-08-08T18:37:34.954Z</time>
      </trkpt>
      <trkpt lat="44.09079" lon="3.07268">
        <ele>365.3723604521</ele>
        <time>2021-08-08T18:37:48.283Z</time>
      </trkpt>
      <trkpt lat="44.09073" lon="3.07236">
        <ele>365.72021179577</ele>
        <time>2021-08-08T18:38:01.620Z</time>
      </trkpt>
      <trkpt lat="44.09055" lon="3.07164">
        <ele>366.21037666644</ele>
        <time>2021-08-08T18:38:14.976Z</time>
      </trkpt>
      <trkpt lat="44.09043" lon="3.07105">
        <ele>366.65073781429</ele>
        <time>2021-08-08T18:38:28.346Z</time>
      </trkpt>
      <trkpt lat="44.09029" lon="3.0692">
        <ele>367.17748627204</ele>
        <time>2021-08-08T18:38:41.761Z</time>
      </trkpt>
      <trkpt lat="44.09013" lon="3.06811">
        <ele>367.53448646069</ele>
        <time>2021-08-08T18:38:55.203Z</time>
      </trkpt>
      <trkpt lat="44.09005" lon="3.06785">
        <ele>368.05681722439</ele>
        <time>2021-08-08T18:39:08.652Z</time>
      </trkpt>
      <trkpt lat="44.09006" lon="3.06777">
        <ele>368.58505948595</ele>
        <time>2021-08-08T18:39:22.102Z</time>
      </trkpt>
      <trkpt lat="44.08998" lon="3.06762">
        <ele>369.21639342609</ele>
        <time>2021-08-08T18:39:35.557Z</time>
      </trkpt>
      <trkpt lat="44.08988" lon="3.0673">
        <ele>369.92153828881</ele>
        <time>2021-08-08T18:39:49.020Z</time>
      </trkpt>
      <trkpt lat="44.08981" lon="3.06715">
        <ele>370.66016652128</ele>
        <time>2021-08-08T18:40:02.488Z</time>
      </trkpt>
      <trkpt lat="44.08966" lon="3.06671">
        <ele>371.4347783717</ele>
        <time>2021-08-08T18:40:15.967Z</time>
      </trkpt>
      <trkpt lat="44.08934" lon="3.06595">
        <ele>372.43331516571</ele>
        <time>2021-08-08T18:40:29.467Z</time>
      </trkpt>
      <trkpt lat="44.0892" lon="3.06566">
        <ele>373.17287194163</ele>
        <time>2021-08-08T18:40:42.976Z</time>
      </trkpt>
      <trkpt lat="44.089" lon="3.06531">
        <ele>373.98371157285</ele>
        <time>2021-08-08T18:40:56.496Z</time>
      </trkpt>
      <trkpt lat="44.08877" lon="3.06494">
        <ele>374.8100062049</ele>
        <time>2021-08-08T18:41:10.027Z</time>
      </trkpt>
      <trkpt lat="44.08862" lon="3.06473">
        <ele>375.6912797268</ele>
        <time>2021-08-08T18:41:23.565Z</time>
      </trkpt>
      <trkpt lat="44.0883" lon="3.06431">
        <ele>376.63400564288</ele>
        <time>2021-08-08T18:41:37.118Z</time>
      </trkpt>
      <trkpt lat="44.08771" lon="3.06361">
        <ele>377.79800565854</ele>
        <time>2021-08-08T18:41:50.697Z</time>
      </trkpt>
      <trkpt lat="44.0875" lon="3.06342">
        <ele>378.93460363426</ele>
        <time>2021-08-08T18:42:04.284Z</time>
      </trkpt>
      <trkpt lat="44.08698" lon="3.06307">
        <ele>380.158510386</ele>
        <time>2021-08-08T18:42:17.891Z</time>
      </trkpt>
      <trkpt lat="44.08684" lon="3.06295">
        <ele>381.27564513922</ele>
        <time>2021-08-08T18:42:31.503Z</time>
      </trkpt>
      <trkpt lat="44.08666" lon="3.06271">
        <ele>382.36879929836</ele>
        <time>2021-08-08T18:42:45.123Z</time>
      </trkpt>
      <trkpt lat="44.08654" lon="3.06244">
        <ele>383.46006347132</ele>
        <time>2021-08-08T18:42:58.751Z</time>
      </trkpt>
      <trkpt lat="44.08633" lon="3.06213">
        <ele>384.65703236665</ele>
        <time>2021-08-08T18:43:12.389Z</time>
      </trkpt>
      <trkpt lat="44.08599" lon="3.06184">
        <ele>385.82428561218</ele>
        <time>2021-08-08T18:43:26.041Z</time>
      </trkpt>
      <trkpt lat="44.08572" lon="3.06166">
        <ele>386.7682719813</ele>
        <time>2021-08-08T18:43:39.703Z</time>
      </trkpt>
      <trkpt lat="44.08559" lon="3.06153">
        <ele>387.71740087646</ele>
        <time>2021-08-08T18:43:53.370Z</time>
      </trkpt>
      <trkpt lat="44.08553" lon="3.0614">
        <ele>388.63109788311</ele>
        <time>2021-08-08T18:44:07.041Z</time>
      </trkpt>
      <trkpt lat="44.08547" lon="3.0612">
        <ele>389.49051359488</ele>
        <time>2021-08-08T18:44:20.717Z</time>
      </trkpt>
      <trkpt lat="44.08546" lon="3.06091">
        <ele>390.23818125888</ele>
        <time>2021-08-08T18:44:34.400Z</time>
      </trkpt>
      <trkpt lat="44.08542" lon="3.06066">
        <ele>390.94793070347</ele>
        <time>2021-08-08T18:44:48.089Z</time>
      </trkpt>
      <trkpt lat="44.08504" lon="3.0593">
        <ele>391.63510648651</ele>
        <time>2021-08-08T18:45:01.813Z</time>
      </trkpt>
      <trkpt lat="44.0849" lon="3.05886">
        <ele>392.26132862718</ele>
        <time>2021-08-08T18:45:15.549Z</time>
      </trkpt>
      <trkpt lat="44.08443" lon="3.05769">
        <ele>392.90009268264</ele>
        <time>2021-08-08T18:45:29.317Z</time>
      </trkpt>
      <trkpt lat="44.08436" lon="3.05736">
        <ele>393.16962490966</ele>
        <time>2021-08-08T18:45:43.093Z</time>
      </trkpt>
      <trkpt lat="44.08437" lon="3.05668">
        <ele>393.12879913312</ele>
        <time>2021-08-08T18:45:56.885Z</time>
      </trkpt>
      <trkpt lat="44.08425" lon="3.05573">
        <ele>393.1628413085</ele>
        <time>2021-08-08T18:46:10.701Z</time>
      </trkpt>
      <trkpt lat="44.08426" lon="3.0556">
        <ele>392.93004432927</ele>
        <time>2021-08-08T18:46:24.520Z</time>
      </trkpt>
      <trkpt lat="44.08418" lon="3.05497">
        <ele>392.84704787102</ele>
        <time>2021-08-08T18:46:38.354Z</time>
      </trkpt>
      <trkpt lat="44.08421" lon="3.05459">
        <ele>392.31286951021</ele>
        <time>2021-08-08T18:46:52.197Z</time>
      </trkpt>
      <trkpt lat="44.08431" lon="3.05422">
        <ele>391.41033599408</ele>
        <time>2021-08-08T18:47:06.050Z</time>
      </trkpt>
      <trkpt lat="44.08508" lon="3.05235">
        <ele>390.2501110559</ele>
        <time>2021-08-08T18:47:19.954Z</time>
      </trkpt>
      <trkpt lat="44.08516" lon="3.05208">
        <ele>389.18682821736</ele>
        <time>2021-08-08T18:47:33.865Z</time>
      </trkpt>
      <trkpt lat="44.08527" lon="3.0518">
        <ele>387.91806023944</ele>
        <time>2021-08-08T18:47:47.784Z</time>
      </trkpt>
      <trkpt lat="44.08532" lon="3.05161">
        <ele>386.37391129437</ele>
        <time>2021-08-08T18:48:01.708Z</time>
      </trkpt>
      <trkpt lat="44.08535" lon="3.05141">
        <ele>384.69253820951</ele>
        <time>2021-08-08T18:48:15.637Z</time>
      </trkpt>
      <trkpt lat="44.08534" lon="3.05116">
        <ele>382.95497905484</ele>
        <time>2021-08-08T18:48:29.572Z</time>
      </trkpt>
      <trkpt lat="44.08531" lon="3.05099">
        <ele>381.16704126088</ele>
        <time>2021-08-08T18:48:43.511Z</time>
      </trkpt>
      <trkpt lat="44.08527" lon="3.05086">
        <ele>379.28439790906</ele>
        <time>2021-08-08T18:48:57.454Z</time>
      </trkpt>
      <trkpt lat="44.0852" lon="3.05072">
        <ele>377.32093416815</ele>
        <time>2021-08-08T18:49:11.401Z</time>
      </trkpt>
      <trkpt lat="44.08466" lon="3.04984">
        <ele>375.55253406602</ele>
        <time>2021-08-08T18:49:25.375Z</time>
      </trkpt>
      <trkpt lat="44.08405" lon="3.04823">
        <ele>372.81957343879</ele>
        <time>2021-08-08T18:49:39.393Z</time>
      </trkpt>
      <trkpt lat="44.08391" lon="3.04793">
        <ele>370.5352639712</ele>
        <time>2021-08-08T18:49:53.420Z</time>
      </trkpt>
      <trkpt lat="44.08377" lon="3.04772">
        <ele>368.41156761019</ele>
        <time>2021-08-08T18:50:07.454Z</time>
      </trkpt>
      <trkpt lat="44.08347" lon="3.0474">
        <ele>366.33295597059</ele>
        <time>2021-08-08T18:50:21.500Z</time>
      </trkpt>
      <trkpt lat="44.08315" lon="3.04718">
        <ele>364.28988909626</ele>
        <time>2021-08-08T18:50:35.558Z</time>
      </trkpt>
      <trkpt lat="44.08309" lon="3.04709">
        <ele>362.48225340751</ele>
        <time>2021-08-08T18:50:49.619Z</time>
      </trkpt>
      <trkpt lat="44.08287" lon="3.04693">
        <ele>360.76699887984</ele>
        <time>2021-08-08T18:51:03.688Z</time>
      </trkpt>
      <trkpt lat="44.08274" lon="3.0468">
        <ele>359.27839697384</ele>
        <time>2021-08-08T18:51:17.763Z</time>
      </trkpt>
      <trkpt lat="44.08253" lon="3.04651">
        <ele>358.06137597684</ele>
        <time>2021-08-08T18:51:31.848Z</time>
      </trkpt>
      <trkpt lat="44.08235" lon="3.04611">
        <ele>357.07395347571</ele>
        <time>2021-08-08T18:51:45.944Z</time>
      </trkpt>
      <trkpt lat="44.08232" lon="3.04595">
        <ele>356.37333607031</ele>
        <time>2021-08-08T18:52:00.044Z</time>
      </trkpt>
      <trkpt lat="44.08233" lon="3.04583">
        <ele>355.98441445781</ele>
        <time>2021-08-08T18:52:14.147Z</time>
      </trkpt>
      <trkpt lat="44.08237" lon="3.04574">
        <ele>355.91077486419</ele>
        <time>2021-08-08T18:52:28.252Z</time>
      </trkpt>
      <trkpt lat="44.08238" lon="3.04567">
        <ele>356.17867109558</ele>
        <time>2021-08-08T18:52:42.359Z</time>
      </trkpt>
      <trkpt lat="44.08237" lon="3.04557">
        <ele>356.80370578218</ele>
        <time>2021-08-08T18:52:56.468Z</time>
      </trkpt>
      <trkpt lat="44.08233" lon="3.04548">
        <ele>357.80453800704</ele>
        <time>2021-08-08T18:53:10.580Z</time>
      </trkpt>
      <trkpt lat="44.08227" lon="3.04542">
        <ele>359.18742237309</ele>
        <time>2021-08-08T18:53:24.694Z</time>
      </trkpt>
      <trkpt lat="44.0822" lon="3.04524">
        <ele>360.9817973997</ele>
        <time>2021-08-08T18:53:38.813Z</time>
      </trkpt>
      <trkpt lat="44.08201" lon="3.04392">
        <ele>363.39269786159</ele>
        <time>2021-08-08T18:53:52.965Z</time>
      </trkpt>
      <trkpt lat="44.08194" lon="3.04357">
        <ele>365.9980497771</ele>
        <time>2021-08-08T18:54:07.125Z</time>
      </trkpt>
      <trkpt lat="44.08171" lon="3.04262">
        <ele>369.16434756684</ele>
        <time>2021-08-08T18:54:21.309Z</time>
      </trkpt>
      <trkpt lat="44.08178" lon="3.04252">
        <ele>372.4884695599</ele>
        <time>2021-08-08T18:54:35.497Z</time>
      </trkpt>
      <trkpt lat="44.08179" lon="3.04237">
        <ele>376.21234065208</ele>
        <time>2021-08-08T18:54:49.688Z</time>
      </trkpt>
      <trkpt lat="44.08176" lon="3.04228">
        <ele>380.2996686357</ele>
        <time>2021-08-08T18:55:03.882Z</time>
      </trkpt>
      <trkpt lat="44.08169" lon="3.04221">
        <ele>384.71031032621</ele>
        <time>2021-08-08T18:55:18.079Z</time>
      </trkpt>
      <trkpt lat="44.08163" lon="3.04219">
        <ele>389.43854774502</ele>
        <time>2021-08-08T18:55:32.278Z</time>
      </trkpt>
      <trkpt lat="44.0815" lon="3.04173">
        <ele>394.60130312045</ele>
        <time>2021-08-08T18:55:46.489Z</time>
      </trkpt>
      <trkpt lat="44.08114" lon="3.03888">
        <ele>400.63591022316</ele>
        <time>2021-08-08T18:56:00.769Z</time>
      </trkpt>
      <trkpt lat="44.08095" lon="3.03763">
        <ele>406.73288407017</ele>
        <time>2021-08-08T18:56:15.080Z</time>
      </trkpt>
      <trkpt lat="44.08013" lon="3.03439">
        <ele>413.63861714175</ele>
        <time>2021-08-08T18:56:29.473Z</time>
      </trkpt>
      <trkpt lat="44.08004" lon="3.03399">
        <ele>419.62576121007</ele>
        <time>2021-08-08T18:56:43.876Z</time>
      </trkpt>
      <trkpt lat="44.07987" lon="3.03303">
        <ele>425.87875115836</ele>
        <time>2021-08-08T18:56:58.303Z</time>
      </trkpt>
      <trkpt lat="44.07975" lon="3.03193">
        <ele>432.25141518979</ele>
        <time>2021-08-08T18:57:12.757Z</time>
      </trkpt>
      <trkpt lat="44.07969" lon="3.03091">
        <ele>438.6144540674</ele>
        <time>2021-08-08T18:57:27.236Z</time>
      </trkpt>
      <trkpt lat="44.07969" lon="3.03053">
        <ele>444.66584515274</ele>
        <time>2021-08-08T18:57:41.724Z</time>
      </trkpt>
      <trkpt lat="44.07982" lon="3.02607">
        <ele>452.09162668544</ele>
        <time>2021-08-08T18:57:56.319Z</time>
      </trkpt>
      <trkpt lat="44.07983" lon="3.02514">
        <ele>458.2096831452</ele>
        <time>2021-08-08T18:58:10.936Z</time>
      </trkpt>
      <trkpt lat="44.0798" lon="3.02477">
        <ele>463.88657401289</ele>
        <time>2021-08-08T18:58:25.562Z</time>
      </trkpt>
      <trkpt lat="44.07973" lon="3.02438">
        <ele>469.33194349882</ele>
        <time>2021-08-08T18:58:40.198Z</time>
      </trkpt>
      <trkpt lat="44.07956" lon="3.02373">
        <ele>474.53401372012</ele>
        <time>2021-08-08T18:58:54.850Z</time>
      </trkpt>
      <trkpt lat="44.07929" lon="3.02299">
        <ele>479.35859532851</ele>
        <time>2021-08-08T18:59:09.522Z</time>
      </trkpt>
      <trkpt lat="44.07918" lon="3.02258">
        <ele>483.85026574529</ele>
        <time>2021-08-08T18:59:24.205Z</time>
      </trkpt>
      <trkpt lat="44.07913" lon="3.02224">
        <ele>488.11714598873</ele>
        <time>2021-08-08T18:59:38.896Z</time>
      </trkpt>
      <trkpt lat="44.07916" lon="3.02179">
        <ele>492.08052350738</ele>
        <time>2021-08-08T18:59:53.598Z</time>
      </trkpt>
      <trkpt lat="44.07919" lon="3.02176">
        <ele>495.82805052418</ele>
        <time>2021-08-08T19:00:08.301Z</time>
      </trkpt>
      <trkpt lat="44.07922" lon="3.02165">
        <ele>499.32060231537</ele>
        <time>2021-08-08T19:00:23.007Z</time>
      </trkpt>
      <trkpt lat="44.0792" lon="3.02149">
        <ele>502.56432887548</ele>
        <time>2021-08-08T19:00:37.717Z</time>
      </trkpt>
      <trkpt lat="44.07914" lon="3.0214">
        <ele>505.56092805928</ele>
        <time>2021-08-08T19:00:52.430Z</time>
      </trkpt>
      <trkpt lat="44.07905" lon="3.02134">
        <ele>508.32713313139</ele>
        <time>2021-08-08T19:01:07.146Z</time>
      </trkpt>
      <trkpt lat="44.07898" lon="3.02127">
        <ele>510.84221185702</ele>
        <time>2021-08-08T19:01:21.865Z</time>
      </trkpt>
      <trkpt lat="44.07887" lon="3.02105">
        <ele>513.12042423133</ele>
        <time>2021-08-08T19:01:36.591Z</time>
      </trkpt>
      <trkpt lat="44.0787" lon="3.02055">
        <ele>515.22795238774</ele>
        <time>2021-08-08T19:01:51.330Z</time>
      </trkpt>
      <trkpt lat="44.0786" lon="3.02015">
        <ele>517.09492226541</ele>
        <time>2021-08-08T19:02:06.079Z</time>
      </trkpt>
      <trkpt lat="44.07856" lon="3.01979">
        <ele>518.75707046161</ele>
        <time>2021-08-08T19:02:20.837Z</time>
      </trkpt>
      <trkpt lat="44.07853" lon="3.01874">
        <ele>520.24022797016</ele>
        <time>2021-08-08T19:02:35.620Z</time>
      </trkpt>
      <trkpt lat="44.07848" lon="3.01802">
        <ele>521.3853454272</ele>
        <time>2021-08-08T19:02:50.421Z</time>
      </trkpt>
      <trkpt lat="44.07808" lon="3.01521">
        <ele>522.4548088712</ele>
        <time>2021-08-08T19:03:05.290Z</time>
      </trkpt>
      <trkpt lat="44.07802" lon="3.01467">
        <ele>523.12291368481</ele>
        <time>2021-08-08T19:03:20.172Z</time>
      </trkpt>
      <trkpt lat="44.07801" lon="3.01423">
        <ele>523.54087309938</ele>
        <time>2021-08-08T19:03:35.065Z</time>
      </trkpt>
      <trkpt lat="44.07803" lon="3.0139">
        <ele>523.7424525555</ele>
        <time>2021-08-08T19:03:49.966Z</time>
      </trkpt>
      <trkpt lat="44.07809" lon="3.01345">
        <ele>523.68215256697</ele>
        <time>2021-08-08T19:04:04.878Z</time>
      </trkpt>
      <trkpt lat="44.07842" lon="3.01155">
        <ele>523.46720357022</ele>
        <time>2021-08-08T19:04:19.837Z</time>
      </trkpt>
      <trkpt lat="44.07859" lon="3.01066">
        <ele>522.61539138465</ele>
        <time>2021-08-08T19:04:34.818Z</time>
      </trkpt>
      <trkpt lat="44.07863" lon="3.01051">
        <ele>521.77580687957</ele>
        <time>2021-08-08T19:04:49.803Z</time>
      </trkpt>
      <trkpt lat="44.07877" lon="3.01016">
        <ele>520.67170793941</ele>
        <time>2021-08-08T19:05:04.798Z</time>
      </trkpt>
      <trkpt lat="44.07918" lon="3.0094">
        <ele>519.24691054361</ele>
        <time>2021-08-08T19:05:19.815Z</time>
      </trkpt>
      <trkpt lat="44.0793" lon="3.00912">
        <ele>517.51017489103</ele>
        <time>2021-08-08T19:05:34.840Z</time>
      </trkpt>
      <trkpt lat="44.07941" lon="3.00864">
        <ele>515.33245880276</ele>
        <time>2021-08-08T19:05:49.877Z</time>
      </trkpt>
      <trkpt lat="44.07943" lon="3.00832">
        <ele>512.93007202685</ele>
        <time>2021-08-08T19:06:04.922Z</time>
      </trkpt>
      <trkpt lat="44.07942" lon="3.00814">
        <ele>510.23997447771</ele>
        <time>2021-08-08T19:06:19.971Z</time>
      </trkpt>
      <trkpt lat="44.07932" lon="3.00717">
        <ele>503.9497545966</ele>
        <time>2021-08-08T19:06:35.044Z</time>
      </trkpt>
      <trkpt lat="44.07932" lon="3.00684">
        <ele>500.35105420763</ele>
        <time>2021-08-08T19:06:50.125Z</time>
      </trkpt>
      <trkpt lat="44.07935" lon="3.00658">
        <ele>496.49216152668</ele>
        <time>2021-08-08T19:07:05.212Z</time>
      </trkpt>
      <trkpt lat="44.07948" lon="3.00617">
        <ele>492.31106581826</ele>
        <time>2021-08-08T19:07:20.310Z</time>
      </trkpt>
      <trkpt lat="44.07987" lon="3.00533">
        <ele>487.58629349078</ele>
        <time>2021-08-08T19:07:35.432Z</time>
      </trkpt>
      <trkpt lat="44.07995" lon="3.00512">
        <ele>482.77866516641</ele>
        <time>2021-08-08T19:07:50.560Z</time>
      </trkpt>
      <trkpt lat="44.08004" lon="3.0048">
        <ele>477.47340016784</ele>
        <time>2021-08-08T19:08:05.696Z</time>
      </trkpt>
      <trkpt lat="44.08009" lon="3.00452">
        <ele>471.9451660575</ele>
        <time>2021-08-08T19:08:20.839Z</time>
      </trkpt>
      <trkpt lat="44.08012" lon="3.00387">
        <ele>466.04397011216</ele>
        <time>2021-08-08T19:08:35.997Z</time>
      </trkpt>
      <trkpt lat="44.08006" lon="2.99989">
        <ele>459.14294557206</ele>
        <time>2021-08-08T19:08:51.251Z</time>
      </trkpt>
      <trkpt lat="44.07999" lon="2.99929">
        <ele>452.92806616722</ele>
        <time>2021-08-08T19:09:06.520Z</time>
      </trkpt>
      <trkpt lat="44.07885" lon="2.99405">
        <ele>445.45453971349</ele>
        <time>2021-08-08T19:09:21.920Z</time>
      </trkpt>
      <trkpt lat="44.07875" lon="2.9937">
        <ele>439.2263547402</ele>
        <time>2021-08-08T19:09:37.329Z</time>
      </trkpt>
      <trkpt lat="44.07862" lon="2.99334">
        <ele>432.99970872113</ele>
        <time>2021-08-08T19:09:52.748Z</time>
      </trkpt>
      <trkpt lat="44.0783" lon="2.99273">
        <ele>426.64084112779</ele>
        <time>2021-08-08T19:10:08.185Z</time>
      </trkpt>
      <trkpt lat="44.07714" lon="2.99111">
        <ele>419.88243221914</ele>
        <time>2021-08-08T19:10:23.677Z</time>
      </trkpt>
      <trkpt lat="44.07669" lon="2.99052">
        <ele>413.70946366895</ele>
        <time>2021-08-08T19:10:39.190Z</time>
      </trkpt>
      <trkpt lat="44.07643" lon="2.99024">
        <ele>407.74925281869</ele>
        <time>2021-08-08T19:10:54.714Z</time>
      </trkpt>
      <trkpt lat="44.07616" lon="2.99006">
        <ele>402.00781213332</ele>
        <time>2021-08-08T19:11:10.248Z</time>
      </trkpt>
      <trkpt lat="44.07583" lon="2.98989">
        <ele>396.26194744181</ele>
        <time>2021-08-08T19:11:25.793Z</time>
      </trkpt>
      <trkpt lat="44.0754" lon="2.98973">
        <ele>390.73057752975</ele>
        <time>2021-08-08T19:11:41.353Z</time>
      </trkpt>
      <trkpt lat="44.07522" lon="2.98969">
        <ele>385.66628475718</ele>
        <time>2021-08-08T19:11:56.919Z</time>
      </trkpt>
      <trkpt lat="44.07426" lon="2.9894">
        <ele>380.64389747581</ele>
        <time>2021-08-08T19:12:12.518Z</time>
      </trkpt>
      <trkpt lat="44.07382" lon="2.98925">
        <ele>376.12573935638</ele>
        <time>2021-08-08T19:12:28.132Z</time>
      </trkpt>
      <trkpt lat="44.07351" lon="2.98911">
        <ele>371.91824234873</ele>
        <time>2021-08-08T19:12:43.757Z</time>
      </trkpt>
      <trkpt lat="44.07315" lon="2.98891">
        <ele>368.0152052085</ele>
        <time>2021-08-08T19:12:59.395Z</time>
      </trkpt>
      <trkpt lat="44.0722" lon="2.98815">
        <ele>364.1441940339</ele>
        <time>2021-08-08T19:13:15.069Z</time>
      </trkpt>
      <trkpt lat="44.07085" lon="2.987">
        <ele>360.26573193242</ele>
        <time>2021-08-08T19:13:30.796Z</time>
      </trkpt>
      <trkpt lat="44.07065" lon="2.98684">
        <ele>357.30933152558</ele>
        <time>2021-08-08T19:13:46.531Z</time>
      </trkpt>
      <trkpt lat="44.07049" lon="2.98675">
        <ele>354.74326380436</ele>
        <time>2021-08-08T19:14:02.272Z</time>
      </trkpt>
      <trkpt lat="44.07025" lon="2.98666">
        <ele>352.5612666556</ele>
        <time>2021-08-08T19:14:18.021Z</time>
      </trkpt>
      <trkpt lat="44.07017" lon="2.98659">
        <ele>350.70359670123</ele>
        <time>2021-08-08T19:14:33.773Z</time>
      </trkpt>
      <trkpt lat="44.06907" lon="2.98626">
        <ele>349.15887281925</ele>
        <time>2021-08-08T19:14:49.563Z</time>
      </trkpt>
      <trkpt lat="44.06812" lon="2.98606">
        <ele>348.00536128586</ele>
        <time>2021-08-08T19:15:05.385Z</time>
      </trkpt>
      <trkpt lat="44.06802" lon="2.98606">
        <ele>347.13633019797</ele>
        <time>2021-08-08T19:15:21.210Z</time>
      </trkpt>
      <trkpt lat="44.0666" lon="2.98567">
        <ele>346.48868875104</ele>
        <time>2021-08-08T19:15:37.083Z</time>
      </trkpt>
      <trkpt lat="44.06544" lon="2.98533">
        <ele>346.24906440826</ele>
        <time>2021-08-08T19:15:52.996Z</time>
      </trkpt>
      <trkpt lat="44.06417" lon="2.985">
        <ele>346.30726234448</ele>
        <time>2021-08-08T19:16:08.952Z</time>
      </trkpt>
      <trkpt lat="44.06408" lon="2.98494">
        <ele>346.44694775467</ele>
        <time>2021-08-08T19:16:24.911Z</time>
      </trkpt>
      <trkpt lat="44.06401" lon="2.98482">
        <ele>346.75598597114</ele>
        <time>2021-08-08T19:16:40.874Z</time>
      </trkpt>
      <trkpt lat="44.06398" lon="2.98472">
        <ele>347.25937550787</ele>
        <time>2021-08-08T19:16:56.840Z</time>
      </trkpt>
      <trkpt lat="44.06402" lon="2.98392">
        <ele>347.91943460799</ele>
        <time>2021-08-08T19:17:12.825Z</time>
      </trkpt>
      <trkpt lat="44.06401" lon="2.98372">
        <ele>348.87783122529</ele>
        <time>2021-08-08T19:17:28.815Z</time>
      </trkpt>
      <trkpt lat="44.064" lon="2.98365">
        <ele>349.93010318027</ele>
        <time>2021-08-08T19:17:44.806Z</time>
      </trkpt>
      <trkpt lat="44.06394" lon="2.98352">
        <ele>351.11923696025</ele>
        <time>2021-08-08T19:18:00.801Z</time>
      </trkpt>
      <trkpt lat="44.06382" lon="2.9834">
        <ele>352.40140925384</ele>
        <time>2021-08-08T19:18:16.801Z</time>
      </trkpt>
      <trkpt lat="44.06324" lon="2.98314">
        <ele>353.877510321</ele>
        <time>2021-08-08T19:18:32.821Z</time>
      </trkpt>
      <trkpt lat="44.06264" lon="2.98293">
        <ele>355.32911040546</ele>
        <time>2021-08-08T19:18:48.862Z</time>
      </trkpt>
      <trkpt lat="44.06243" lon="2.98284">
        <ele>356.75551287189</ele>
        <time>2021-08-08T19:19:04.910Z</time>
      </trkpt>
      <trkpt lat="44.06203" lon="2.98264">
        <ele>358.23495599649</ele>
        <time>2021-08-08T19:19:20.972Z</time>
      </trkpt>
      <trkpt lat="44.0614" lon="2.98228">
        <ele>359.84948235023</ele>
        <time>2021-08-08T19:19:37.057Z</time>
      </trkpt>
      <trkpt lat="44.06086" lon="2.98203">
        <ele>361.40331958854</ele>
        <time>2021-08-08T19:19:53.161Z</time>
      </trkpt>
      <trkpt lat="44.06047" lon="2.98198">
        <ele>362.79773561768</ele>
        <time>2021-08-08T19:20:09.278Z</time>
      </trkpt>
      <trkpt lat="44.05891" lon="2.982">
        <ele>364.31611630058</ele>
        <time>2021-08-08T19:20:25.447Z</time>
      </trkpt>
      <trkpt lat="44.05871" lon="2.98198">
        <ele>365.64895282328</ele>
        <time>2021-08-08T19:20:41.623Z</time>
      </trkpt>
      <trkpt lat="44.05844" lon="2.98188">
        <ele>366.9064044545</ele>
        <time>2021-08-08T19:20:57.808Z</time>
      </trkpt>
      <trkpt lat="44.05823" lon="2.98175">
        <ele>368.09722811433</ele>
        <time>2021-08-08T19:21:14.001Z</time>
      </trkpt>
      <trkpt lat="44.05807" lon="2.98162">
        <ele>369.22210500474</ele>
        <time>2021-08-08T19:21:30.200Z</time>
      </trkpt>
      <trkpt lat="44.05787" lon="2.98141">
        <ele>370.30587738322</ele>
        <time>2021-08-08T19:21:46.407Z</time>
      </trkpt>
      <trkpt lat="44.05676" lon="2.98011">
        <ele>371.4266015857</ele>
        <time>2021-08-08T19:22:02.663Z</time>
      </trkpt>
      <trkpt lat="44.05661" lon="2.97997">
        <ele>372.40712688829</ele>
        <time>2021-08-08T19:22:18.925Z</time>
      </trkpt>
      <trkpt lat="44.05646" lon="2.97984">
        <ele>373.31259097177</ele>
        <time>2021-08-08T19:22:35.193Z</time>
      </trkpt>
      <trkpt lat="44.05631" lon="2.97974">
        <ele>374.12195501038</ele>
        <time>2021-08-08T19:22:51.466Z</time>
      </trkpt>
      <trkpt lat="44.05607" lon="2.97962">
        <ele>374.82960667816</ele>
        <time>2021-08-08T19:23:07.748Z</time>
      </trkpt>
      <trkpt lat="44.05584" lon="2.97954">
        <ele>375.54501877085</ele>
        <time>2021-08-08T19:23:24.038Z</time>
      </trkpt>
      <trkpt lat="44.0556" lon="2.97949">
        <ele>376.16658326697</ele>
        <time>2021-08-08T19:23:40.336Z</time>
      </trkpt>
      <trkpt lat="44.05529" lon="2.97946">
        <ele>376.71619413797</ele>
        <time>2021-08-08T19:23:56.644Z</time>
      </trkpt>
      <trkpt lat="44.05426" lon="2.97942">
        <ele>377.63011594989</ele>
        <time>2021-08-08T19:24:12.986Z</time>
      </trkpt>
      <trkpt lat="44.05389" lon="2.97942">
        <ele>378.17532680536</ele>
        <time>2021-08-08T19:24:29.341Z</time>
      </trkpt>
      <trkpt lat="44.05359" lon="2.97945">
        <ele>378.57334761345</ele>
        <time>2021-08-08T19:24:45.706Z</time>
      </trkpt>
      <trkpt lat="44.05319" lon="2.97954">
        <ele>378.81094777417</ele>
        <time>2021-08-08T19:25:02.084Z</time>
      </trkpt>
      <trkpt lat="44.05271" lon="2.97962">
        <ele>379.00351797625</ele>
        <time>2021-08-08T19:25:18.478Z</time>
      </trkpt>
      <trkpt lat="44.05249" lon="2.97962">
        <ele>379.06987459051</ele>
        <time>2021-08-08T19:25:34.880Z</time>
      </trkpt>
      <trkpt lat="44.05219" lon="2.97956">
        <ele>379.14326447594</ele>
        <time>2021-08-08T19:25:51.292Z</time>
      </trkpt>
      <trkpt lat="44.05199" lon="2.9795">
        <ele>379.28751572044</ele>
        <time>2021-08-08T19:26:07.711Z</time>
      </trkpt>
      <trkpt lat="44.05186" lon="2.97944">
        <ele>379.38848803908</ele>
        <time>2021-08-08T19:26:24.134Z</time>
      </trkpt>
      <trkpt lat="44.05163" lon="2.9793">
        <ele>379.43689575279</ele>
        <time>2021-08-08T19:26:40.566Z</time>
      </trkpt>
      <trkpt lat="44.05036" lon="2.97837">
        <ele>379.51609886285</ele>
        <time>2021-08-08T19:26:57.046Z</time>
      </trkpt>
      <trkpt lat="44.05005" lon="2.97817">
        <ele>379.62547448897</ele>
        <time>2021-08-08T19:27:13.537Z</time>
      </trkpt>
      <trkpt lat="44.04845" lon="2.97734">
        <ele>379.70253037023</ele>
        <time>2021-08-08T19:27:30.085Z</time>
      </trkpt>
      <trkpt lat="44.04648" lon="2.97612">
        <ele>379.83599551348</ele>
        <time>2021-08-08T19:27:46.705Z</time>
      </trkpt>
      <trkpt lat="44.0463" lon="2.97599">
        <ele>379.92146489042</ele>
        <time>2021-08-08T19:28:03.332Z</time>
      </trkpt>
      <trkpt lat="44.04612" lon="2.97583">
        <ele>380.03055045162</ele>
        <time>2021-08-08T19:28:19.966Z</time>
      </trkpt>
      <trkpt lat="44.04589" lon="2.97556">
        <ele>380.16940443182</ele>
        <time>2021-08-08T19:28:36.610Z</time>
      </trkpt>
      <trkpt lat="44.04572" lon="2.97531">
        <ele>380.35504409895</ele>
        <time>2021-08-08T19:28:53.262Z</time>
      </trkpt>
      <trkpt lat="44.04558" lon="2.97506">
        <ele>380.57301349194</ele>
        <time>2021-08-08T19:29:09.922Z</time>
      </trkpt>
      <trkpt lat="44.04541" lon="2.97466">
        <ele>380.72397648837</ele>
        <time>2021-08-08T19:29:26.593Z</time>
      </trkpt>
      <trkpt lat="44.04525" lon="2.97408">
        <ele>380.95458244005</ele>
        <time>2021-08-08T19:29:43.279Z</time>
      </trkpt>
      <trkpt lat="44.04518" lon="2.97352">
        <ele>381.33486809575</ele>
        <time>2021-08-08T19:29:59.978Z</time>
      </trkpt>
      <trkpt lat="44.04507" lon="2.97225">
        <ele>381.70892785261</ele>
        <time>2021-08-08T19:30:16.708Z</time>
      </trkpt>
      <trkpt lat="44.04497" lon="2.97154">
        <ele>381.98349426184</ele>
        <time>2021-08-08T19:30:33.456Z</time>
      </trkpt>
      <trkpt lat="44.04491" lon="2.9712">
        <ele>382.29444387006</ele>
        <time>2021-08-08T19:30:50.212Z</time>
      </trkpt>
      <trkpt lat="44.04483" lon="2.97087">
        <ele>382.63322747088</ele>
        <time>2021-08-08T19:31:06.976Z</time>
      </trkpt>
      <trkpt lat="44.04471" lon="2.97048">
        <ele>382.84576902587</ele>
        <time>2021-08-08T19:31:23.751Z</time>
      </trkpt>
      <trkpt lat="44.04454" lon="2.97007">
        <ele>383.04547010158</ele>
        <time>2021-08-08T19:31:40.537Z</time>
      </trkpt>
      <trkpt lat="44.04434" lon="2.96969">
        <ele>383.33288117876</ele>
        <time>2021-08-08T19:31:57.334Z</time>
      </trkpt>
      <trkpt lat="44.04409" lon="2.96931">
        <ele>383.70321132698</ele>
        <time>2021-08-08T19:32:14.144Z</time>
      </trkpt>
      <trkpt lat="44.0439" lon="2.96908">
        <ele>384.05880965185</ele>
        <time>2021-08-08T19:32:30.962Z</time>
      </trkpt>
      <trkpt lat="44.04353" lon="2.96868">
        <ele>384.45452615058</ele>
        <time>2021-08-08T19:32:47.796Z</time>
      </trkpt>
      <trkpt lat="44.04328" lon="2.96847">
        <ele>384.89885603511</ele>
        <time>2021-08-08T19:33:04.639Z</time>
      </trkpt>
      <trkpt lat="44.04314" lon="2.96839">
        <ele>385.31006756528</ele>
        <time>2021-08-08T19:33:21.487Z</time>
      </trkpt>
      <trkpt lat="44.04239" lon="2.96805">
        <ele>385.63943171838</ele>
        <time>2021-08-08T19:33:38.362Z</time>
      </trkpt>
      <trkpt lat="44.04208" lon="2.96788">
        <ele>386.13401866833</ele>
        <time>2021-08-08T19:33:55.248Z</time>
      </trkpt>
      <trkpt lat="44.0417" lon="2.96765">
        <ele>386.61630345449</ele>
        <time>2021-08-08T19:34:12.148Z</time>
      </trkpt>
      <trkpt lat="44.04127" lon="2.96736">
        <ele>387.10031288376</ele>
        <time>2021-08-08T19:34:29.064Z</time>
      </trkpt>
      <trkpt lat="44.04098" lon="2.96713">
        <ele>387.63748252691</ele>
        <time>2021-08-08T19:34:45.991Z</time>
      </trkpt>
      <trkpt lat="44.04079" lon="2.96695">
        <ele>388.21856049384</ele>
        <time>2021-08-08T19:35:02.925Z</time>
      </trkpt>
      <trkpt lat="44.04042" lon="2.96658">
        <ele>388.89684525284</ele>
        <time>2021-08-08T19:35:19.875Z</time>
      </trkpt>
      <trkpt lat="44.03985" lon="2.96596">
        <ele>389.76931029295</ele>
        <time>2021-08-08T19:35:36.849Z</time>
      </trkpt>
      <trkpt lat="44.03967" lon="2.96579">
        <ele>390.52529649349</ele>
        <time>2021-08-08T19:35:53.830Z</time>
      </trkpt>
      <trkpt lat="44.03936" lon="2.96554">
        <ele>391.28786148286</ele>
        <time>2021-08-08T19:36:10.823Z</time>
      </trkpt>
      <trkpt lat="44.03782" lon="2.96446">
        <ele>391.76887888827</ele>
        <time>2021-08-08T19:36:27.873Z</time>
      </trkpt>
      <trkpt lat="44.0376" lon="2.96428">
        <ele>392.58588499938</ele>
        <time>2021-08-08T19:36:44.932Z</time>
      </trkpt>
      <trkpt lat="44.0375" lon="2.96419">
        <ele>393.41823513548</ele>
        <time>2021-08-08T19:37:01.995Z</time>
      </trkpt>
      <trkpt lat="44.03724" lon="2.96389">
        <ele>394.27981977122</ele>
        <time>2021-08-08T19:37:19.069Z</time>
      </trkpt>
      <trkpt lat="44.03707" lon="2.96364">
        <ele>395.18554898564</ele>
        <time>2021-08-08T19:37:36.152Z</time>
      </trkpt>
      <trkpt lat="44.03652" lon="2.96271">
        <ele>396.3342686333</ele>
        <time>2021-08-08T19:37:53.263Z</time>
      </trkpt>
      <trkpt lat="44.03632" lon="2.96244">
        <ele>397.38261701544</ele>
        <time>2021-08-08T19:38:10.384Z</time>
      </trkpt>
      <trkpt lat="44.03613" lon="2.96224">
        <ele>398.41759020174</ele>
        <time>2021-08-08T19:38:27.513Z</time>
      </trkpt>
      <trkpt lat="44.03593" lon="2.96208">
        <ele>399.48450862068</ele>
        <time>2021-08-08T19:38:44.649Z</time>
      </trkpt>
      <trkpt lat="44.03571" lon="2.96194">
        <ele>400.52120013972</ele>
        <time>2021-08-08T19:39:01.793Z</time>
      </trkpt>
      <trkpt lat="44.03547" lon="2.96183">
        <ele>401.47105919537</ele>
        <time>2021-08-08T19:39:18.946Z</time>
      </trkpt>
      <trkpt lat="44.03511" lon="2.96174">
        <ele>402.36559262218</ele>
        <time>2021-08-08T19:39:36.111Z</time>
      </trkpt>
      <trkpt lat="44.0348" lon="2.96171">
        <ele>403.2316379611</ele>
        <time>2021-08-08T19:39:53.286Z</time>
      </trkpt>
      <trkpt lat="44.03399" lon="2.96174">
        <ele>404.02876875199</ele>
        <time>2021-08-08T19:40:10.488Z</time>
      </trkpt>
      <trkpt lat="44.03359" lon="2.96178">
        <ele>404.76839952118</ele>
        <time>2021-08-08T19:40:27.704Z</time>
      </trkpt>
      <trkpt lat="44.03328" lon="2.96184">
        <ele>405.50583145927</ele>
        <time>2021-08-08T19:40:44.930Z</time>
      </trkpt>
      <trkpt lat="44.03279" lon="2.962">
        <ele>406.07255837983</ele>
        <time>2021-08-08T19:41:02.173Z</time>
      </trkpt>
      <trkpt lat="44.03236" lon="2.96223">
        <ele>406.39806074676</ele>
        <time>2021-08-08T19:41:19.431Z</time>
      </trkpt>
      <trkpt lat="44.03226" lon="2.9623">
        <ele>406.81076476899</ele>
        <time>2021-08-08T19:41:36.693Z</time>
      </trkpt>
      <trkpt lat="44.03197" lon="2.96252">
        <ele>407.09813806185</ele>
        <time>2021-08-08T19:41:53.966Z</time>
      </trkpt>
      <trkpt lat="44.03174" lon="2.96274">
        <ele>407.56486796549</ele>
        <time>2021-08-08T19:42:11.248Z</time>
      </trkpt>
      <trkpt lat="44.03145" lon="2.96306">
        <ele>408.03172430659</ele>
        <time>2021-08-08T19:42:28.543Z</time>
      </trkpt>
      <trkpt lat="44.03077" lon="2.96399">
        <ele>407.87780196088</ele>
        <time>2021-08-08T19:42:45.870Z</time>
      </trkpt>
      <trkpt lat="44.03047" lon="2.96432">
        <ele>407.86668288448</ele>
        <time>2021-08-08T19:43:03.209Z</time>
      </trkpt>
      <trkpt lat="44.03019" lon="2.96453">
        <ele>407.89288852576</ele>
        <time>2021-08-08T19:43:20.559Z</time>
      </trkpt>
      <trkpt lat="44.0301" lon="2.96458">
        <ele>407.97247762847</ele>
        <time>2021-08-08T19:43:37.912Z</time>
      </trkpt>
      <trkpt lat="44.02995" lon="2.96465">
        <ele>408.0317671735</ele>
        <time>2021-08-08T19:43:55.271Z</time>
      </trkpt>
      <trkpt lat="44.0297" lon="2.96473">
        <ele>408.03970993918</ele>
        <time>2021-08-08T19:44:12.638Z</time>
      </trkpt>
      <trkpt lat="44.02941" lon="2.96479">
        <ele>408.02741735358</ele>
        <time>2021-08-08T19:44:30.015Z</time>
      </trkpt>
      <trkpt lat="44.02905" lon="2.96478">
        <ele>408.24527917073</ele>
        <time>2021-08-08T19:44:47.404Z</time>
      </trkpt>
      <trkpt lat="44.02846" lon="2.96473">
        <ele>408.40189605968</ele>
        <time>2021-08-08T19:45:04.813Z</time>
      </trkpt>
      <trkpt lat="44.02833" lon="2.96474">
        <ele>408.38031808067</ele>
        <time>2021-08-08T19:45:22.226Z</time>
      </trkpt>
      <trkpt lat="44.02807" lon="2.96479">
        <ele>408.29889674163</ele>
        <time>2021-08-08T19:45:39.648Z</time>
      </trkpt>
      <trkpt lat="44.02749" lon="2.96499">
        <ele>407.86460769516</ele>
        <time>2021-08-08T19:45:57.090Z</time>
      </trkpt>
      <trkpt lat="44.02732" lon="2.96503">
        <ele>407.61116365483</ele>
        <time>2021-08-08T19:46:14.537Z</time>
      </trkpt>
      <trkpt lat="44.02698" lon="2.96504">
        <ele>407.3795616397</ele>
        <time>2021-08-08T19:46:31.996Z</time>
      </trkpt>
      <trkpt lat="44.02309" lon="2.96433">
        <ele>407.5531775307</ele>
        <time>2021-08-08T19:46:49.585Z</time>
      </trkpt>
      <trkpt lat="44.02264" lon="2.96429">
        <ele>407.37024622975</ele>
        <time>2021-08-08T19:47:07.189Z</time>
      </trkpt>
      <trkpt lat="44.02234" lon="2.96429">
        <ele>407.17844149153</ele>
        <time>2021-08-08T19:47:24.804Z</time>
      </trkpt>
      <trkpt lat="44.02183" lon="2.96435">
        <ele>406.98419670552</ele>
        <time>2021-08-08T19:47:42.436Z</time>
      </trkpt>
      <trkpt lat="44.02141" lon="2.96446">
        <ele>406.86836541005</ele>
        <time>2021-08-08T19:48:00.082Z</time>
      </trkpt>
      <trkpt lat="44.02095" lon="2.96463">
        <ele>406.57562734187</ele>
        <time>2021-08-08T19:48:17.744Z</time>
      </trkpt>
      <trkpt lat="44.02028" lon="2.96495">
        <ele>406.2961113373</ele>
        <time>2021-08-08T19:48:35.429Z</time>
      </trkpt>
      <trkpt lat="44.01844" lon="2.96592">
        <ele>405.35114816341</ele>
        <time>2021-08-08T19:48:53.180Z</time>
      </trkpt>
      <trkpt lat="44.01813" lon="2.96613">
        <ele>405.12026384724</ele>
        <time>2021-08-08T19:49:10.942Z</time>
      </trkpt>
      <trkpt lat="44.01748" lon="2.96665">
        <ele>404.42900835715</ele>
        <time>2021-08-08T19:49:28.729Z</time>
      </trkpt>
      <trkpt lat="44.01731" lon="2.96676">
        <ele>403.88897806951</ele>
        <time>2021-08-08T19:49:46.523Z</time>
      </trkpt>
      <trkpt lat="44.01719" lon="2.96682">
        <ele>403.42412745169</ele>
        <time>2021-08-08T19:50:04.321Z</time>
      </trkpt>
      <trkpt lat="44.01699" lon="2.96688">
        <ele>402.97854740466</ele>
        <time>2021-08-08T19:50:22.126Z</time>
      </trkpt>
      <trkpt lat="44.01678" lon="2.96691">
        <ele>402.49393555759</ele>
        <time>2021-08-08T19:50:39.938Z</time>
      </trkpt>
      <trkpt lat="44.01647" lon="2.9669">
        <ele>401.99384038973</ele>
        <time>2021-08-08T19:50:57.760Z</time>
      </trkpt>
      <trkpt lat="44.01632" lon="2.96686">
        <ele>401.59224601779</ele>
        <time>2021-08-08T19:51:15.587Z</time>
      </trkpt>
      <trkpt lat="44.01603" lon="2.96674">
        <ele>401.24193101028</ele>
        <time>2021-08-08T19:51:33.424Z</time>
      </trkpt>
      <trkpt lat="44.01484" lon="2.96608">
        <ele>401.10910286008</ele>
        <time>2021-08-08T19:51:51.304Z</time>
      </trkpt>
      <trkpt lat="44.01293" lon="2.96506">
        <ele>400.77862302072</ele>
        <time>2021-08-08T19:52:09.252Z</time>
      </trkpt>
      <trkpt lat="44.01286" lon="2.96502">
        <ele>400.59859506512</ele>
        <time>2021-08-08T19:52:27.203Z</time>
      </trkpt>
      <trkpt lat="44.01282" lon="2.96497">
        <ele>400.48506656108</ele>
        <time>2021-08-08T19:52:45.156Z</time>
      </trkpt>
      <trkpt lat="44.01264" lon="2.96487">
        <ele>400.42846764099</ele>
        <time>2021-08-08T19:53:03.115Z</time>
      </trkpt>
      <trkpt lat="44.01248" lon="2.96482">
        <ele>400.4303418932</ele>
        <time>2021-08-08T19:53:21.080Z</time>
      </trkpt>
      <trkpt lat="44.01232" lon="2.96473">
        <ele>400.53223587784</ele>
        <time>2021-08-08T19:53:39.050Z</time>
      </trkpt>
      <trkpt lat="44.01225" lon="2.96466">
        <ele>400.70864227204</ele>
        <time>2021-08-08T19:53:57.023Z</time>
      </trkpt>
      <trkpt lat="44.01218" lon="2.96451">
        <ele>400.96840284046</ele>
        <time>2021-08-08T19:54:15.000Z</time>
      </trkpt>
      <trkpt lat="44.01217" lon="2.96446">
        <ele>401.31922049442</ele>
        <time>2021-08-08T19:54:32.979Z</time>
      </trkpt>
      <trkpt lat="44.01218" lon="2.96422">
        <ele>401.81014025978</ele>
        <time>2021-08-08T19:54:50.964Z</time>
      </trkpt>
      <trkpt lat="44.01215" lon="2.96411">
        <ele>402.35009072001</ele>
        <time>2021-08-08T19:55:08.951Z</time>
      </trkpt>
      <trkpt lat="44.01156" lon="2.96337">
        <ele>403.15625639733</ele>
        <time>2021-08-08T19:55:26.965Z</time>
      </trkpt>
      <trkpt lat="44.01142" lon="2.96326">
        <ele>404.03538721493</ele>
        <time>2021-08-08T19:55:44.984Z</time>
      </trkpt>
      <trkpt lat="44.01123" lon="2.96322">
        <ele>404.88249440925</ele>
        <time>2021-08-08T19:56:03.010Z</time>
      </trkpt>
      <trkpt lat="44.0108" lon="2.96322">
        <ele>405.75343105846</ele>
        <time>2021-08-08T19:56:21.050Z</time>
      </trkpt>
      <trkpt lat="44.01074" lon="2.9632">
        <ele>406.74028517596</ele>
        <time>2021-08-08T19:56:39.092Z</time>
      </trkpt>
      <trkpt lat="44.0105" lon="2.96319">
        <ele>407.80876403426</ele>
        <time>2021-08-08T19:56:57.142Z</time>
      </trkpt>
      <trkpt lat="44.00993" lon="2.96324">
        <ele>408.74976667801</ele>
        <time>2021-08-08T19:57:15.211Z</time>
      </trkpt>
      <trkpt lat="44.00939" lon="2.96334">
        <ele>409.99328713997</ele>
        <time>2021-08-08T19:57:33.298Z</time>
      </trkpt>
      <trkpt lat="44.00936" lon="2.96328">
        <ele>411.37636722354</ele>
        <time>2021-08-08T19:57:51.387Z</time>
      </trkpt>
      <trkpt lat="44.0093" lon="2.96323">
        <ele>412.8776095263</ele>
        <time>2021-08-08T19:58:09.478Z</time>
      </trkpt>
      <trkpt lat="44.009" lon="2.96325">
        <ele>414.46501236662</ele>
        <time>2021-08-08T19:58:27.579Z</time>
      </trkpt>
      <trkpt lat="44.00851" lon="2.96314">
        <ele>416.37211193815</ele>
        <time>2021-08-08T19:58:45.697Z</time>
      </trkpt>
      <trkpt lat="44.00826" lon="2.96313">
        <ele>418.23085277568</ele>
        <time>2021-08-08T19:59:03.823Z</time>
      </trkpt>
      <trkpt lat="44.00801" lon="2.96319">
        <ele>420.04300384429</ele>
        <time>2021-08-08T19:59:21.958Z</time>
      </trkpt>
      <trkpt lat="44.00656" lon="2.96367">
        <ele>421.67200558071</ele>
        <time>2021-08-08T19:59:40.142Z</time>
      </trkpt>
      <trkpt lat="44.00613" lon="2.96376">
        <ele>423.51197281587</ele>
        <time>2021-08-08T19:59:58.341Z</time>
      </trkpt>
      <trkpt lat="44.00587" lon="2.96379">
        <ele>425.36561651607</ele>
        <time>2021-08-08T20:00:16.549Z</time>
      </trkpt>
      <trkpt lat="44.00571" lon="2.96374">
        <ele>427.43182366712</ele>
        <time>2021-08-08T20:00:34.762Z</time>
      </trkpt>
      <trkpt lat="44.00559" lon="2.96356">
        <ele>429.78229914249</ele>
        <time>2021-08-08T20:00:52.981Z</time>
      </trkpt>
      <trkpt lat="44.0055" lon="2.96333">
        <ele>432.22706120242</ele>
        <time>2021-08-08T20:01:11.206Z</time>
      </trkpt>
      <trkpt lat="44.00535" lon="2.96275">
        <ele>434.85883340539</ele>
        <time>2021-08-08T20:01:29.446Z</time>
      </trkpt>
      <trkpt lat="44.00531" lon="2.96235">
        <ele>437.40527404652</ele>
        <time>2021-08-08T20:01:47.696Z</time>
      </trkpt>
      <trkpt lat="44.00534" lon="2.96183">
        <ele>440.00176400237</ele>
        <time>2021-08-08T20:02:05.958Z</time>
      </trkpt>
      <trkpt lat="44.00534" lon="2.96145">
        <ele>442.51577919576</ele>
        <time>2021-08-08T20:02:24.229Z</time>
      </trkpt>
      <trkpt lat="44.00532" lon="2.96118">
        <ele>444.97796643938</ele>
        <time>2021-08-08T20:02:42.507Z</time>
      </trkpt>
      <trkpt lat="44.00529" lon="2.96101">
        <ele>447.41781314106</ele>
        <time>2021-08-08T20:03:00.789Z</time>
      </trkpt>
      <trkpt lat="44.00517" lon="2.96071">
        <ele>449.97126029042</ele>
        <time>2021-08-08T20:03:19.079Z</time>
      </trkpt>
      <trkpt lat="44.00501" lon="2.96043">
        <ele>452.59759324093</ele>
        <time>2021-08-08T20:03:37.378Z</time>
      </trkpt>
      <trkpt lat="44.0045" lon="2.95974">
        <ele>455.29756775169</ele>
        <time>2021-08-08T20:03:55.701Z</time>
      </trkpt>
      <trkpt lat="44.00438" lon="2.95952">
        <ele>457.81457477198</ele>
        <time>2021-08-08T20:04:14.030Z</time>
      </trkpt>
      <trkpt lat="44.00435" lon="2.95941">
        <ele>460.31532839923</ele>
        <time>2021-08-08T20:04:32.362Z</time>
      </trkpt>
      <trkpt lat="44.00432" lon="2.95915">
        <ele>462.80584351854</ele>
        <time>2021-08-08T20:04:50.701Z</time>
      </trkpt>
      <trkpt lat="44.00435" lon="2.95887">
        <ele>465.23569209005</ele>
        <time>2021-08-08T20:05:09.046Z</time>
      </trkpt>
      <trkpt lat="44.00454" lon="2.95824">
        <ele>467.83140147317</ele>
        <time>2021-08-08T20:05:27.408Z</time>
      </trkpt>
      <trkpt lat="44.00457" lon="2.95807">
        <ele>470.40268856055</ele>
        <time>2021-08-08T20:05:45.774Z</time>
      </trkpt>
      <trkpt lat="44.00457" lon="2.95783">
        <ele>472.97839599332</ele>
        <time>2021-08-08T20:06:04.146Z</time>
      </trkpt>
      <trkpt lat="44.00453" lon="2.9576">
        <ele>475.49174582931</ele>
        <time>2021-08-08T20:06:22.524Z</time>
      </trkpt>
      <trkpt lat="44.00447" lon="2.95739">
        <ele>478.04832335098</ele>
        <time>2021-08-08T20:06:40.907Z</time>
      </trkpt>
      <trkpt lat="44.00437" lon="2.95717">
        <ele>480.64683311674</ele>
        <time>2021-08-08T20:06:59.296Z</time>
      </trkpt>
      <trkpt lat="44.00411" lon="2.95678">
        <ele>483.45235353793</ele>
        <time>2021-08-08T20:07:17.698Z</time>
      </trkpt>
      <trkpt lat="44.00357" lon="2.95606">
        <ele>486.23625930835</ele>
        <time>2021-08-08T20:07:36.125Z</time>
      </trkpt>
      <trkpt lat="44.00334" lon="2.95583">
        <ele>488.80749125283</ele>
        <time>2021-08-08T20:07:54.561Z</time>
      </trkpt>
      <trkpt lat="44.00319" lon="2.9557">
        <ele>491.34725260481</ele>
        <time>2021-08-08T20:08:13.003Z</time>
      </trkpt>
      <trkpt lat="44.00294" lon="2.95552">
        <ele>493.90483217832</ele>
        <time>2021-08-08T20:08:31.455Z</time>
      </trkpt>
      <trkpt lat="44.00267" lon="2.95528">
        <ele>496.5007543838</ele>
        <time>2021-08-08T20:08:49.917Z</time>
      </trkpt>
      <trkpt lat="44.00247" lon="2.95501">
        <ele>499.10577123038</ele>
        <time>2021-08-08T20:09:08.389Z</time>
      </trkpt>
      <trkpt lat="44.00222" lon="2.95462">
        <ele>501.62654814006</ele>
        <time>2021-08-08T20:09:26.873Z</time>
      </trkpt>
      <trkpt lat="44.00206" lon="2.95442">
        <ele>504.12466537386</ele>
        <time>2021-08-08T20:09:45.364Z</time>
      </trkpt>
      <trkpt lat="44.00157" lon="2.95393">
        <ele>506.7957739305</ele>
        <time>2021-08-08T20:10:03.876Z</time>
      </trkpt>
      <trkpt lat="44.00142" lon="2.95375">
        <ele>509.29607374795</ele>
        <time>2021-08-08T20:10:22.394Z</time>
      </trkpt>
      <trkpt lat="44.00095" lon="2.95304">
        <ele>512.10564263715</ele>
        <time>2021-08-08T20:10:40.935Z</time>
      </trkpt>
      <trkpt lat="44.00076" lon="2.95282">
        <ele>514.56131813415</ele>
        <time>2021-08-08T20:10:59.485Z</time>
      </trkpt>
      <trkpt lat="44.00028" lon="2.95241">
        <ele>517.08664954749</ele>
        <time>2021-08-08T20:11:18.053Z</time>
      </trkpt>
      <trkpt lat="43.99988" lon="2.95211">
        <ele>519.46288102425</ele>
        <time>2021-08-08T20:11:36.637Z</time>
      </trkpt>
      <trkpt lat="43.9995" lon="2.95188">
        <ele>521.76392009661</ele>
        <time>2021-08-08T20:11:55.234Z</time>
      </trkpt>
      <trkpt lat="43.99927" lon="2.95172">
        <ele>524.00547911276</ele>
        <time>2021-08-08T20:12:13.840Z</time>
      </trkpt>
      <trkpt lat="43.99889" lon="2.9514">
        <ele>526.20347847231</ele>
        <time>2021-08-08T20:12:32.461Z</time>
      </trkpt>
      <trkpt lat="43.9988" lon="2.95131">
        <ele>528.24586834171</ele>
        <time>2021-08-08T20:12:51.086Z</time>
      </trkpt>
      <trkpt lat="43.99872" lon="2.9512">
        <ele>530.21825695064</ele>
        <time>2021-08-08T20:13:09.714Z</time>
      </trkpt>
      <trkpt lat="43.99845" lon="2.95066">
        <ele>532.33879445442</ele>
        <time>2021-08-08T20:13:28.358Z</time>
      </trkpt>
      <trkpt lat="43.99833" lon="2.95046">
        <ele>534.3043129027</ele>
        <time>2021-08-08T20:13:47.008Z</time>
      </trkpt>
      <trkpt lat="43.9981" lon="2.95021">
        <ele>536.21688688252</ele>
        <time>2021-08-08T20:14:05.668Z</time>
      </trkpt>
      <trkpt lat="43.99778" lon="2.94997">
        <ele>538.05740604937</ele>
        <time>2021-08-08T20:14:24.340Z</time>
      </trkpt>
      <trkpt lat="43.99745" lon="2.94977">
        <ele>539.85213477724</ele>
        <time>2021-08-08T20:14:43.024Z</time>
      </trkpt>
      <trkpt lat="43.9973" lon="2.9497">
        <ele>541.48188822005</ele>
        <time>2021-08-08T20:15:01.713Z</time>
      </trkpt>
      <trkpt lat="43.99682" lon="2.94955">
        <ele>543.19718737811</ele>
        <time>2021-08-08T20:15:20.419Z</time>
      </trkpt>
      <trkpt lat="43.9968" lon="2.94951">
        <ele>544.61191638607</ele>
        <time>2021-08-08T20:15:39.126Z</time>
      </trkpt>
      <trkpt lat="43.99681" lon="2.94945">
        <ele>545.98742143636</ele>
        <time>2021-08-08T20:15:57.835Z</time>
      </trkpt>
      <trkpt lat="43.99684" lon="2.94943">
        <ele>547.29274432915</ele>
        <time>2021-08-08T20:16:16.545Z</time>
      </trkpt>
      <trkpt lat="43.9969" lon="2.94943">
        <ele>548.55480364004</ele>
        <time>2021-08-08T20:16:35.257Z</time>
      </trkpt>
      <trkpt lat="43.998" lon="2.94969">
        <ele>549.53456962318</ele>
        <time>2021-08-08T20:16:54.006Z</time>
      </trkpt>
      <trkpt lat="43.99832" lon="2.94979">
        <ele>550.72280257957</ele>
        <time>2021-08-08T20:17:12.766Z</time>
      </trkpt>
      <trkpt lat="43.99854" lon="2.94989">
        <ele>551.86079337657</ele>
        <time>2021-08-08T20:17:31.534Z</time>
      </trkpt>
      <trkpt lat="43.99886" lon="2.95013">
        <ele>553.06891370151</ele>
        <time>2021-08-08T20:17:50.314Z</time>
      </trkpt>
      <trkpt lat="43.99892" lon="2.95016">
        <ele>554.41568979758</ele>
        <time>2021-08-08T20:18:09.096Z</time>
      </trkpt>
      <trkpt lat="43.99896" lon="2.95016">
        <ele>555.8314793684</ele>
        <time>2021-08-08T20:18:27.879Z</time>
      </trkpt>
      <trkpt lat="43.99898" lon="2.95014">
        <ele>557.32003955366</ele>
        <time>2021-08-08T20:18:46.663Z</time>
      </trkpt>
      <trkpt lat="43.99899" lon="2.95009">
        <ele>558.89752680737</ele>
        <time>2021-08-08T20:19:05.448Z</time>
      </trkpt>
      <trkpt lat="43.99897" lon="2.95002">
        <ele>560.5685687916</ele>
        <time>2021-08-08T20:19:24.235Z</time>
      </trkpt>
      <trkpt lat="43.99874" lon="2.9498">
        <ele>562.36696279835</ele>
        <time>2021-08-08T20:19:43.031Z</time>
      </trkpt>
      <trkpt lat="43.99849" lon="2.9496">
        <ele>564.27207082014</ele>
        <time>2021-08-08T20:20:01.837Z</time>
      </trkpt>
      <trkpt lat="43.9979" lon="2.94921">
        <ele>566.54952808252</ele>
        <time>2021-08-08T20:20:20.665Z</time>
      </trkpt>
      <trkpt lat="43.99746" lon="2.94903">
        <ele>568.65991241383</ele>
        <time>2021-08-08T20:20:39.508Z</time>
      </trkpt>
      <trkpt lat="43.99676" lon="2.94882">
        <ele>570.77899270574</ele>
        <time>2021-08-08T20:20:58.375Z</time>
      </trkpt>
      <trkpt lat="43.99652" lon="2.94877">
        <ele>572.83249686622</ele>
        <time>2021-08-08T20:21:17.250Z</time>
      </trkpt>
      <trkpt lat="43.99619" lon="2.94863">
        <ele>574.99702023527</ele>
        <time>2021-08-08T20:21:36.136Z</time>
      </trkpt>
      <trkpt lat="43.99604" lon="2.94852">
        <ele>577.13764160833</ele>
        <time>2021-08-08T20:21:55.028Z</time>
      </trkpt>
      <trkpt lat="43.99576" lon="2.94824">
        <ele>579.30895908683</ele>
        <time>2021-08-08T20:22:13.932Z</time>
      </trkpt>
      <trkpt lat="43.99565" lon="2.94808">
        <ele>581.35984265735</ele>
        <time>2021-08-08T20:22:32.841Z</time>
      </trkpt>
      <trkpt lat="43.99534" lon="2.94738">
        <ele>583.68021982496</ele>
        <time>2021-08-08T20:22:51.770Z</time>
      </trkpt>
      <trkpt lat="43.99527" lon="2.94726">
        <ele>585.63593631146</ele>
        <time>2021-08-08T20:23:10.702Z</time>
      </trkpt>
      <trkpt lat="43.99504" lon="2.94698">
        <ele>587.57127879874</ele>
        <time>2021-08-08T20:23:29.645Z</time>
      </trkpt>
      <trkpt lat="43.99437" lon="2.9463">
        <ele>589.59830180348</ele>
        <time>2021-08-08T20:23:48.615Z</time>
      </trkpt>
      <trkpt lat="43.99402" lon="2.94604">
        <ele>591.46306980731</ele>
        <time>2021-08-08T20:24:07.599Z</time>
      </trkpt>
      <trkpt lat="43.99364" lon="2.94582">
        <ele>593.18005011271</ele>
        <time>2021-08-08T20:24:26.596Z</time>
      </trkpt>
      <trkpt lat="43.99335" lon="2.94571">
        <ele>594.68902988129</ele>
        <time>2021-08-08T20:24:45.603Z</time>
      </trkpt>
      <trkpt lat="43.99304" lon="2.94567">
        <ele>595.99268109158</ele>
        <time>2021-08-08T20:25:04.621Z</time>
      </trkpt>
      <trkpt lat="43.99265" lon="2.94573">
        <ele>597.07801152058</ele>
        <time>2021-08-08T20:25:23.652Z</time>
      </trkpt>
      <trkpt lat="43.99191" lon="2.94601">
        <ele>598.04477759161</ele>
        <time>2021-08-08T20:25:42.708Z</time>
      </trkpt>
      <trkpt lat="43.99173" lon="2.94606">
        <ele>598.61303926535</ele>
        <time>2021-08-08T20:26:01.770Z</time>
      </trkpt>
      <trkpt lat="43.99157" lon="2.94608">
        <ele>599.04982879243</ele>
        <time>2021-08-08T20:26:20.838Z</time>
      </trkpt>
      <trkpt lat="43.99137" lon="2.94608">
        <ele>599.31404358874</ele>
        <time>2021-08-08T20:26:39.912Z</time>
      </trkpt>
      <trkpt lat="43.99121" lon="2.94604">
        <ele>599.48144490125</ele>
        <time>2021-08-08T20:26:58.992Z</time>
      </trkpt>
      <trkpt lat="43.99103" lon="2.94588">
        <ele>599.54246590073</ele>
        <time>2021-08-08T20:27:18.079Z</time>
      </trkpt>
      <trkpt lat="43.99038" lon="2.94496">
        <ele>599.60854087917</ele>
        <time>2021-08-08T20:27:37.197Z</time>
      </trkpt>
      <trkpt lat="43.99" lon="2.94453">
        <ele>599.42188545155</ele>
        <time>2021-08-08T20:27:56.331Z</time>
      </trkpt>
      <trkpt lat="43.98972" lon="2.94425">
        <ele>599.15285526265</ele>
        <time>2021-08-08T20:28:15.477Z</time>
      </trkpt>
      <trkpt lat="43.98962" lon="2.94412">
        <ele>598.8031994294</ele>
        <time>2021-08-08T20:28:34.627Z</time>
      </trkpt>
      <trkpt lat="43.98954" lon="2.94392">
        <ele>598.42347800605</ele>
        <time>2021-08-08T20:28:53.783Z</time>
      </trkpt>
      <trkpt lat="43.98941" lon="2.94339">
        <ele>598.01791292846</ele>
        <time>2021-08-08T20:29:12.952Z</time>
      </trkpt>
      <trkpt lat="43.98937" lon="2.94314">
        <ele>597.55166199933</ele>
        <time>2021-08-08T20:29:32.128Z</time>
      </trkpt>
      <trkpt lat="43.9893" lon="2.94258">
        <ele>597.04635488463</ele>
        <time>2021-08-08T20:29:51.317Z</time>
      </trkpt>
      <trkpt lat="43.98929" lon="2.94178">
        <ele>596.52570501109</ele>
        <time>2021-08-08T20:30:10.526Z</time>
      </trkpt>
      <trkpt lat="43.98919" lon="2.94129">
        <ele>595.77390473253</ele>
        <time>2021-08-08T20:30:29.747Z</time>
      </trkpt>
      <trkpt lat="43.98918" lon="2.94099">
        <ele>595.23277698582</ele>
        <time>2021-08-08T20:30:48.975Z</time>
      </trkpt>
      <trkpt lat="43.98922" lon="2.94066">
        <ele>594.68989913532</ele>
        <time>2021-08-08T20:31:08.211Z</time>
      </trkpt>
      <trkpt lat="43.98936" lon="2.94014">
        <ele>594.19220169545</ele>
        <time>2021-08-08T20:31:27.460Z</time>
      </trkpt>
      <trkpt lat="43.98939" lon="2.9398">
        <ele>593.55648206517</ele>
        <time>2021-08-08T20:31:46.718Z</time>
      </trkpt>
      <trkpt lat="43.98946" lon="2.93937">
        <ele>592.96808576546</ele>
        <time>2021-08-08T20:32:05.986Z</time>
      </trkpt>
      <trkpt lat="43.98965" lon="2.93837">
        <ele>592.36640798811</ele>
        <time>2021-08-08T20:32:25.279Z</time>
      </trkpt>
      <trkpt lat="43.99029" lon="2.93658">
        <ele>591.78292185846</ele>
        <time>2021-08-08T20:32:44.620Z</time>
      </trkpt>
      <trkpt lat="43.99032" lon="2.93641">
        <ele>591.27493504652</ele>
        <time>2021-08-08T20:33:03.965Z</time>
      </trkpt>
      <trkpt lat="43.99033" lon="2.93619">
        <ele>590.74726300024</ele>
        <time>2021-08-08T20:33:23.316Z</time>
      </trkpt>
      <trkpt lat="43.99031" lon="2.93607">
        <ele>590.14634795755</ele>
        <time>2021-08-08T20:33:42.670Z</time>
      </trkpt>
      <trkpt lat="43.99008" lon="2.93553">
        <ele>589.67458719287</ele>
        <time>2021-08-08T20:34:02.039Z</time>
      </trkpt>
      <trkpt lat="43.98994" lon="2.93525">
        <ele>589.17332088593</ele>
        <time>2021-08-08T20:34:21.416Z</time>
      </trkpt>
      <trkpt lat="43.98976" lon="2.9354">
        <ele>588.46590513063</ele>
        <time>2021-08-08T20:34:40.800Z</time>
      </trkpt>
      <trkpt lat="43.98955" lon="2.93552">
        <ele>587.65256448989</ele>
        <time>2021-08-08T20:35:00.192Z</time>
      </trkpt>
      <trkpt lat="43.98887" lon="2.93577">
        <ele>586.66676128662</ele>
        <time>2021-08-08T20:35:19.607Z</time>
      </trkpt>
      <trkpt lat="43.988" lon="2.93605">
        <ele>585.71050257122</ele>
        <time>2021-08-08T20:35:39.052Z</time>
      </trkpt>
      <trkpt lat="43.98775" lon="2.93609">
        <ele>584.95303954741</ele>
        <time>2021-08-08T20:35:58.505Z</time>
      </trkpt>
      <trkpt lat="43.98755" lon="2.93609">
        <ele>584.05414361232</ele>
        <time>2021-08-08T20:36:17.965Z</time>
      </trkpt>
      <trkpt lat="43.9874" lon="2.93607">
        <ele>583.17950601195</ele>
        <time>2021-08-08T20:36:37.430Z</time>
      </trkpt>
      <trkpt lat="43.98732" lon="2.93605">
        <ele>582.32903598615</ele>
        <time>2021-08-08T20:36:56.898Z</time>
      </trkpt>
      <trkpt lat="43.98701" lon="2.93591">
        <ele>581.39696834492</ele>
        <time>2021-08-08T20:37:16.376Z</time>
      </trkpt>
      <trkpt lat="43.98692" lon="2.93585">
        <ele>580.51764236235</ele>
        <time>2021-08-08T20:37:35.858Z</time>
      </trkpt>
      <trkpt lat="43.98675" lon="2.93571">
        <ele>579.58713919417</ele>
        <time>2021-08-08T20:37:55.346Z</time>
      </trkpt>
      <trkpt lat="43.98645" lon="2.93538">
        <ele>578.63658399491</ele>
        <time>2021-08-08T20:38:14.847Z</time>
      </trkpt>
      <trkpt lat="43.98571" lon="2.93439">
        <ele>577.67111772182</ele>
        <time>2021-08-08T20:38:34.382Z</time>
      </trkpt>
      <trkpt lat="43.98511" lon="2.93354">
        <ele>576.58320217826</ele>
        <time>2021-08-08T20:38:53.946Z</time>
      </trkpt>
      <trkpt lat="43.98495" lon="2.93318">
        <ele>575.56114474037</ele>
        <time>2021-08-08T20:39:13.520Z</time>
      </trkpt>
      <trkpt lat="43.98495" lon="2.93308">
        <ele>574.48899854055</ele>
        <time>2021-08-08T20:39:33.097Z</time>
      </trkpt>
      <trkpt lat="43.98491" lon="2.93299">
        <ele>573.35247982805</ele>
        <time>2021-08-08T20:39:52.676Z</time>
      </trkpt>
      <trkpt lat="43.98485" lon="2.93294">
        <ele>572.15028833233</ele>
        <time>2021-08-08T20:40:12.258Z</time>
      </trkpt>
      <trkpt lat="43.98477" lon="2.93294">
        <ele>570.87638058159</ele>
        <time>2021-08-08T20:40:31.842Z</time>
      </trkpt>
      <trkpt lat="43.98445" lon="2.93267">
        <ele>569.47053690346</ele>
        <time>2021-08-08T20:40:51.439Z</time>
      </trkpt>
      <trkpt lat="43.98328" lon="2.93107">
        <ele>568.01884434992</ele>
        <time>2021-08-08T20:41:11.090Z</time>
      </trkpt>
      <trkpt lat="43.98307" lon="2.93083">
        <ele>566.48653806771</ele>
        <time>2021-08-08T20:41:30.751Z</time>
      </trkpt>
      <trkpt lat="43.98249" lon="2.93026">
        <ele>564.78318224692</ele>
        <time>2021-08-08T20:41:50.435Z</time>
      </trkpt>
      <trkpt lat="43.98061" lon="2.92846">
        <ele>562.83098384718</ele>
        <time>2021-08-08T20:42:10.195Z</time>
      </trkpt>
      <trkpt lat="43.98004" lon="2.92785">
        <ele>561.0496243478</ele>
        <time>2021-08-08T20:42:29.979Z</time>
      </trkpt>
      <trkpt lat="43.9799" lon="2.92758">
        <ele>559.24966045661</ele>
        <time>2021-08-08T20:42:49.771Z</time>
      </trkpt>
      <trkpt lat="43.97985" lon="2.92745">
        <ele>557.33420473225</ele>
        <time>2021-08-08T20:43:09.567Z</time>
      </trkpt>
      <trkpt lat="43.97981" lon="2.92728">
        <ele>555.32832329049</ele>
        <time>2021-08-08T20:43:29.367Z</time>
      </trkpt>
      <trkpt lat="43.97968" lon="2.92525">
        <ele>553.23557197624</ele>
        <time>2021-08-08T20:43:49.216Z</time>
      </trkpt>
      <trkpt lat="43.97966" lon="2.92409">
        <ele>550.99064820206</ele>
        <time>2021-08-08T20:44:09.093Z</time>
      </trkpt>
      <trkpt lat="43.97968" lon="2.92379">
        <ele>548.79830175814</ele>
        <time>2021-08-08T20:44:28.978Z</time>
      </trkpt>
      <trkpt lat="43.97984" lon="2.92293">
        <ele>546.2577199722</ele>
        <time>2021-08-08T20:44:48.884Z</time>
      </trkpt>
      <trkpt lat="43.97985" lon="2.92248">
        <ele>543.67615921766</ele>
        <time>2021-08-08T20:45:08.801Z</time>
      </trkpt>
      <trkpt lat="43.97984" lon="2.92209">
        <ele>540.96540802636</ele>
        <time>2021-08-08T20:45:28.727Z</time>
      </trkpt>
      <trkpt lat="43.97967" lon="2.92062">
        <ele>537.89393358827</ele>
        <time>2021-08-08T20:45:48.689Z</time>
      </trkpt>
      <trkpt lat="43.97966" lon="2.92038">
        <ele>535.23732190516</ele>
        <time>2021-08-08T20:46:08.657Z</time>
      </trkpt>
      <trkpt lat="43.97969" lon="2.91957">
        <ele>532.22609709707</ele>
        <time>2021-08-08T20:46:28.644Z</time>
      </trkpt>
      <trkpt lat="43.97968" lon="2.91912">
        <ele>529.42950516477</ele>
        <time>2021-08-08T20:46:48.642Z</time>
      </trkpt>
      <trkpt lat="43.97966" lon="2.91877">
        <ele>526.65467151226</ele>
        <time>2021-08-08T20:47:08.649Z</time>
      </trkpt>
      <trkpt lat="43.97961" lon="2.91854">
        <ele>523.95343657047</ele>
        <time>2021-08-08T20:47:28.661Z</time>
      </trkpt>
      <trkpt lat="43.97954" lon="2.91829">
        <ele>521.30393219728</ele>
        <time>2021-08-08T20:47:48.680Z</time>
      </trkpt>
      <trkpt lat="43.97896" lon="2.91656">
        <ele>518.51697714022</ele>
        <time>2021-08-08T20:48:08.745Z</time>
      </trkpt>
      <trkpt lat="43.97879" lon="2.91601">
        <ele>516.00835919227</ele>
        <time>2021-08-08T20:48:28.824Z</time>
      </trkpt>
      <trkpt lat="43.97873" lon="2.91586">
        <ele>511.31355117533</ele>
        <time>2021-08-08T20:48:48.907Z</time>
      </trkpt>
      <trkpt lat="43.97851" lon="2.91548">
        <ele>508.99509976083</ele>
        <time>2021-08-08T20:49:09.002Z</time>
      </trkpt>
      <trkpt lat="43.97838" lon="2.9153">
        <ele>506.76902153527</ele>
        <time>2021-08-08T20:49:29.103Z</time>
      </trkpt>
      <trkpt lat="43.97824" lon="2.91517">
        <ele>504.56496660564</ele>
        <time>2021-08-08T20:49:49.210Z</time>
      </trkpt>
      <trkpt lat="43.97735" lon="2.91454">
        <ele>502.166697991</ele>
        <time>2021-08-08T20:50:09.350Z</time>
      </trkpt>
      <trkpt lat="43.97714" lon="2.91438">
        <ele>500.05307823523</ele>
        <time>2021-08-08T20:50:29.498Z</time>
      </trkpt>
      <trkpt lat="43.97699" lon="2.91424">
        <ele>498.03300835203</ele>
        <time>2021-08-08T20:50:49.652Z</time>
      </trkpt>
      <trkpt lat="43.97669" lon="2.91391">
        <ele>496.04939318132</ele>
        <time>2021-08-08T20:51:09.819Z</time>
      </trkpt>
      <trkpt lat="43.97637" lon="2.91352">
        <ele>494.14583846578</ele>
        <time>2021-08-08T20:51:30.000Z</time>
      </trkpt>
      <trkpt lat="43.9757" lon="2.91259">
        <ele>492.14384438788</ele>
        <time>2021-08-08T20:51:50.213Z</time>
      </trkpt>
      <trkpt lat="43.97559" lon="2.9124">
        <ele>490.24620756587</ele>
        <time>2021-08-08T20:52:10.432Z</time>
      </trkpt>
      <trkpt lat="43.97552" lon="2.91224">
        <ele>488.3755559637</ele>
        <time>2021-08-08T20:52:30.655Z</time>
      </trkpt>
      <trkpt lat="43.97545" lon="2.91201">
        <ele>486.51210497591</ele>
        <time>2021-08-08T20:52:50.884Z</time>
      </trkpt>
      <trkpt lat="43.97542" lon="2.91183">
        <ele>484.71899240182</ele>
        <time>2021-08-08T20:53:11.117Z</time>
      </trkpt>
      <trkpt lat="43.97533" lon="2.91085">
        <ele>482.76410187953</ele>
        <time>2021-08-08T20:53:31.374Z</time>
      </trkpt>
      <trkpt lat="43.97531" lon="2.90942">
        <ele>480.42315189303</ele>
        <time>2021-08-08T20:53:51.666Z</time>
      </trkpt>
      <trkpt lat="43.97532" lon="2.90805">
        <ele>478.49435822813</ele>
        <time>2021-08-08T20:54:11.991Z</time>
      </trkpt>
      <trkpt lat="43.9753" lon="2.90763">
        <ele>476.63015445837</ele>
        <time>2021-08-08T20:54:32.326Z</time>
      </trkpt>
      <trkpt lat="43.97526" lon="2.90723">
        <ele>474.66041739639</ele>
        <time>2021-08-08T20:54:52.671Z</time>
      </trkpt>
      <trkpt lat="43.97522" lon="2.90702">
        <ele>472.7668296636</ele>
        <time>2021-08-08T20:55:13.021Z</time>
      </trkpt>
      <trkpt lat="43.97509" lon="2.90658">
        <ele>470.82216331149</ele>
        <time>2021-08-08T20:55:33.382Z</time>
      </trkpt>
      <trkpt lat="43.97471" lon="2.9057">
        <ele>469.00832362448</ele>
        <time>2021-08-08T20:55:53.768Z</time>
      </trkpt>
      <trkpt lat="43.97461" lon="2.90554">
        <ele>467.03908696484</ele>
        <time>2021-08-08T20:56:14.159Z</time>
      </trkpt>
      <trkpt lat="43.97438" lon="2.90526">
        <ele>464.96074832983</ele>
        <time>2021-08-08T20:56:34.560Z</time>
      </trkpt>
      <trkpt lat="43.9737" lon="2.90455">
        <ele>462.71373895205</ele>
        <time>2021-08-08T20:56:54.990Z</time>
      </trkpt>
      <trkpt lat="43.97323" lon="2.90412">
        <ele>460.54950057146</ele>
        <time>2021-08-08T20:57:15.438Z</time>
      </trkpt>
      <trkpt lat="43.97281" lon="2.90382">
        <ele>458.49146523792</ele>
        <time>2021-08-08T20:57:35.902Z</time>
      </trkpt>
      <trkpt lat="43.97266" lon="2.90369">
        <ele>456.49113311703</ele>
        <time>2021-08-08T20:57:56.372Z</time>
      </trkpt>
      <trkpt lat="43.97252" lon="2.90354">
        <ele>454.48054626942</ele>
        <time>2021-08-08T20:58:16.848Z</time>
      </trkpt>
      <trkpt lat="43.97207" lon="2.90293">
        <ele>452.31589906612</ele>
        <time>2021-08-08T20:58:37.345Z</time>
      </trkpt>
      <trkpt lat="43.97191" lon="2.90274">
        <ele>450.23618605756</ele>
        <time>2021-08-08T20:58:57.849Z</time>
      </trkpt>
      <trkpt lat="43.97062" lon="2.9013">
        <ele>447.97663430762</ele>
        <time>2021-08-08T20:59:18.408Z</time>
      </trkpt>
      <trkpt lat="43.97008" lon="2.90062">
        <ele>445.95701319868</ele>
        <time>2021-08-08T20:59:38.991Z</time>
      </trkpt>
      <trkpt lat="43.96982" lon="2.90033">
        <ele>443.93532651982</ele>
        <time>2021-08-08T20:59:59.586Z</time>
      </trkpt>
      <trkpt lat="43.96965" lon="2.90019">
        <ele>441.84374737717</ele>
        <time>2021-08-08T21:00:20.187Z</time>
      </trkpt>
      <trkpt lat="43.96942" lon="2.90003">
        <ele>439.74584496734</ele>
        <time>2021-08-08T21:00:40.797Z</time>
      </trkpt>
      <trkpt lat="43.96901" lon="2.89985">
        <ele>437.43158146242</ele>
        <time>2021-08-08T21:01:01.421Z</time>
      </trkpt>
      <trkpt lat="43.96813" lon="2.89933">
        <ele>434.7646539464</ele>
        <time>2021-08-08T21:01:22.077Z</time>
      </trkpt>
      <trkpt lat="43.96799" lon="2.89927">
        <ele>432.39400231877</ele>
        <time>2021-08-08T21:01:42.738Z</time>
      </trkpt>
      <trkpt lat="43.96783" lon="2.89924">
        <ele>429.94536188021</ele>
        <time>2021-08-08T21:02:03.404Z</time>
      </trkpt>
      <trkpt lat="43.96762" lon="2.89925">
        <ele>427.45770698825</ele>
        <time>2021-08-08T21:02:24.077Z</time>
      </trkpt>
      <trkpt lat="43.96741" lon="2.89929">
        <ele>424.9832386679</ele>
        <time>2021-08-08T21:02:44.757Z</time>
      </trkpt>
      <trkpt lat="43.96724" lon="2.89929">
        <ele>422.52591656391</ele>
        <time>2021-08-08T21:03:05.443Z</time>
      </trkpt>
      <trkpt lat="43.96716" lon="2.89927">
        <ele>420.11236563122</ele>
        <time>2021-08-08T21:03:26.132Z</time>
      </trkpt>
      <trkpt lat="43.96696" lon="2.89917">
        <ele>417.69089457679</ele>
        <time>2021-08-08T21:03:46.828Z</time>
      </trkpt>
      <trkpt lat="43.96656" lon="2.89887">
        <ele>415.35640998148</ele>
        <time>2021-08-08T21:04:07.539Z</time>
      </trkpt>
      <trkpt lat="43.96629" lon="2.89881">
        <ele>412.74223920457</ele>
        <time>2021-08-08T21:04:28.259Z</time>
      </trkpt>
      <trkpt lat="43.96617" lon="2.89881">
        <ele>410.14779997271</ele>
        <time>2021-08-08T21:04:48.983Z</time>
      </trkpt>
      <trkpt lat="43.96598" lon="2.89878">
        <ele>407.43023698009</ele>
        <time>2021-08-08T21:05:09.713Z</time>
      </trkpt>
      <trkpt lat="43.96582" lon="2.89873">
        <ele>404.69695135444</ele>
        <time>2021-08-08T21:05:30.449Z</time>
      </trkpt>
      <trkpt lat="43.96542" lon="2.89853">
        <ele>401.7607587051</ele>
        <time>2021-08-08T21:05:51.199Z</time>
      </trkpt>
      <trkpt lat="43.9653" lon="2.89845">
        <ele>399.09615013882</ele>
        <time>2021-08-08T21:06:11.954Z</time>
      </trkpt>
      <trkpt lat="43.96518" lon="2.89834">
        <ele>396.39909844831</ele>
        <time>2021-08-08T21:06:32.713Z</time>
      </trkpt>
      <trkpt lat="43.96494" lon="2.89794">
        <ele>393.61939410341</ele>
        <time>2021-08-08T21:06:53.485Z</time>
      </trkpt>
      <trkpt lat="43.96476" lon="2.89753">
        <ele>390.94402755109</ele>
        <time>2021-08-08T21:07:14.268Z</time>
      </trkpt>
      <trkpt lat="43.96461" lon="2.89708">
        <ele>388.09695311635</ele>
        <time>2021-08-08T21:07:35.063Z</time>
      </trkpt>
      <trkpt lat="43.96438" lon="2.89626">
        <ele>385.44559379983</ele>
        <time>2021-08-08T21:07:55.880Z</time>
      </trkpt>
      <trkpt lat="43.96422" lon="2.89588">
        <ele>382.85144663666</ele>
        <time>2021-08-08T21:08:16.707Z</time>
      </trkpt>
      <trkpt lat="43.96394" lon="2.8955">
        <ele>380.08962810088</ele>
        <time>2021-08-08T21:08:37.547Z</time>
      </trkpt>
      <trkpt lat="43.96344" lon="2.89496">
        <ele>377.17453784171</ele>
        <time>2021-08-08T21:08:58.408Z</time>
      </trkpt>
      <trkpt lat="43.96306" lon="2.89464">
        <ele>374.31964268289</ele>
        <time>2021-08-08T21:09:19.284Z</time>
      </trkpt>
      <trkpt lat="43.96264" lon="2.89436">
        <ele>371.36242580735</ele>
        <time>2021-08-08T21:09:40.176Z</time>
      </trkpt>
      <trkpt lat="43.9624" lon="2.89418">
        <ele>368.48594573059</ele>
        <time>2021-08-08T21:10:01.077Z</time>
      </trkpt>
      <trkpt lat="43.96217" lon="2.89385">
        <ele>365.68838973847</ele>
        <time>2021-08-08T21:10:21.989Z</time>
      </trkpt>
      <trkpt lat="43.96197" lon="2.8935">
        <ele>362.96142709524</ele>
        <time>2021-08-08T21:10:42.912Z</time>
      </trkpt>
      <trkpt lat="43.96172" lon="2.89315">
        <ele>360.25115278304</ele>
        <time>2021-08-08T21:11:03.846Z</time>
      </trkpt>
      <trkpt lat="43.9616" lon="2.89303">
        <ele>357.58597544485</ele>
        <time>2021-08-08T21:11:24.785Z</time>
      </trkpt>
      <trkpt lat="43.96142" lon="2.89293">
        <ele>354.86520421568</ele>
        <time>2021-08-08T21:11:45.731Z</time>
      </trkpt>
      <trkpt lat="43.96122" lon="2.89279">
        <ele>352.20562385126</ele>
        <time>2021-08-08T21:12:06.684Z</time>
      </trkpt>
      <trkpt lat="43.9611" lon="2.89265">
        <ele>349.66658539675</ele>
        <time>2021-08-08T21:12:27.643Z</time>
      </trkpt>
      <trkpt lat="43.96085" lon="2.89212">
        <ele>347.18859276357</ele>
        <time>2021-08-08T21:12:48.617Z</time>
      </trkpt>
      <trkpt lat="43.96068" lon="2.89167">
        <ele>344.81639898719</ele>
        <time>2021-08-08T21:13:09.603Z</time>
      </trkpt>
      <trkpt lat="43.96052" lon="2.89131">
        <ele>342.40249366787</ele>
        <time>2021-08-08T21:13:30.599Z</time>
      </trkpt>
      <trkpt lat="43.95925" lon="2.88909">
        <ele>339.43012083384</ele>
        <time>2021-08-08T21:13:51.663Z</time>
      </trkpt>
      <trkpt lat="43.95876" lon="2.88815">
        <ele>337.01090235107</ele>
        <time>2021-08-08T21:14:12.755Z</time>
      </trkpt>
      <trkpt lat="43.95871" lon="2.88801">
        <ele>334.94062250229</ele>
        <time>2021-08-08T21:14:33.851Z</time>
      </trkpt>
      <trkpt lat="43.95871" lon="2.88784">
        <ele>333.00355861933</ele>
        <time>2021-08-08T21:14:54.951Z</time>
      </trkpt>
      <trkpt lat="43.95875" lon="2.88765">
        <ele>331.19236892653</ele>
        <time>2021-08-08T21:15:16.056Z</time>
      </trkpt>
      <trkpt lat="43.95874" lon="2.88749">
        <ele>329.46531887727</ele>
        <time>2021-08-08T21:15:37.165Z</time>
      </trkpt>
      <trkpt lat="43.95864" lon="2.88729">
        <ele>327.81185061305</ele>
        <time>2021-08-08T21:15:58.280Z</time>
      </trkpt>
      <trkpt lat="43.95852" lon="2.88715">
        <ele>326.2839562108</ele>
        <time>2021-08-08T21:16:19.400Z</time>
      </trkpt>
      <trkpt lat="43.95873" lon="2.88684">
        <ele>324.97627542717</ele>
        <time>2021-08-08T21:16:40.530Z</time>
      </trkpt>
      <trkpt lat="43.95876" lon="2.88669">
        <ele>323.67170698685</ele>
        <time>2021-08-08T21:17:01.664Z</time>
      </trkpt>
      <trkpt lat="43.95833" lon="2.88472">
        <ele>322.13048048521</ele>
        <time>2021-08-08T21:17:22.847Z</time>
      </trkpt>
      <trkpt lat="43.95814" lon="2.88377">
        <ele>321.05111151844</ele>
        <time>2021-08-08T21:17:44.054Z</time>
      </trkpt>
      <trkpt lat="43.95795" lon="2.88294">
        <ele>320.20040103404</ele>
        <time>2021-08-08T21:18:05.282Z</time>
      </trkpt>
      <trkpt lat="43.95776" lon="2.88195">
        <ele>319.37950937363</ele>
        <time>2021-08-08T21:18:26.535Z</time>
      </trkpt>
      <trkpt lat="43.95768" lon="2.88163">
        <ele>318.70502955061</ele>
        <time>2021-08-08T21:18:47.796Z</time>
      </trkpt>
      <trkpt lat="43.95769" lon="2.88154">
        <ele>318.13690942399</ele>
        <time>2021-08-08T21:19:09.059Z</time>
      </trkpt>
      <trkpt lat="43.95767" lon="2.88149">
        <ele>317.67704396478</ele>
        <time>2021-08-08T21:19:30.323Z</time>
      </trkpt>
      <trkpt lat="43.95762" lon="2.88145">
        <ele>317.32306704722</ele>
        <time>2021-08-08T21:19:51.589Z</time>
      </trkpt>
      <trkpt lat="43.95759" lon="2.88145">
        <ele>317.05938830969</ele>
        <time>2021-08-08T21:20:12.856Z</time>
      </trkpt>
      <trkpt lat="43.95755" lon="2.88147">
        <ele>316.88849569684</ele>
        <time>2021-08-08T21:20:34.125Z</time>
      </trkpt>
      <trkpt lat="43.95753" lon="2.88153">
        <ele>316.79852788198</ele>
        <time>2021-08-08T21:20:55.395Z</time>
      </trkpt>
      <trkpt lat="43.95695" lon="2.88177">
        <ele>316.8429100883</ele>
        <time>2021-08-08T21:21:16.686Z</time>
      </trkpt>
      <trkpt lat="43.95667" lon="2.88191">
        <ele>316.99429349917</ele>
        <time>2021-08-08T21:21:37.987Z</time>
      </trkpt>
      <trkpt lat="43.95624" lon="2.88208">
        <ele>317.26615023772</ele>
        <time>2021-08-08T21:21:59.302Z</time>
      </trkpt>
      <trkpt lat="43.956" lon="2.88223">
        <ele>317.57098626628</ele>
        <time>2021-08-08T21:22:20.626Z</time>
      </trkpt>
      <trkpt lat="43.95594" lon="2.88237">
        <ele>317.89372233115</ele>
        <time>2021-08-08T21:22:41.954Z</time>
      </trkpt>
      <trkpt lat="43.95588" lon="2.88278">
        <ele>318.32773909118</ele>
        <time>2021-08-08T21:23:03.292Z</time>
      </trkpt>
      <trkpt lat="43.95576" lon="2.88433">
        <ele>318.60985260944</ele>
        <time>2021-08-08T21:23:24.668Z</time>
      </trkpt>
      <trkpt lat="43.95578" lon="2.8845">
        <ele>319.10601987899</ele>
        <time>2021-08-08T21:23:46.048Z</time>
      </trkpt>
      <trkpt lat="43.95598" lon="2.88543">
        <ele>319.50597633876</ele>
        <time>2021-08-08T21:24:07.451Z</time>
      </trkpt>
      <trkpt lat="43.95607" lon="2.8857">
        <ele>320.08258646336</ele>
        <time>2021-08-08T21:24:28.861Z</time>
      </trkpt>
      <trkpt lat="43.95614" lon="2.88582">
        <ele>320.80155420772</ele>
        <time>2021-08-08T21:24:50.275Z</time>
      </trkpt>
      <trkpt lat="43.95661" lon="2.88638">
        <ele>321.57714689784</ele>
        <time>2021-08-08T21:25:11.710Z</time>
      </trkpt>
      <trkpt lat="43.95718" lon="2.88701">
        <ele>322.58647790446</ele>
        <time>2021-08-08T21:25:33.169Z</time>
      </trkpt>
      <trkpt lat="43.95803" lon="2.88771">
        <ele>323.88962731854</ele>
        <time>2021-08-08T21:25:54.661Z</time>
      </trkpt>
      <trkpt lat="43.95816" lon="2.88771">
        <ele>325.05523365438</ele>
        <time>2021-08-08T21:26:16.157Z</time>
      </trkpt>
      <trkpt lat="43.95852" lon="2.88715">
        <ele>326.2839562108</ele>
        <time>2021-08-08T21:26:37.671Z</time>
      </trkpt>
      <trkpt lat="43.95864" lon="2.88729">
        <ele>327.81185061305</ele>
        <time>2021-08-08T21:26:59.191Z</time>
      </trkpt>
      <trkpt lat="43.95872" lon="2.88743">
        <ele>329.24015136583</ele>
        <time>2021-08-08T21:27:20.715Z</time>
      </trkpt>
      <trkpt lat="43.95875" lon="2.88754">
        <ele>330.80669680406</ele>
        <time>2021-08-08T21:27:42.242Z</time>
      </trkpt>
      <trkpt lat="43.95875" lon="2.88765">
        <ele>331.19236892653</ele>
        <time>2021-08-08T21:28:03.771Z</time>
      </trkpt>
      <trkpt lat="43.95871" lon="2.88784">
        <ele>333.00355861933</ele>
        <time>2021-08-08T21:28:25.305Z</time>
      </trkpt>
      <trkpt lat="43.95871" lon="2.88801">
        <ele>334.94062250229</ele>
        <time>2021-08-08T21:28:46.843Z</time>
      </trkpt>
      <trkpt lat="43.95876" lon="2.88815">
        <ele>337.01090235107</ele>
        <time>2021-08-08T21:29:08.385Z</time>
      </trkpt>
      <trkpt lat="43.95925" lon="2.88909">
        <ele>339.43012083384</ele>
        <time>2021-08-08T21:29:29.955Z</time>
      </trkpt>
      <trkpt lat="43.96052" lon="2.89131">
        <ele>342.40249366787</ele>
        <time>2021-08-08T21:29:51.593Z</time>
      </trkpt>
      <trkpt lat="43.96068" lon="2.89167">
        <ele>344.81639898719</ele>
        <time>2021-08-08T21:30:13.241Z</time>
      </trkpt>
      <trkpt lat="43.96085" lon="2.89212">
        <ele>347.18859276357</ele>
        <time>2021-08-08T21:30:34.902Z</time>
      </trkpt>
      <trkpt lat="43.9611" lon="2.89265">
        <ele>349.66658539675</ele>
        <time>2021-08-08T21:30:56.578Z</time>
      </trkpt>
      <trkpt lat="43.96122" lon="2.89279">
        <ele>352.20562385126</ele>
        <time>2021-08-08T21:31:18.259Z</time>
      </trkpt>
      <trkpt lat="43.96142" lon="2.89293">
        <ele>354.86520421568</ele>
        <time>2021-08-08T21:31:39.948Z</time>
      </trkpt>
      <trkpt lat="43.9616" lon="2.89303">
        <ele>357.58597544485</ele>
        <time>2021-08-08T21:32:01.643Z</time>
      </trkpt>
      <trkpt lat="43.96172" lon="2.89315">
        <ele>360.25115278304</ele>
        <time>2021-08-08T21:32:23.343Z</time>
      </trkpt>
      <trkpt lat="43.96197" lon="2.8935">
        <ele>362.96142709524</ele>
        <time>2021-08-08T21:32:45.055Z</time>
      </trkpt>
      <trkpt lat="43.96217" lon="2.89385">
        <ele>365.68838973847</ele>
        <time>2021-08-08T21:33:06.778Z</time>
      </trkpt>
      <trkpt lat="43.9624" lon="2.89418">
        <ele>368.48594573059</ele>
        <time>2021-08-08T21:33:28.512Z</time>
      </trkpt>
      <trkpt lat="43.96264" lon="2.89436">
        <ele>371.36242580735</ele>
        <time>2021-08-08T21:33:50.255Z</time>
      </trkpt>
      <trkpt lat="43.96306" lon="2.89464">
        <ele>374.31964268289</ele>
        <time>2021-08-08T21:34:12.013Z</time>
      </trkpt>
      <trkpt lat="43.96344" lon="2.89496">
        <ele>377.17453784171</ele>
        <time>2021-08-08T21:34:33.786Z</time>
      </trkpt>
      <trkpt lat="43.96394" lon="2.8955">
        <ele>380.08962810088</ele>
        <time>2021-08-08T21:34:55.580Z</time>
      </trkpt>
      <trkpt lat="43.96415" lon="2.89578">
        <ele>381.81040188545</ele>
        <time>2021-08-08T21:35:17.384Z</time>
      </trkpt>
      <trkpt lat="43.96428" lon="2.896">
        <ele>384.34299764462</ele>
        <time>2021-08-08T21:35:39.195Z</time>
      </trkpt>
      <trkpt lat="43.96438" lon="2.89626">
        <ele>385.44559379983</ele>
        <time>2021-08-08T21:36:01.013Z</time>
      </trkpt>
      <trkpt lat="43.96461" lon="2.89708">
        <ele>388.09695311635</ele>
        <time>2021-08-08T21:36:22.852Z</time>
      </trkpt>
      <trkpt lat="43.96476" lon="2.89753">
        <ele>390.94402755109</ele>
        <time>2021-08-08T21:36:44.703Z</time>
      </trkpt>
      <trkpt lat="43.96494" lon="2.89794">
        <ele>393.61939410341</ele>
        <time>2021-08-08T21:37:06.565Z</time>
      </trkpt>
      <trkpt lat="43.96518" lon="2.89834">
        <ele>396.39909844831</ele>
        <time>2021-08-08T21:37:28.440Z</time>
      </trkpt>
      <trkpt lat="43.9653" lon="2.89845">
        <ele>399.09615013882</ele>
        <time>2021-08-08T21:37:50.320Z</time>
      </trkpt>
      <trkpt lat="43.96542" lon="2.89853">
        <ele>401.7607587051</ele>
        <time>2021-08-08T21:38:12.204Z</time>
      </trkpt>
      <trkpt lat="43.96582" lon="2.89873">
        <ele>404.69695135444</ele>
        <time>2021-08-08T21:38:34.102Z</time>
      </trkpt>
      <trkpt lat="43.96598" lon="2.89878">
        <ele>407.43023698009</ele>
        <time>2021-08-08T21:38:56.006Z</time>
      </trkpt>
      <trkpt lat="43.96617" lon="2.89881">
        <ele>410.14779997271</ele>
        <time>2021-08-08T21:39:17.916Z</time>
      </trkpt>
      <trkpt lat="43.96629" lon="2.89881">
        <ele>412.74223920457</ele>
        <time>2021-08-08T21:39:39.830Z</time>
      </trkpt>
      <trkpt lat="43.96656" lon="2.89887">
        <ele>415.35640998148</ele>
        <time>2021-08-08T21:40:01.753Z</time>
      </trkpt>
      <trkpt lat="43.96696" lon="2.89917">
        <ele>417.69089457679</ele>
        <time>2021-08-08T21:40:23.692Z</time>
      </trkpt>
      <trkpt lat="43.96716" lon="2.89927">
        <ele>420.11236563122</ele>
        <time>2021-08-08T21:40:45.638Z</time>
      </trkpt>
      <trkpt lat="43.96724" lon="2.89929">
        <ele>422.52591656391</ele>
        <time>2021-08-08T21:41:07.586Z</time>
      </trkpt>
      <trkpt lat="43.96741" lon="2.89929">
        <ele>424.9832386679</ele>
        <time>2021-08-08T21:41:29.540Z</time>
      </trkpt>
      <trkpt lat="43.96775" lon="2.89924">
        <ele>427.36280026032</ele>
        <time>2021-08-08T21:41:51.505Z</time>
      </trkpt>
      <trkpt lat="43.96792" lon="2.89925">
        <ele>429.82309705638</ele>
        <time>2021-08-08T21:42:13.476Z</time>
      </trkpt>
      <trkpt lat="43.96799" lon="2.89927">
        <ele>432.39400231877</ele>
        <time>2021-08-08T21:42:35.449Z</time>
      </trkpt>
      <trkpt lat="43.96813" lon="2.89933">
        <ele>434.7646539464</ele>
        <time>2021-08-08T21:42:57.427Z</time>
      </trkpt>
      <trkpt lat="43.96901" lon="2.89985">
        <ele>437.43158146242</ele>
        <time>2021-08-08T21:43:19.437Z</time>
      </trkpt>
      <trkpt lat="43.96942" lon="2.90003">
        <ele>439.74584496734</ele>
        <time>2021-08-08T21:43:41.462Z</time>
      </trkpt>
      <trkpt lat="43.96965" lon="2.90019">
        <ele>441.84374737717</ele>
        <time>2021-08-08T21:44:03.495Z</time>
      </trkpt>
      <trkpt lat="43.96982" lon="2.90033">
        <ele>443.93532651982</ele>
        <time>2021-08-08T21:44:25.535Z</time>
      </trkpt>
      <trkpt lat="43.97008" lon="2.90062">
        <ele>445.95701319868</ele>
        <time>2021-08-08T21:44:47.586Z</time>
      </trkpt>
      <trkpt lat="43.97062" lon="2.9013">
        <ele>447.97663430762</ele>
        <time>2021-08-08T21:45:09.661Z</time>
      </trkpt>
      <trkpt lat="43.97191" lon="2.90274">
        <ele>450.23618605756</ele>
        <time>2021-08-08T21:45:31.791Z</time>
      </trkpt>
      <trkpt lat="43.97207" lon="2.90293">
        <ele>452.31589906612</ele>
        <time>2021-08-08T21:45:53.928Z</time>
      </trkpt>
      <trkpt lat="43.97252" lon="2.90354">
        <ele>454.48054626942</ele>
        <time>2021-08-08T21:46:16.086Z</time>
      </trkpt>
      <trkpt lat="43.97266" lon="2.90369">
        <ele>456.49113311703</ele>
        <time>2021-08-08T21:46:38.250Z</time>
      </trkpt>
      <trkpt lat="43.97281" lon="2.90382">
        <ele>458.49146523792</ele>
        <time>2021-08-08T21:47:00.420Z</time>
      </trkpt>
      <trkpt lat="43.97323" lon="2.90412">
        <ele>460.54950057146</ele>
        <time>2021-08-08T21:47:22.606Z</time>
      </trkpt>
      <trkpt lat="43.9737" lon="2.90455">
        <ele>462.71373895205</ele>
        <time>2021-08-08T21:47:44.811Z</time>
      </trkpt>
      <trkpt lat="43.97438" lon="2.90526">
        <ele>464.96074832983</ele>
        <time>2021-08-08T21:48:07.044Z</time>
      </trkpt>
      <trkpt lat="43.97461" lon="2.90554">
        <ele>467.03908696484</ele>
        <time>2021-08-08T21:48:29.287Z</time>
      </trkpt>
      <trkpt lat="43.97471" lon="2.9057">
        <ele>469.00832362448</ele>
        <time>2021-08-08T21:48:51.535Z</time>
      </trkpt>
      <trkpt lat="43.97509" lon="2.90658">
        <ele>470.82216331149</ele>
        <time>2021-08-08T21:49:13.808Z</time>
      </trkpt>
      <trkpt lat="43.97522" lon="2.90702">
        <ele>472.7668296636</ele>
        <time>2021-08-08T21:49:36.093Z</time>
      </trkpt>
      <trkpt lat="43.97526" lon="2.90723">
        <ele>474.66041739639</ele>
        <time>2021-08-08T21:49:58.383Z</time>
      </trkpt>
      <trkpt lat="43.9753" lon="2.90763">
        <ele>476.63015445837</ele>
        <time>2021-08-08T21:50:20.683Z</time>
      </trkpt>
      <trkpt lat="43.97532" lon="2.90805">
        <ele>478.49435822813</ele>
        <time>2021-08-08T21:50:42.993Z</time>
      </trkpt>
      <trkpt lat="43.97531" lon="2.90942">
        <ele>480.42315189303</ele>
        <time>2021-08-08T21:51:05.336Z</time>
      </trkpt>
      <trkpt lat="43.97533" lon="2.91085">
        <ele>482.76410187953</ele>
        <time>2021-08-08T21:51:27.713Z</time>
      </trkpt>
      <trkpt lat="43.97542" lon="2.91183">
        <ele>484.71899240182</ele>
        <time>2021-08-08T21:51:50.114Z</time>
      </trkpt>
      <trkpt lat="43.97545" lon="2.91201">
        <ele>486.51210497591</ele>
        <time>2021-08-08T21:52:12.519Z</time>
      </trkpt>
      <trkpt lat="43.97552" lon="2.91224">
        <ele>488.3755559637</ele>
        <time>2021-08-08T21:52:34.930Z</time>
      </trkpt>
      <trkpt lat="43.97559" lon="2.9124">
        <ele>490.24620756587</ele>
        <time>2021-08-08T21:52:57.346Z</time>
      </trkpt>
      <trkpt lat="43.9757" lon="2.91259">
        <ele>492.14384438788</ele>
        <time>2021-08-08T21:53:19.768Z</time>
      </trkpt>
      <trkpt lat="43.97637" lon="2.91352">
        <ele>494.14583846578</ele>
        <time>2021-08-08T21:53:42.221Z</time>
      </trkpt>
      <trkpt lat="43.97669" lon="2.91391">
        <ele>496.04939318132</ele>
        <time>2021-08-08T21:54:04.689Z</time>
      </trkpt>
      <trkpt lat="43.97699" lon="2.91424">
        <ele>498.03300835203</ele>
        <time>2021-08-08T21:54:27.169Z</time>
      </trkpt>
      <trkpt lat="43.97714" lon="2.91438">
        <ele>500.05307823523</ele>
        <time>2021-08-08T21:54:49.655Z</time>
      </trkpt>
      <trkpt lat="43.97735" lon="2.91454">
        <ele>502.166697991</ele>
        <time>2021-08-08T21:55:12.149Z</time>
      </trkpt>
      <trkpt lat="43.97824" lon="2.91517">
        <ele>504.56496660564</ele>
        <time>2021-08-08T21:55:34.677Z</time>
      </trkpt>
      <trkpt lat="43.97838" lon="2.9153">
        <ele>506.76902153527</ele>
        <time>2021-08-08T21:55:57.210Z</time>
      </trkpt>
      <trkpt lat="43.97851" lon="2.91548">
        <ele>508.99509976083</ele>
        <time>2021-08-08T21:56:19.749Z</time>
      </trkpt>
      <trkpt lat="43.97873" lon="2.91586">
        <ele>511.31355117533</ele>
        <time>2021-08-08T21:56:42.300Z</time>
      </trkpt>
      <trkpt lat="43.97879" lon="2.91601">
        <ele>516.00835919227</ele>
        <time>2021-08-08T21:57:04.855Z</time>
      </trkpt>
      <trkpt lat="43.97896" lon="2.91656">
        <ele>518.51697714022</ele>
        <time>2021-08-08T21:57:27.425Z</time>
      </trkpt>
      <trkpt lat="43.97954" lon="2.91829">
        <ele>521.30393219728</ele>
        <time>2021-08-08T21:57:50.041Z</time>
      </trkpt>
      <trkpt lat="43.97961" lon="2.91854">
        <ele>523.95343657047</ele>
        <time>2021-08-08T21:58:12.663Z</time>
      </trkpt>
      <trkpt lat="43.97966" lon="2.91877">
        <ele>526.65467151226</ele>
        <time>2021-08-08T21:58:35.291Z</time>
      </trkpt>
      <trkpt lat="43.97968" lon="2.91912">
        <ele>529.42950516477</ele>
        <time>2021-08-08T21:58:57.927Z</time>
      </trkpt>
      <trkpt lat="43.97969" lon="2.91957">
        <ele>532.22609709707</ele>
        <time>2021-08-08T21:59:20.574Z</time>
      </trkpt>
      <trkpt lat="43.97966" lon="2.92038">
        <ele>535.23732190516</ele>
        <time>2021-08-08T21:59:43.241Z</time>
      </trkpt>
      <trkpt lat="43.97967" lon="2.92062">
        <ele>537.89393358827</ele>
        <time>2021-08-08T22:00:05.913Z</time>
      </trkpt>
      <trkpt lat="43.97984" lon="2.92209">
        <ele>540.96540802636</ele>
        <time>2021-08-08T22:00:28.621Z</time>
      </trkpt>
      <trkpt lat="43.97985" lon="2.92248">
        <ele>543.67615921766</ele>
        <time>2021-08-08T22:00:51.339Z</time>
      </trkpt>
      <trkpt lat="43.97984" lon="2.92293">
        <ele>546.2577199722</ele>
        <time>2021-08-08T22:01:14.067Z</time>
      </trkpt>
      <trkpt lat="43.97968" lon="2.92379">
        <ele>548.79830175814</ele>
        <time>2021-08-08T22:01:36.817Z</time>
      </trkpt>
      <trkpt lat="43.97966" lon="2.92409">
        <ele>550.99064820206</ele>
        <time>2021-08-08T22:01:59.574Z</time>
      </trkpt>
      <trkpt lat="43.97968" lon="2.92525">
        <ele>553.23557197624</ele>
        <time>2021-08-08T22:02:22.359Z</time>
      </trkpt>
      <trkpt lat="43.97981" lon="2.92728">
        <ele>555.32832329049</ele>
        <time>2021-08-08T22:02:45.193Z</time>
      </trkpt>
      <trkpt lat="43.97985" lon="2.92745">
        <ele>557.33420473225</ele>
        <time>2021-08-08T22:03:08.031Z</time>
      </trkpt>
      <trkpt lat="43.9799" lon="2.92758">
        <ele>559.24966045661</ele>
        <time>2021-08-08T22:03:30.873Z</time>
      </trkpt>
      <trkpt lat="43.98004" lon="2.92785">
        <ele>561.0496243478</ele>
        <time>2021-08-08T22:03:53.723Z</time>
      </trkpt>
      <trkpt lat="43.98061" lon="2.92846">
        <ele>562.83098384718</ele>
        <time>2021-08-08T22:04:16.597Z</time>
      </trkpt>
      <trkpt lat="43.98249" lon="2.93026">
        <ele>564.78318224692</ele>
        <time>2021-08-08T22:04:39.547Z</time>
      </trkpt>
      <trkpt lat="43.98307" lon="2.93083">
        <ele>566.48653806771</ele>
        <time>2021-08-08T22:05:02.521Z</time>
      </trkpt>
      <trkpt lat="43.98328" lon="2.93107">
        <ele>568.01884434992</ele>
        <time>2021-08-08T22:05:25.504Z</time>
      </trkpt>
      <trkpt lat="43.98445" lon="2.93267">
        <ele>569.47053690346</ele>
        <time>2021-08-08T22:05:48.542Z</time>
      </trkpt>
      <trkpt lat="43.98467" lon="2.93306">
        <ele>570.85561650422</ele>
        <time>2021-08-08T22:06:11.592Z</time>
      </trkpt>
      <trkpt lat="43.98466" lon="2.93317">
        <ele>572.0923955554</ele>
        <time>2021-08-08T22:06:34.644Z</time>
      </trkpt>
      <trkpt lat="43.98471" lon="2.93329">
        <ele>573.27897480098</ele>
        <time>2021-08-08T22:06:57.700Z</time>
      </trkpt>
      <trkpt lat="43.98478" lon="2.93334">
        <ele>574.41179491312</ele>
        <time>2021-08-08T22:07:20.758Z</time>
      </trkpt>
      <trkpt lat="43.98485" lon="2.93333">
        <ele>575.49220376957</ele>
        <time>2021-08-08T22:07:43.819Z</time>
      </trkpt>
      <trkpt lat="43.98511" lon="2.93354">
        <ele>576.58320217826</ele>
        <time>2021-08-08T22:08:06.890Z</time>
      </trkpt>
      <trkpt lat="43.98571" lon="2.93439">
        <ele>577.67111772182</ele>
        <time>2021-08-08T22:08:29.989Z</time>
      </trkpt>
      <trkpt lat="43.98645" lon="2.93538">
        <ele>578.63658399491</ele>
        <time>2021-08-08T22:08:53.123Z</time>
      </trkpt>
      <trkpt lat="43.98675" lon="2.93571">
        <ele>579.58713919417</ele>
        <time>2021-08-08T22:09:16.269Z</time>
      </trkpt>
      <trkpt lat="43.98692" lon="2.93585">
        <ele>580.51764236235</ele>
        <time>2021-08-08T22:09:39.422Z</time>
      </trkpt>
      <trkpt lat="43.98701" lon="2.93591">
        <ele>581.39696834492</ele>
        <time>2021-08-08T22:10:02.578Z</time>
      </trkpt>
      <trkpt lat="43.98732" lon="2.93605">
        <ele>582.32903598615</ele>
        <time>2021-08-08T22:10:25.745Z</time>
      </trkpt>
      <trkpt lat="43.9874" lon="2.93607">
        <ele>583.17950601195</ele>
        <time>2021-08-08T22:10:48.915Z</time>
      </trkpt>
      <trkpt lat="43.98755" lon="2.93609">
        <ele>584.05414361232</ele>
        <time>2021-08-08T22:11:12.090Z</time>
      </trkpt>
      <trkpt lat="43.98775" lon="2.93609">
        <ele>584.95303954741</ele>
        <time>2021-08-08T22:11:35.271Z</time>
      </trkpt>
      <trkpt lat="43.988" lon="2.93605">
        <ele>585.71050257122</ele>
        <time>2021-08-08T22:11:58.461Z</time>
      </trkpt>
      <trkpt lat="43.98887" lon="2.93577">
        <ele>586.66676128662</ele>
        <time>2021-08-08T22:12:21.681Z</time>
      </trkpt>
      <trkpt lat="43.98955" lon="2.93552">
        <ele>587.65256448989</ele>
        <time>2021-08-08T22:12:44.924Z</time>
      </trkpt>
      <trkpt lat="43.98976" lon="2.9354">
        <ele>588.46590513063</ele>
        <time>2021-08-08T22:13:08.175Z</time>
      </trkpt>
      <trkpt lat="43.98994" lon="2.93525">
        <ele>589.17332088593</ele>
        <time>2021-08-08T22:13:31.433Z</time>
      </trkpt>
      <trkpt lat="43.99008" lon="2.93553">
        <ele>589.67458719287</ele>
        <time>2021-08-08T22:13:54.699Z</time>
      </trkpt>
      <trkpt lat="43.99031" lon="2.93607">
        <ele>590.14634795755</ele>
        <time>2021-08-08T22:14:17.980Z</time>
      </trkpt>
      <trkpt lat="43.99033" lon="2.93619">
        <ele>590.74726300024</ele>
        <time>2021-08-08T22:14:41.264Z</time>
      </trkpt>
      <trkpt lat="43.99032" lon="2.93641">
        <ele>591.27493504652</ele>
        <time>2021-08-08T22:15:04.553Z</time>
      </trkpt>
      <trkpt lat="43.99029" lon="2.93658">
        <ele>591.78292185846</ele>
        <time>2021-08-08T22:15:27.846Z</time>
      </trkpt>
      <trkpt lat="43.98965" lon="2.93837">
        <ele>592.36640798811</ele>
        <time>2021-08-08T22:15:51.188Z</time>
      </trkpt>
      <trkpt lat="43.98946" lon="2.93937">
        <ele>592.96808576546</ele>
        <time>2021-08-08T22:16:14.554Z</time>
      </trkpt>
      <trkpt lat="43.98939" lon="2.9398">
        <ele>593.55648206517</ele>
        <time>2021-08-08T22:16:37.931Z</time>
      </trkpt>
      <trkpt lat="43.98936" lon="2.94014">
        <ele>594.19220169545</ele>
        <time>2021-08-08T22:17:01.316Z</time>
      </trkpt>
      <trkpt lat="43.98922" lon="2.94066">
        <ele>594.68989913532</ele>
        <time>2021-08-08T22:17:24.715Z</time>
      </trkpt>
      <trkpt lat="43.98918" lon="2.94099">
        <ele>595.23277698582</ele>
        <time>2021-08-08T22:17:48.122Z</time>
      </trkpt>
      <trkpt lat="43.98919" lon="2.94129">
        <ele>595.77390473253</ele>
        <time>2021-08-08T22:18:11.536Z</time>
      </trkpt>
      <trkpt lat="43.98929" lon="2.94178">
        <ele>596.52570501109</ele>
        <time>2021-08-08T22:18:34.962Z</time>
      </trkpt>
      <trkpt lat="43.9893" lon="2.94258">
        <ele>597.04635488463</ele>
        <time>2021-08-08T22:18:58.407Z</time>
      </trkpt>
      <trkpt lat="43.98937" lon="2.94314">
        <ele>597.55166199933</ele>
        <time>2021-08-08T22:19:21.866Z</time>
      </trkpt>
      <trkpt lat="43.98941" lon="2.94339">
        <ele>598.01791292846</ele>
        <time>2021-08-08T22:19:45.331Z</time>
      </trkpt>
      <trkpt lat="43.98954" lon="2.94392">
        <ele>598.42347800605</ele>
        <time>2021-08-08T22:20:08.810Z</time>
      </trkpt>
      <trkpt lat="43.98962" lon="2.94412">
        <ele>598.8031994294</ele>
        <time>2021-08-08T22:20:32.294Z</time>
      </trkpt>
      <trkpt lat="43.98972" lon="2.94425">
        <ele>599.15285526265</ele>
        <time>2021-08-08T22:20:55.783Z</time>
      </trkpt>
      <trkpt lat="43.99" lon="2.94453">
        <ele>599.42188545155</ele>
        <time>2021-08-08T22:21:19.283Z</time>
      </trkpt>
      <trkpt lat="43.99038" lon="2.94496">
        <ele>599.60854087917</ele>
        <time>2021-08-08T22:21:42.800Z</time>
      </trkpt>
      <trkpt lat="43.99103" lon="2.94588">
        <ele>599.54246590073</ele>
        <time>2021-08-08T22:22:06.348Z</time>
      </trkpt>
      <trkpt lat="43.99121" lon="2.94604">
        <ele>599.48144490125</ele>
        <time>2021-08-08T22:22:29.903Z</time>
      </trkpt>
      <trkpt lat="43.99137" lon="2.94608">
        <ele>599.31404358874</ele>
        <time>2021-08-08T22:22:53.463Z</time>
      </trkpt>
      <trkpt lat="43.99157" lon="2.94608">
        <ele>599.04982879243</ele>
        <time>2021-08-08T22:23:17.030Z</time>
      </trkpt>
      <trkpt lat="43.99173" lon="2.94606">
        <ele>598.61303926535</ele>
        <time>2021-08-08T22:23:40.602Z</time>
      </trkpt>
      <trkpt lat="43.99191" lon="2.94601">
        <ele>598.04477759161</ele>
        <time>2021-08-08T22:24:04.180Z</time>
      </trkpt>
      <trkpt lat="43.99265" lon="2.94573">
        <ele>597.07801152058</ele>
        <time>2021-08-08T22:24:27.784Z</time>
      </trkpt>
      <trkpt lat="43.99304" lon="2.94567">
        <ele>595.99268109158</ele>
        <time>2021-08-08T22:24:51.401Z</time>
      </trkpt>
      <trkpt lat="43.99335" lon="2.94571">
        <ele>594.68902988129</ele>
        <time>2021-08-08T22:25:15.028Z</time>
      </trkpt>
      <trkpt lat="43.99364" lon="2.94582">
        <ele>593.18005011271</ele>
        <time>2021-08-08T22:25:38.665Z</time>
      </trkpt>
      <trkpt lat="43.99402" lon="2.94604">
        <ele>591.46306980731</ele>
        <time>2021-08-08T22:26:02.316Z</time>
      </trkpt>
      <trkpt lat="43.99437" lon="2.9463">
        <ele>589.59830180348</ele>
        <time>2021-08-08T22:26:25.980Z</time>
      </trkpt>
      <trkpt lat="43.99504" lon="2.94698">
        <ele>587.57127879874</ele>
        <time>2021-08-08T22:26:49.672Z</time>
      </trkpt>
      <trkpt lat="43.99527" lon="2.94726">
        <ele>585.63593631146</ele>
        <time>2021-08-08T22:27:13.374Z</time>
      </trkpt>
      <trkpt lat="43.99534" lon="2.94738">
        <ele>583.68021982496</ele>
        <time>2021-08-08T22:27:37.080Z</time>
      </trkpt>
      <trkpt lat="43.99565" lon="2.94808">
        <ele>581.35984265735</ele>
        <time>2021-08-08T22:28:00.806Z</time>
      </trkpt>
      <trkpt lat="43.99576" lon="2.94824">
        <ele>579.30895908683</ele>
        <time>2021-08-08T22:28:24.537Z</time>
      </trkpt>
      <trkpt lat="43.99604" lon="2.94852">
        <ele>577.13764160833</ele>
        <time>2021-08-08T22:28:48.280Z</time>
      </trkpt>
      <trkpt lat="43.99619" lon="2.94863">
        <ele>574.99702023527</ele>
        <time>2021-08-08T22:29:12.028Z</time>
      </trkpt>
      <trkpt lat="43.99652" lon="2.94877">
        <ele>572.83249686622</ele>
        <time>2021-08-08T22:29:35.788Z</time>
      </trkpt>
      <trkpt lat="43.99676" lon="2.94882">
        <ele>570.77899270574</ele>
        <time>2021-08-08T22:29:59.556Z</time>
      </trkpt>
      <trkpt lat="43.99746" lon="2.94903">
        <ele>568.65991241383</ele>
        <time>2021-08-08T22:30:23.348Z</time>
      </trkpt>
      <trkpt lat="43.9979" lon="2.94921">
        <ele>566.54952808252</ele>
        <time>2021-08-08T22:30:47.155Z</time>
      </trkpt>
      <trkpt lat="43.99849" lon="2.9496">
        <ele>564.27207082014</ele>
        <time>2021-08-08T22:31:10.984Z</time>
      </trkpt>
      <trkpt lat="43.99874" lon="2.9498">
        <ele>562.36696279835</ele>
        <time>2021-08-08T22:31:34.822Z</time>
      </trkpt>
      <trkpt lat="43.99897" lon="2.95002">
        <ele>560.5685687916</ele>
        <time>2021-08-08T22:31:58.670Z</time>
      </trkpt>
      <trkpt lat="43.99899" lon="2.95009">
        <ele>558.89752680737</ele>
        <time>2021-08-08T22:32:22.520Z</time>
      </trkpt>
      <trkpt lat="43.99898" lon="2.95014">
        <ele>557.32003955366</ele>
        <time>2021-08-08T22:32:46.371Z</time>
      </trkpt>
      <trkpt lat="43.99896" lon="2.95016">
        <ele>555.8314793684</ele>
        <time>2021-08-08T22:33:10.223Z</time>
      </trkpt>
      <trkpt lat="43.99892" lon="2.95016">
        <ele>554.41568979758</ele>
        <time>2021-08-08T22:33:34.076Z</time>
      </trkpt>
      <trkpt lat="43.99886" lon="2.95013">
        <ele>553.06891370151</ele>
        <time>2021-08-08T22:33:57.931Z</time>
      </trkpt>
      <trkpt lat="43.99854" lon="2.94989">
        <ele>551.86079337657</ele>
        <time>2021-08-08T22:34:21.798Z</time>
      </trkpt>
      <trkpt lat="43.99832" lon="2.94979">
        <ele>550.72280257957</ele>
        <time>2021-08-08T22:34:45.673Z</time>
      </trkpt>
      <trkpt lat="43.998" lon="2.94969">
        <ele>549.53456962318</ele>
        <time>2021-08-08T22:35:09.559Z</time>
      </trkpt>
      <trkpt lat="43.9969" lon="2.94943">
        <ele>548.55480364004</ele>
        <time>2021-08-08T22:35:33.482Z</time>
      </trkpt>
      <trkpt lat="43.99684" lon="2.94943">
        <ele>547.29274432915</ele>
        <time>2021-08-08T22:35:57.407Z</time>
      </trkpt>
      <trkpt lat="43.99681" lon="2.94945">
        <ele>545.98742143636</ele>
        <time>2021-08-08T22:36:21.333Z</time>
      </trkpt>
      <trkpt lat="43.9968" lon="2.94951">
        <ele>544.61191638607</ele>
        <time>2021-08-08T22:36:45.261Z</time>
      </trkpt>
      <trkpt lat="43.99682" lon="2.94955">
        <ele>543.19718737811</ele>
        <time>2021-08-08T22:37:09.190Z</time>
      </trkpt>
      <trkpt lat="43.9973" lon="2.9497">
        <ele>541.48188822005</ele>
        <time>2021-08-08T22:37:33.135Z</time>
      </trkpt>
      <trkpt lat="43.99745" lon="2.94977">
        <ele>539.85213477724</ele>
        <time>2021-08-08T22:37:57.085Z</time>
      </trkpt>
      <trkpt lat="43.99778" lon="2.94997">
        <ele>538.05740604937</ele>
        <time>2021-08-08T22:38:21.047Z</time>
      </trkpt>
      <trkpt lat="43.9981" lon="2.95021">
        <ele>536.21688688252</ele>
        <time>2021-08-08T22:38:45.022Z</time>
      </trkpt>
      <trkpt lat="43.99833" lon="2.95046">
        <ele>534.3043129027</ele>
        <time>2021-08-08T22:39:09.006Z</time>
      </trkpt>
      <trkpt lat="43.99845" lon="2.95066">
        <ele>532.33879445442</ele>
        <time>2021-08-08T22:39:32.997Z</time>
      </trkpt>
      <trkpt lat="43.99872" lon="2.9512">
        <ele>530.21825695064</ele>
        <time>2021-08-08T22:39:57.003Z</time>
      </trkpt>
      <trkpt lat="43.9988" lon="2.95131">
        <ele>528.24586834171</ele>
        <time>2021-08-08T22:40:21.013Z</time>
      </trkpt>
      <trkpt lat="43.99889" lon="2.9514">
        <ele>526.20347847231</ele>
        <time>2021-08-08T22:40:45.027Z</time>
      </trkpt>
      <trkpt lat="43.99927" lon="2.95172">
        <ele>524.00547911276</ele>
        <time>2021-08-08T22:41:09.056Z</time>
      </trkpt>
      <trkpt lat="43.9995" lon="2.95188">
        <ele>521.76392009661</ele>
        <time>2021-08-08T22:41:33.093Z</time>
      </trkpt>
      <trkpt lat="43.99988" lon="2.95211">
        <ele>519.46288102425</ele>
        <time>2021-08-08T22:41:57.144Z</time>
      </trkpt>
      <trkpt lat="44.00028" lon="2.95241">
        <ele>517.08664954749</ele>
        <time>2021-08-08T22:42:21.210Z</time>
      </trkpt>
      <trkpt lat="44.00076" lon="2.95282">
        <ele>514.56131813415</ele>
        <time>2021-08-08T22:42:45.295Z</time>
      </trkpt>
      <trkpt lat="44.00095" lon="2.95304">
        <ele>512.10564263715</ele>
        <time>2021-08-08T22:43:09.388Z</time>
      </trkpt>
      <trkpt lat="44.00142" lon="2.95375">
        <ele>509.29607374795</ele>
        <time>2021-08-08T22:43:33.504Z</time>
      </trkpt>
      <trkpt lat="44.00157" lon="2.95393">
        <ele>506.7957739305</ele>
        <time>2021-08-08T22:43:57.627Z</time>
      </trkpt>
      <trkpt lat="44.00206" lon="2.95442">
        <ele>504.12466537386</ele>
        <time>2021-08-08T22:44:21.770Z</time>
      </trkpt>
      <trkpt lat="44.00222" lon="2.95462">
        <ele>501.62654814006</ele>
        <time>2021-08-08T22:44:45.920Z</time>
      </trkpt>
      <trkpt lat="44.00247" lon="2.95501">
        <ele>499.10577123038</ele>
        <time>2021-08-08T22:45:10.083Z</time>
      </trkpt>
      <trkpt lat="44.00267" lon="2.95528">
        <ele>496.5007543838</ele>
        <time>2021-08-08T22:45:34.255Z</time>
      </trkpt>
      <trkpt lat="44.00294" lon="2.95552">
        <ele>493.90483217832</ele>
        <time>2021-08-08T22:45:58.438Z</time>
      </trkpt>
      <trkpt lat="44.00319" lon="2.9557">
        <ele>491.34725260481</ele>
        <time>2021-08-08T22:46:22.630Z</time>
      </trkpt>
      <trkpt lat="44.00334" lon="2.95583">
        <ele>488.80749125283</ele>
        <time>2021-08-08T22:46:46.828Z</time>
      </trkpt>
      <trkpt lat="44.00357" lon="2.95606">
        <ele>486.23625930835</ele>
        <time>2021-08-08T22:47:11.036Z</time>
      </trkpt>
      <trkpt lat="44.00411" lon="2.95678">
        <ele>483.45235353793</ele>
        <time>2021-08-08T22:47:35.269Z</time>
      </trkpt>
      <trkpt lat="44.00437" lon="2.95717">
        <ele>480.64683311674</ele>
        <time>2021-08-08T22:47:59.514Z</time>
      </trkpt>
      <trkpt lat="44.00447" lon="2.95739">
        <ele>478.04832335098</ele>
        <time>2021-08-08T22:48:23.766Z</time>
      </trkpt>
      <trkpt lat="44.00453" lon="2.9576">
        <ele>475.49174582931</ele>
        <time>2021-08-08T22:48:48.023Z</time>
      </trkpt>
      <trkpt lat="44.00457" lon="2.95783">
        <ele>472.97839599332</ele>
        <time>2021-08-08T22:49:12.286Z</time>
      </trkpt>
      <trkpt lat="44.00457" lon="2.95807">
        <ele>470.40268856055</ele>
        <time>2021-08-08T22:49:36.555Z</time>
      </trkpt>
      <trkpt lat="44.00454" lon="2.95824">
        <ele>467.83140147317</ele>
        <time>2021-08-08T22:50:00.828Z</time>
      </trkpt>
      <trkpt lat="44.00435" lon="2.95887">
        <ele>465.23569209005</ele>
        <time>2021-08-08T22:50:25.117Z</time>
      </trkpt>
      <trkpt lat="44.00432" lon="2.95909">
        <ele>462.70893063802</ele>
        <time>2021-08-08T22:50:49.412Z</time>
      </trkpt>
      <trkpt lat="44.00435" lon="2.95941">
        <ele>460.31532839923</ele>
        <time>2021-08-08T22:51:13.714Z</time>
      </trkpt>
      <trkpt lat="44.00438" lon="2.95952">
        <ele>457.81457477198</ele>
        <time>2021-08-08T22:51:38.019Z</time>
      </trkpt>
      <trkpt lat="44.0045" lon="2.95974">
        <ele>455.29756775169</ele>
        <time>2021-08-08T22:52:02.331Z</time>
      </trkpt>
      <trkpt lat="44.00501" lon="2.96043">
        <ele>452.59759324093</ele>
        <time>2021-08-08T22:52:26.667Z</time>
      </trkpt>
      <trkpt lat="44.00517" lon="2.96071">
        <ele>449.97126029042</ele>
        <time>2021-08-08T22:52:51.011Z</time>
      </trkpt>
      <trkpt lat="44.00529" lon="2.96101">
        <ele>447.41781314106</ele>
        <time>2021-08-08T22:53:15.363Z</time>
      </trkpt>
      <trkpt lat="44.00532" lon="2.96118">
        <ele>444.97796643938</ele>
        <time>2021-08-08T22:53:39.720Z</time>
      </trkpt>
      <trkpt lat="44.00534" lon="2.96145">
        <ele>442.51577919576</ele>
        <time>2021-08-08T22:54:04.083Z</time>
      </trkpt>
      <trkpt lat="44.00534" lon="2.96183">
        <ele>440.00176400237</ele>
        <time>2021-08-08T22:54:28.455Z</time>
      </trkpt>
      <trkpt lat="44.00531" lon="2.96235">
        <ele>437.40527404652</ele>
        <time>2021-08-08T22:54:52.840Z</time>
      </trkpt>
      <trkpt lat="44.00535" lon="2.96275">
        <ele>434.85883340539</ele>
        <time>2021-08-08T22:55:17.235Z</time>
      </trkpt>
      <trkpt lat="44.0055" lon="2.96333">
        <ele>432.22706120242</ele>
        <time>2021-08-08T22:55:41.644Z</time>
      </trkpt>
      <trkpt lat="44.00559" lon="2.96356">
        <ele>429.78229914249</ele>
        <time>2021-08-08T22:56:06.060Z</time>
      </trkpt>
      <trkpt lat="44.00571" lon="2.96374">
        <ele>427.43182366712</ele>
        <time>2021-08-08T22:56:30.482Z</time>
      </trkpt>
      <trkpt lat="44.00587" lon="2.96379">
        <ele>425.36561651607</ele>
        <time>2021-08-08T22:56:54.909Z</time>
      </trkpt>
      <trkpt lat="44.00613" lon="2.96376">
        <ele>423.51197281587</ele>
        <time>2021-08-08T22:57:19.345Z</time>
      </trkpt>
      <trkpt lat="44.00656" lon="2.96367">
        <ele>421.67200558071</ele>
        <time>2021-08-08T22:57:43.795Z</time>
      </trkpt>
      <trkpt lat="44.00801" lon="2.96319">
        <ele>420.04300384429</ele>
        <time>2021-08-08T22:58:08.295Z</time>
      </trkpt>
      <trkpt lat="44.00826" lon="2.96313">
        <ele>418.23085277568</ele>
        <time>2021-08-08T22:58:32.803Z</time>
      </trkpt>
      <trkpt lat="44.00851" lon="2.96314">
        <ele>416.37211193815</ele>
        <time>2021-08-08T22:58:57.320Z</time>
      </trkpt>
      <trkpt lat="44.009" lon="2.96325">
        <ele>414.46501236662</ele>
        <time>2021-08-08T22:59:21.853Z</time>
      </trkpt>
      <trkpt lat="44.0093" lon="2.96323">
        <ele>412.8776095263</ele>
        <time>2021-08-08T22:59:46.396Z</time>
      </trkpt>
      <trkpt lat="44.00936" lon="2.96328">
        <ele>411.37636722354</ele>
        <time>2021-08-08T23:00:10.942Z</time>
      </trkpt>
      <trkpt lat="44.00939" lon="2.96334">
        <ele>409.99328713997</ele>
        <time>2021-08-08T23:00:35.489Z</time>
      </trkpt>
      <trkpt lat="44.00993" lon="2.96324">
        <ele>408.74976667801</ele>
        <time>2021-08-08T23:01:00.055Z</time>
      </trkpt>
      <trkpt lat="44.01015" lon="2.96323">
        <ele>408.27356654632</ele>
        <time>2021-08-08T23:01:24.628Z</time>
      </trkpt>
      <trkpt lat="44.0102" lon="2.96325">
        <ele>407.28616702058</ele>
        <time>2021-08-08T23:01:49.203Z</time>
      </trkpt>
      <trkpt lat="44.01057" lon="2.96325">
        <ele>406.39685710166</ele>
        <time>2021-08-08T23:02:13.790Z</time>
      </trkpt>
      <trkpt lat="44.01074" lon="2.96324">
        <ele>405.57197293176</ele>
        <time>2021-08-08T23:02:38.383Z</time>
      </trkpt>
      <trkpt lat="44.0108" lon="2.96322">
        <ele>405.75343105846</ele>
        <time>2021-08-08T23:03:02.978Z</time>
      </trkpt>
      <trkpt lat="44.01123" lon="2.96322">
        <ele>404.88249440925</ele>
        <time>2021-08-08T23:03:27.587Z</time>
      </trkpt>
      <trkpt lat="44.01142" lon="2.96326">
        <ele>404.03538721493</ele>
        <time>2021-08-08T23:03:52.202Z</time>
      </trkpt>
      <trkpt lat="44.01156" lon="2.96337">
        <ele>403.15625639733</ele>
        <time>2021-08-08T23:04:16.823Z</time>
      </trkpt>
      <trkpt lat="44.01215" lon="2.96411">
        <ele>402.35009072001</ele>
        <time>2021-08-08T23:04:41.470Z</time>
      </trkpt>
      <trkpt lat="44.01218" lon="2.96422">
        <ele>401.81014025978</ele>
        <time>2021-08-08T23:05:06.120Z</time>
      </trkpt>
      <trkpt lat="44.01217" lon="2.96434">
        <ele>401.39726150421</ele>
        <time>2021-08-08T23:05:30.773Z</time>
      </trkpt>
      <trkpt lat="44.01218" lon="2.96451">
        <ele>400.96840284046</ele>
        <time>2021-08-08T23:05:55.430Z</time>
      </trkpt>
      <trkpt lat="44.01225" lon="2.96466">
        <ele>400.70864227204</ele>
        <time>2021-08-08T23:06:20.092Z</time>
      </trkpt>
      <trkpt lat="44.01232" lon="2.96473">
        <ele>400.53223587784</ele>
        <time>2021-08-08T23:06:44.756Z</time>
      </trkpt>
      <trkpt lat="44.01244" lon="2.96479">
        <ele>400.86951086207</ele>
        <time>2021-08-08T23:07:09.425Z</time>
      </trkpt>
      <trkpt lat="44.01273" lon="2.96499">
        <ele>400.92045457468</ele>
        <time>2021-08-08T23:07:34.104Z</time>
      </trkpt>
      <trkpt lat="44.0128" lon="2.96502">
        <ele>401.03444146319</ele>
        <time>2021-08-08T23:07:58.786Z</time>
      </trkpt>
      <trkpt lat="44.01286" lon="2.96502">
        <ele>400.59859506512</ele>
        <time>2021-08-08T23:08:23.470Z</time>
      </trkpt>
      <trkpt lat="44.01325" lon="2.96522">
        <ele>401.41771423554</ele>
        <time>2021-08-08T23:08:48.168Z</time>
      </trkpt>
      <trkpt lat="44.01603" lon="2.96674">
        <ele>401.24193101028</ele>
        <time>2021-08-08T23:09:12.965Z</time>
      </trkpt>
      <trkpt lat="44.01632" lon="2.96686">
        <ele>401.59224601779</ele>
        <time>2021-08-08T23:09:37.772Z</time>
      </trkpt>
      <trkpt lat="44.01647" lon="2.9669">
        <ele>401.99384038973</ele>
        <time>2021-08-08T23:10:02.585Z</time>
      </trkpt>
      <trkpt lat="44.01678" lon="2.96691">
        <ele>402.49393555759</ele>
        <time>2021-08-08T23:10:27.408Z</time>
      </trkpt>
      <trkpt lat="44.01699" lon="2.96688">
        <ele>402.97854740466</ele>
        <time>2021-08-08T23:10:52.238Z</time>
      </trkpt>
      <trkpt lat="44.01719" lon="2.96682">
        <ele>403.42412745169</ele>
        <time>2021-08-08T23:11:17.075Z</time>
      </trkpt>
      <trkpt lat="44.01731" lon="2.96676">
        <ele>403.88897806951</ele>
        <time>2021-08-08T23:11:41.916Z</time>
      </trkpt>
      <trkpt lat="44.01748" lon="2.96665">
        <ele>404.42900835715</ele>
        <time>2021-08-08T23:12:06.763Z</time>
      </trkpt>
      <trkpt lat="44.01813" lon="2.96613">
        <ele>405.12026384724</ele>
        <time>2021-08-08T23:12:31.635Z</time>
      </trkpt>
      <trkpt lat="44.01844" lon="2.96592">
        <ele>405.35114816341</ele>
        <time>2021-08-08T23:12:56.519Z</time>
      </trkpt>
      <trkpt lat="44.02028" lon="2.96495">
        <ele>406.2961113373</ele>
        <time>2021-08-08T23:13:21.468Z</time>
      </trkpt>
      <trkpt lat="44.02095" lon="2.96463">
        <ele>406.57562734187</ele>
        <time>2021-08-08T23:13:46.441Z</time>
      </trkpt>
      <trkpt lat="44.02141" lon="2.96446">
        <ele>406.86836541005</ele>
        <time>2021-08-08T23:14:11.430Z</time>
      </trkpt>
      <trkpt lat="44.02183" lon="2.96435">
        <ele>406.98419670552</ele>
        <time>2021-08-08T23:14:36.433Z</time>
      </trkpt>
      <trkpt lat="44.02234" lon="2.96429">
        <ele>407.17844149153</ele>
        <time>2021-08-08T23:15:01.453Z</time>
      </trkpt>
      <trkpt lat="44.02264" lon="2.96429">
        <ele>407.37024622975</ele>
        <time>2021-08-08T23:15:26.483Z</time>
      </trkpt>
      <trkpt lat="44.02309" lon="2.96433">
        <ele>407.5531775307</ele>
        <time>2021-08-08T23:15:51.528Z</time>
      </trkpt>
      <trkpt lat="44.02698" lon="2.96504">
        <ele>407.3795616397</ele>
        <time>2021-08-08T23:16:16.704Z</time>
      </trkpt>
      <trkpt lat="44.02732" lon="2.96503">
        <ele>407.61116365483</ele>
        <time>2021-08-08T23:16:41.891Z</time>
      </trkpt>
      <trkpt lat="44.02749" lon="2.96499">
        <ele>407.86460769516</ele>
        <time>2021-08-08T23:17:07.084Z</time>
      </trkpt>
      <trkpt lat="44.02807" lon="2.96479">
        <ele>408.29889674163</ele>
        <time>2021-08-08T23:17:32.297Z</time>
      </trkpt>
      <trkpt lat="44.02833" lon="2.96474">
        <ele>408.38031808067</ele>
        <time>2021-08-08T23:17:57.519Z</time>
      </trkpt>
      <trkpt lat="44.02846" lon="2.96473">
        <ele>408.40189605968</ele>
        <time>2021-08-08T23:18:22.745Z</time>
      </trkpt>
      <trkpt lat="44.02905" lon="2.96478">
        <ele>408.24527917073</ele>
        <time>2021-08-08T23:18:47.991Z</time>
      </trkpt>
      <trkpt lat="44.02941" lon="2.96479">
        <ele>408.02741735358</ele>
        <time>2021-08-08T23:19:13.249Z</time>
      </trkpt>
      <trkpt lat="44.0297" lon="2.96473">
        <ele>408.03970993918</ele>
        <time>2021-08-08T23:19:38.517Z</time>
      </trkpt>
      <trkpt lat="44.02995" lon="2.96465">
        <ele>408.0317671735</ele>
        <time>2021-08-08T23:20:03.793Z</time>
      </trkpt>
      <trkpt lat="44.0301" lon="2.96458">
        <ele>407.97247762847</ele>
        <time>2021-08-08T23:20:29.074Z</time>
      </trkpt>
      <trkpt lat="44.03019" lon="2.96453">
        <ele>407.89288852576</ele>
        <time>2021-08-08T23:20:54.359Z</time>
      </trkpt>
      <trkpt lat="44.03047" lon="2.96432">
        <ele>407.86668288448</ele>
        <time>2021-08-08T23:21:19.654Z</time>
      </trkpt>
      <trkpt lat="44.03077" lon="2.96399">
        <ele>407.87780196088</ele>
        <time>2021-08-08T23:21:44.962Z</time>
      </trkpt>
      <trkpt lat="44.03145" lon="2.96306">
        <ele>408.03172430659</ele>
        <time>2021-08-08T23:22:10.302Z</time>
      </trkpt>
      <trkpt lat="44.03174" lon="2.96274">
        <ele>407.56486796549</ele>
        <time>2021-08-08T23:22:35.654Z</time>
      </trkpt>
      <trkpt lat="44.03197" lon="2.96252">
        <ele>407.09813806185</ele>
        <time>2021-08-08T23:23:01.016Z</time>
      </trkpt>
      <trkpt lat="44.03226" lon="2.9623">
        <ele>406.81076476899</ele>
        <time>2021-08-08T23:23:26.389Z</time>
      </trkpt>
      <trkpt lat="44.03236" lon="2.96223">
        <ele>406.39806074676</ele>
        <time>2021-08-08T23:23:51.765Z</time>
      </trkpt>
      <trkpt lat="44.03279" lon="2.962">
        <ele>406.07255837983</ele>
        <time>2021-08-08T23:24:17.157Z</time>
      </trkpt>
      <trkpt lat="44.03328" lon="2.96184">
        <ele>405.50583145927</ele>
        <time>2021-08-08T23:24:42.565Z</time>
      </trkpt>
      <trkpt lat="44.03359" lon="2.96178">
        <ele>404.76839952118</ele>
        <time>2021-08-08T23:25:07.984Z</time>
      </trkpt>
      <trkpt lat="44.03399" lon="2.96174">
        <ele>404.02876875199</ele>
        <time>2021-08-08T23:25:33.416Z</time>
      </trkpt>
      <trkpt lat="44.0348" lon="2.96171">
        <ele>403.2316379611</ele>
        <time>2021-08-08T23:25:58.875Z</time>
      </trkpt>
      <trkpt lat="44.03511" lon="2.96174">
        <ele>402.36559262218</ele>
        <time>2021-08-08T23:26:24.345Z</time>
      </trkpt>
      <trkpt lat="44.03547" lon="2.96183">
        <ele>401.47105919537</ele>
        <time>2021-08-08T23:26:49.827Z</time>
      </trkpt>
      <trkpt lat="44.03571" lon="2.96194">
        <ele>400.52120013972</ele>
        <time>2021-08-08T23:27:15.317Z</time>
      </trkpt>
      <trkpt lat="44.03593" lon="2.96208">
        <ele>399.48450862068</ele>
        <time>2021-08-08T23:27:40.815Z</time>
      </trkpt>
      <trkpt lat="44.03613" lon="2.96224">
        <ele>398.41759020174</ele>
        <time>2021-08-08T23:28:06.321Z</time>
      </trkpt>
      <trkpt lat="44.03632" lon="2.96244">
        <ele>397.38261701544</ele>
        <time>2021-08-08T23:28:31.835Z</time>
      </trkpt>
      <trkpt lat="44.03652" lon="2.96271">
        <ele>396.3342686333</ele>
        <time>2021-08-08T23:28:57.358Z</time>
      </trkpt>
      <trkpt lat="44.03707" lon="2.96364">
        <ele>395.18554898564</ele>
        <time>2021-08-08T23:29:22.910Z</time>
      </trkpt>
      <trkpt lat="44.03724" lon="2.96389">
        <ele>394.27981977122</ele>
        <time>2021-08-08T23:29:48.470Z</time>
      </trkpt>
      <trkpt lat="44.0375" lon="2.96419">
        <ele>393.41823513548</ele>
        <time>2021-08-08T23:30:14.042Z</time>
      </trkpt>
      <trkpt lat="44.0376" lon="2.96428">
        <ele>392.58588499938</ele>
        <time>2021-08-08T23:30:39.618Z</time>
      </trkpt>
      <trkpt lat="44.03782" lon="2.96446">
        <ele>391.76887888827</ele>
        <time>2021-08-08T23:31:05.202Z</time>
      </trkpt>
      <trkpt lat="44.03936" lon="2.96554">
        <ele>391.28786148286</ele>
        <time>2021-08-08T23:31:30.844Z</time>
      </trkpt>
      <trkpt lat="44.03967" lon="2.96579">
        <ele>390.52529649349</ele>
        <time>2021-08-08T23:31:56.498Z</time>
      </trkpt>
      <trkpt lat="44.03985" lon="2.96596">
        <ele>389.76931029295</ele>
        <time>2021-08-08T23:32:22.159Z</time>
      </trkpt>
      <trkpt lat="44.04042" lon="2.96658">
        <ele>388.89684525284</ele>
        <time>2021-08-08T23:32:47.844Z</time>
      </trkpt>
      <trkpt lat="44.04079" lon="2.96695">
        <ele>388.21856049384</ele>
        <time>2021-08-08T23:33:13.544Z</time>
      </trkpt>
      <trkpt lat="44.04098" lon="2.96713">
        <ele>387.63748252691</ele>
        <time>2021-08-08T23:33:39.252Z</time>
      </trkpt>
      <trkpt lat="44.04127" lon="2.96736">
        <ele>387.10031288376</ele>
        <time>2021-08-08T23:34:04.971Z</time>
      </trkpt>
      <trkpt lat="44.0417" lon="2.96765">
        <ele>386.61630345449</ele>
        <time>2021-08-08T23:34:30.706Z</time>
      </trkpt>
      <trkpt lat="44.04208" lon="2.96788">
        <ele>386.13401866833</ele>
        <time>2021-08-08T23:34:56.455Z</time>
      </trkpt>
      <trkpt lat="44.04239" lon="2.96805">
        <ele>385.63943171838</ele>
        <time>2021-08-08T23:35:22.215Z</time>
      </trkpt>
      <trkpt lat="44.04314" lon="2.96839">
        <ele>385.31006756528</ele>
        <time>2021-08-08T23:35:48.001Z</time>
      </trkpt>
      <trkpt lat="44.04328" lon="2.96847">
        <ele>384.89885603511</ele>
        <time>2021-08-08T23:36:13.792Z</time>
      </trkpt>
      <trkpt lat="44.04353" lon="2.96868">
        <ele>384.45452615058</ele>
        <time>2021-08-08T23:36:39.593Z</time>
      </trkpt>
      <trkpt lat="44.0439" lon="2.96908">
        <ele>384.05880965185</ele>
        <time>2021-08-08T23:37:05.410Z</time>
      </trkpt>
      <trkpt lat="44.04409" lon="2.96931">
        <ele>383.70321132698</ele>
        <time>2021-08-08T23:37:31.235Z</time>
      </trkpt>
      <trkpt lat="44.04434" lon="2.96969">
        <ele>383.33288117876</ele>
        <time>2021-08-08T23:37:57.073Z</time>
      </trkpt>
      <trkpt lat="44.04454" lon="2.97007">
        <ele>383.04547010158</ele>
        <time>2021-08-08T23:38:22.922Z</time>
      </trkpt>
      <trkpt lat="44.04471" lon="2.97048">
        <ele>382.84576902587</ele>
        <time>2021-08-08T23:38:48.782Z</time>
      </trkpt>
      <trkpt lat="44.04483" lon="2.97087">
        <ele>382.63322747088</ele>
        <time>2021-08-08T23:39:14.652Z</time>
      </trkpt>
      <trkpt lat="44.04491" lon="2.9712">
        <ele>382.29444387006</ele>
        <time>2021-08-08T23:39:40.531Z</time>
      </trkpt>
      <trkpt lat="44.04497" lon="2.97154">
        <ele>381.98349426184</ele>
        <time>2021-08-08T23:40:06.418Z</time>
      </trkpt>
      <trkpt lat="44.04507" lon="2.97225">
        <ele>381.70892785261</ele>
        <time>2021-08-08T23:40:32.323Z</time>
      </trkpt>
      <trkpt lat="44.04518" lon="2.97352">
        <ele>381.33486809575</ele>
        <time>2021-08-08T23:40:58.258Z</time>
      </trkpt>
      <trkpt lat="44.04525" lon="2.97408">
        <ele>380.95458244005</ele>
        <time>2021-08-08T23:41:24.207Z</time>
      </trkpt>
      <trkpt lat="44.04541" lon="2.97466">
        <ele>380.72397648837</ele>
        <time>2021-08-08T23:41:50.171Z</time>
      </trkpt>
      <trkpt lat="44.04558" lon="2.97506">
        <ele>380.57301349194</ele>
        <time>2021-08-08T23:42:16.146Z</time>
      </trkpt>
      <trkpt lat="44.04572" lon="2.97531">
        <ele>380.35504409895</ele>
        <time>2021-08-08T23:42:42.129Z</time>
      </trkpt>
      <trkpt lat="44.04589" lon="2.97556">
        <ele>380.16940443182</ele>
        <time>2021-08-08T23:43:08.120Z</time>
      </trkpt>
      <trkpt lat="44.04612" lon="2.97583">
        <ele>380.03055045162</ele>
        <time>2021-08-08T23:43:34.121Z</time>
      </trkpt>
      <trkpt lat="44.0463" lon="2.97599">
        <ele>379.92146489042</ele>
        <time>2021-08-08T23:44:00.129Z</time>
      </trkpt>
      <trkpt lat="44.04648" lon="2.97612">
        <ele>379.83599551348</ele>
        <time>2021-08-08T23:44:26.144Z</time>
      </trkpt>
      <trkpt lat="44.04845" lon="2.97734">
        <ele>379.70253037023</ele>
        <time>2021-08-08T23:44:52.231Z</time>
      </trkpt>
      <trkpt lat="44.05005" lon="2.97817">
        <ele>379.62547448897</ele>
        <time>2021-08-08T23:45:18.375Z</time>
      </trkpt>
      <trkpt lat="44.05036" lon="2.97837">
        <ele>379.51609886285</ele>
        <time>2021-08-08T23:45:44.530Z</time>
      </trkpt>
      <trkpt lat="44.05163" lon="2.9793">
        <ele>379.43689575279</ele>
        <time>2021-08-08T23:46:10.733Z</time>
      </trkpt>
      <trkpt lat="44.05186" lon="2.97944">
        <ele>379.38848803908</ele>
        <time>2021-08-08T23:46:36.944Z</time>
      </trkpt>
      <trkpt lat="44.05199" lon="2.9795">
        <ele>379.28751572044</ele>
        <time>2021-08-08T23:47:03.160Z</time>
      </trkpt>
      <trkpt lat="44.05219" lon="2.97956">
        <ele>379.14326447594</ele>
        <time>2021-08-08T23:47:29.383Z</time>
      </trkpt>
      <trkpt lat="44.05249" lon="2.97962">
        <ele>379.06987459051</ele>
        <time>2021-08-08T23:47:55.616Z</time>
      </trkpt>
      <trkpt lat="44.05271" lon="2.97962">
        <ele>379.00351797625</ele>
        <time>2021-08-08T23:48:21.856Z</time>
      </trkpt>
      <trkpt lat="44.05319" lon="2.97954">
        <ele>378.81094777417</ele>
        <time>2021-08-08T23:48:48.112Z</time>
      </trkpt>
      <trkpt lat="44.05359" lon="2.97945">
        <ele>378.57334761345</ele>
        <time>2021-08-08T23:49:14.382Z</time>
      </trkpt>
      <trkpt lat="44.05389" lon="2.97942">
        <ele>378.17532680536</ele>
        <time>2021-08-08T23:49:40.662Z</time>
      </trkpt>
      <trkpt lat="44.05426" lon="2.97942">
        <ele>377.63011594989</ele>
        <time>2021-08-08T23:50:06.954Z</time>
      </trkpt>
      <trkpt lat="44.05529" lon="2.97946">
        <ele>376.71619413797</ele>
        <time>2021-08-08T23:50:33.281Z</time>
      </trkpt>
      <trkpt lat="44.0556" lon="2.97949">
        <ele>376.16658326697</ele>
        <time>2021-08-08T23:50:59.618Z</time>
      </trkpt>
      <trkpt lat="44.05584" lon="2.97954">
        <ele>375.54501877085</ele>
        <time>2021-08-08T23:51:25.963Z</time>
      </trkpt>
      <trkpt lat="44.05607" lon="2.97962">
        <ele>374.82960667816</ele>
        <time>2021-08-08T23:51:52.316Z</time>
      </trkpt>
      <trkpt lat="44.05631" lon="2.97974">
        <ele>374.12195501038</ele>
        <time>2021-08-08T23:52:18.677Z</time>
      </trkpt>
      <trkpt lat="44.05646" lon="2.97984">
        <ele>373.31259097177</ele>
        <time>2021-08-08T23:52:45.044Z</time>
      </trkpt>
      <trkpt lat="44.05676" lon="2.98011">
        <ele>371.4266015857</ele>
        <time>2021-08-08T23:53:11.423Z</time>
      </trkpt>
      <trkpt lat="44.05787" lon="2.98141">
        <ele>370.30587738322</ele>
        <time>2021-08-08T23:53:37.850Z</time>
      </trkpt>
      <trkpt lat="44.05807" lon="2.98162">
        <ele>369.22210500474</ele>
        <time>2021-08-08T23:54:04.286Z</time>
      </trkpt>
      <trkpt lat="44.05823" lon="2.98175">
        <ele>368.09722811433</ele>
        <time>2021-08-08T23:54:30.728Z</time>
      </trkpt>
      <trkpt lat="44.05844" lon="2.98188">
        <ele>366.9064044545</ele>
        <time>2021-08-08T23:54:57.178Z</time>
      </trkpt>
      <trkpt lat="44.05871" lon="2.98198">
        <ele>365.64895282328</ele>
        <time>2021-08-08T23:55:23.637Z</time>
      </trkpt>
      <trkpt lat="44.05891" lon="2.982">
        <ele>364.31611630058</ele>
        <time>2021-08-08T23:55:50.103Z</time>
      </trkpt>
      <trkpt lat="44.06047" lon="2.98198">
        <ele>362.79773561768</ele>
        <time>2021-08-08T23:56:16.621Z</time>
      </trkpt>
      <trkpt lat="44.06086" lon="2.98203">
        <ele>361.40331958854</ele>
        <time>2021-08-08T23:56:43.152Z</time>
      </trkpt>
      <trkpt lat="44.0614" lon="2.98228">
        <ele>359.84948235023</ele>
        <time>2021-08-08T23:57:09.702Z</time>
      </trkpt>
      <trkpt lat="44.06203" lon="2.98264">
        <ele>358.23495599649</ele>
        <time>2021-08-08T23:57:36.274Z</time>
      </trkpt>
      <trkpt lat="44.06243" lon="2.98284">
        <ele>356.75551287189</ele>
        <time>2021-08-08T23:58:02.860Z</time>
      </trkpt>
      <trkpt lat="44.06264" lon="2.98293">
        <ele>355.32911040546</ele>
        <time>2021-08-08T23:58:29.454Z</time>
      </trkpt>
      <trkpt lat="44.06324" lon="2.98314">
        <ele>353.877510321</ele>
        <time>2021-08-08T23:58:56.068Z</time>
      </trkpt>
      <trkpt lat="44.06352" lon="2.98327">
        <ele>355.21810917979</ele>
        <time>2021-08-08T23:59:22.692Z</time>
      </trkpt>
      <trkpt lat="44.06358" lon="2.98333">
        <ele>353.90379764471</ele>
        <time>2021-08-08T23:59:49.319Z</time>
      </trkpt>
      <trkpt lat="44.06375" lon="2.98343">
        <ele>352.64444507287</ele>
        <time>2021-08-09T00:00:15.952Z</time>
      </trkpt>
      <trkpt lat="44.06382" lon="2.9835">
        <ele>351.48322400832</ele>
        <time>2021-08-09T00:00:42.588Z</time>
      </trkpt>
      <trkpt lat="44.06389" lon="2.98358">
        <ele>350.40923647886</ele>
        <time>2021-08-09T00:01:09.227Z</time>
      </trkpt>
      <trkpt lat="44.06394" lon="2.98369">
        <ele>349.43026704267</ele>
        <time>2021-08-09T00:01:35.869Z</time>
      </trkpt>
      <trkpt lat="44.06394" lon="2.98456">
        <ele>348.53319129333</ele>
        <time>2021-08-09T00:02:02.532Z</time>
      </trkpt>
      <trkpt lat="44.06401" lon="2.98482">
        <ele>346.75598597114</ele>
        <time>2021-08-09T00:02:29.201Z</time>
      </trkpt>
      <trkpt lat="44.06408" lon="2.98494">
        <ele>346.44694775467</ele>
        <time>2021-08-09T00:02:55.874Z</time>
      </trkpt>
      <trkpt lat="44.06415" lon="2.98499">
        <ele>347.18512976323</ele>
        <time>2021-08-09T00:03:22.550Z</time>
      </trkpt>
      <trkpt lat="44.06433" lon="2.98505">
        <ele>347.00971370869</ele>
        <time>2021-08-09T00:03:49.232Z</time>
      </trkpt>
      <trkpt lat="44.06544" lon="2.98533">
        <ele>346.24906440826</ele>
        <time>2021-08-09T00:04:15.952Z</time>
      </trkpt>
      <trkpt lat="44.0666" lon="2.98567">
        <ele>346.48868875104</ele>
        <time>2021-08-09T00:04:42.711Z</time>
      </trkpt>
      <trkpt lat="44.06802" lon="2.98606">
        <ele>347.13633019797</ele>
        <time>2021-08-09T00:05:09.518Z</time>
      </trkpt>
      <trkpt lat="44.0681" lon="2.98611">
        <ele>348.44682181773</ele>
        <time>2021-08-09T00:05:36.328Z</time>
      </trkpt>
      <trkpt lat="44.06906" lon="2.98635">
        <ele>349.45742302771</ele>
        <time>2021-08-09T00:06:03.171Z</time>
      </trkpt>
      <trkpt lat="44.07017" lon="2.98667">
        <ele>350.81207659608</ele>
        <time>2021-08-09T00:06:30.052Z</time>
      </trkpt>
      <trkpt lat="44.07025" lon="2.98666">
        <ele>352.5612666556</ele>
        <time>2021-08-09T00:06:56.935Z</time>
      </trkpt>
      <trkpt lat="44.07049" lon="2.98675">
        <ele>354.74326380436</ele>
        <time>2021-08-09T00:07:23.827Z</time>
      </trkpt>
      <trkpt lat="44.07065" lon="2.98684">
        <ele>357.30933152558</ele>
        <time>2021-08-09T00:07:50.724Z</time>
      </trkpt>
      <trkpt lat="44.07085" lon="2.987">
        <ele>360.26573193242</ele>
        <time>2021-08-09T00:08:17.629Z</time>
      </trkpt>
      <trkpt lat="44.0722" lon="2.98815">
        <ele>364.1441940339</ele>
        <time>2021-08-09T00:08:44.587Z</time>
      </trkpt>
      <trkpt lat="44.07315" lon="2.98891">
        <ele>368.0152052085</ele>
        <time>2021-08-09T00:09:11.581Z</time>
      </trkpt>
      <trkpt lat="44.07351" lon="2.98911">
        <ele>371.91824234873</ele>
        <time>2021-08-09T00:09:38.588Z</time>
      </trkpt>
      <trkpt lat="44.07382" lon="2.98925">
        <ele>376.12573935638</ele>
        <time>2021-08-09T00:10:05.606Z</time>
      </trkpt>
      <trkpt lat="44.07426" lon="2.9894">
        <ele>380.64389747581</ele>
        <time>2021-08-09T00:10:32.639Z</time>
      </trkpt>
      <trkpt lat="44.07522" lon="2.98969">
        <ele>385.66628475718</ele>
        <time>2021-08-09T00:10:59.705Z</time>
      </trkpt>
      <trkpt lat="44.0754" lon="2.98973">
        <ele>390.73057752975</ele>
        <time>2021-08-09T00:11:26.777Z</time>
      </trkpt>
      <trkpt lat="44.07583" lon="2.98989">
        <ele>396.26194744181</ele>
        <time>2021-08-09T00:11:53.864Z</time>
      </trkpt>
      <trkpt lat="44.07616" lon="2.99006">
        <ele>402.00781213332</ele>
        <time>2021-08-09T00:12:20.963Z</time>
      </trkpt>
      <trkpt lat="44.07635" lon="2.99018">
        <ele>402.16341932853</ele>
        <time>2021-08-09T00:12:48.069Z</time>
      </trkpt>
      <trkpt lat="44.07659" lon="2.9904">
        <ele>407.59628342379</ele>
        <time>2021-08-09T00:13:15.184Z</time>
      </trkpt>
      <trkpt lat="44.07669" lon="2.99052">
        <ele>413.70946366895</ele>
        <time>2021-08-09T00:13:42.304Z</time>
      </trkpt>
      <trkpt lat="44.07714" lon="2.99111">
        <ele>419.88243221914</ele>
        <time>2021-08-09T00:14:09.444Z</time>
      </trkpt>
      <trkpt lat="44.0783" lon="2.99273">
        <ele>426.64084112779</ele>
        <time>2021-08-09T00:14:36.639Z</time>
      </trkpt>
      <trkpt lat="44.07858" lon="2.99325">
        <ele>431.39667491756</ele>
        <time>2021-08-09T00:15:03.850Z</time>
      </trkpt>
      <trkpt lat="44.07872" lon="2.99361">
        <ele>437.31826867827</ele>
        <time>2021-08-09T00:15:31.071Z</time>
      </trkpt>
      <trkpt lat="44.07885" lon="2.99405">
        <ele>445.45453971349</ele>
        <time>2021-08-09T00:15:58.303Z</time>
      </trkpt>
      <trkpt lat="44.079" lon="2.99472">
        <ele>449.23698054979</ele>
        <time>2021-08-09T00:16:25.552Z</time>
      </trkpt>
      <trkpt lat="44.07999" lon="2.99929">
        <ele>452.92806616722</ele>
        <time>2021-08-09T00:16:52.916Z</time>
      </trkpt>
      <trkpt lat="44.08006" lon="2.99989">
        <ele>459.14294557206</ele>
        <time>2021-08-09T00:17:20.294Z</time>
      </trkpt>
      <trkpt lat="44.08012" lon="3.00387">
        <ele>466.04397011216</ele>
        <time>2021-08-09T00:17:47.768Z</time>
      </trkpt>
      <trkpt lat="44.08009" lon="3.00452">
        <ele>471.9451660575</ele>
        <time>2021-08-09T00:18:15.257Z</time>
      </trkpt>
      <trkpt lat="44.08004" lon="3.0048">
        <ele>477.47340016784</ele>
        <time>2021-08-09T00:18:42.753Z</time>
      </trkpt>
      <trkpt lat="44.07995" lon="3.00512">
        <ele>482.77866516641</ele>
        <time>2021-08-09T00:19:10.258Z</time>
      </trkpt>
      <trkpt lat="44.07987" lon="3.00533">
        <ele>487.58629349078</ele>
        <time>2021-08-09T00:19:37.768Z</time>
      </trkpt>
      <trkpt lat="44.07948" lon="3.00617">
        <ele>492.31106581826</ele>
        <time>2021-08-09T00:20:05.302Z</time>
      </trkpt>
      <trkpt lat="44.07935" lon="3.00658">
        <ele>496.49216152668</ele>
        <time>2021-08-09T00:20:32.847Z</time>
      </trkpt>
      <trkpt lat="44.07932" lon="3.00684">
        <ele>500.35105420763</ele>
        <time>2021-08-09T00:21:00.398Z</time>
      </trkpt>
      <trkpt lat="44.07932" lon="3.00717">
        <ele>503.9497545966</ele>
        <time>2021-08-09T00:21:27.957Z</time>
      </trkpt>
      <trkpt lat="44.07942" lon="3.00814">
        <ele>510.23997447771</ele>
        <time>2021-08-09T00:21:55.540Z</time>
      </trkpt>
      <trkpt lat="44.07943" lon="3.00832">
        <ele>512.93007202685</ele>
        <time>2021-08-09T00:22:23.127Z</time>
      </trkpt>
      <trkpt lat="44.07941" lon="3.00864">
        <ele>515.33245880276</ele>
        <time>2021-08-09T00:22:50.722Z</time>
      </trkpt>
      <trkpt lat="44.0793" lon="3.00912">
        <ele>517.51017489103</ele>
        <time>2021-08-09T00:23:18.329Z</time>
      </trkpt>
      <trkpt lat="44.07918" lon="3.0094">
        <ele>519.24691054361</ele>
        <time>2021-08-09T00:23:45.944Z</time>
      </trkpt>
      <trkpt lat="44.07877" lon="3.01016">
        <ele>520.67170793941</ele>
        <time>2021-08-09T00:24:13.582Z</time>
      </trkpt>
      <trkpt lat="44.07863" lon="3.01051">
        <ele>521.77580687957</ele>
        <time>2021-08-09T00:24:41.229Z</time>
      </trkpt>
      <trkpt lat="44.07859" lon="3.01066">
        <ele>522.61539138465</ele>
        <time>2021-08-09T00:25:08.880Z</time>
      </trkpt>
      <trkpt lat="44.07842" lon="3.01155">
        <ele>523.46720357022</ele>
        <time>2021-08-09T00:25:36.553Z</time>
      </trkpt>
      <trkpt lat="44.07809" lon="3.01345">
        <ele>523.68215256697</ele>
        <time>2021-08-09T00:26:04.273Z</time>
      </trkpt>
      <trkpt lat="44.07803" lon="3.0139">
        <ele>523.7424525555</ele>
        <time>2021-08-09T00:26:32.004Z</time>
      </trkpt>
      <trkpt lat="44.07801" lon="3.01423">
        <ele>523.54087309938</ele>
        <time>2021-08-09T00:26:59.743Z</time>
      </trkpt>
      <trkpt lat="44.07802" lon="3.01467">
        <ele>523.12291368481</ele>
        <time>2021-08-09T00:27:27.493Z</time>
      </trkpt>
      <trkpt lat="44.07808" lon="3.01521">
        <ele>522.4548088712</ele>
        <time>2021-08-09T00:27:55.256Z</time>
      </trkpt>
      <trkpt lat="44.07848" lon="3.01802">
        <ele>521.3853454272</ele>
        <time>2021-08-09T00:28:23.088Z</time>
      </trkpt>
      <trkpt lat="44.07853" lon="3.01874">
        <ele>520.24022797016</ele>
        <time>2021-08-09T00:28:50.937Z</time>
      </trkpt>
      <trkpt lat="44.07856" lon="3.01979">
        <ele>518.75707046161</ele>
        <time>2021-08-09T00:29:18.811Z</time>
      </trkpt>
      <trkpt lat="44.0786" lon="3.02015">
        <ele>517.09492226541</ele>
        <time>2021-08-09T00:29:46.694Z</time>
      </trkpt>
      <trkpt lat="44.0787" lon="3.02055">
        <ele>515.22795238774</ele>
        <time>2021-08-09T00:30:14.587Z</time>
      </trkpt>
      <trkpt lat="44.07887" lon="3.02105">
        <ele>513.12042423133</ele>
        <time>2021-08-09T00:30:42.494Z</time>
      </trkpt>
      <trkpt lat="44.07891" lon="3.02133">
        <ele>512.50264625078</ele>
        <time>2021-08-09T00:31:10.407Z</time>
      </trkpt>
      <trkpt lat="44.0789" lon="3.02149">
        <ele>510.34944162991</ele>
        <time>2021-08-09T00:31:38.324Z</time>
      </trkpt>
      <trkpt lat="44.07888" lon="3.02154">
        <ele>507.97170645893</ele>
        <time>2021-08-09T00:32:06.243Z</time>
      </trkpt>
      <trkpt lat="44.07889" lon="3.02171">
        <ele>505.33677651468</ele>
        <time>2021-08-09T00:32:34.166Z</time>
      </trkpt>
      <trkpt lat="44.07891" lon="3.02176">
        <ele>502.45725400471</ele>
        <time>2021-08-09T00:33:02.090Z</time>
      </trkpt>
      <trkpt lat="44.07897" lon="3.02182">
        <ele>499.31787888184</ele>
        <time>2021-08-09T00:33:30.017Z</time>
      </trkpt>
      <trkpt lat="44.07905" lon="3.02195">
        <ele>495.91509685266</ele>
        <time>2021-08-09T00:33:57.948Z</time>
      </trkpt>
      <trkpt lat="44.07908" lon="3.02204">
        <ele>492.24593011182</ele>
        <time>2021-08-09T00:34:25.881Z</time>
      </trkpt>
      <trkpt lat="44.07913" lon="3.02224">
        <ele>488.11714598873</ele>
        <time>2021-08-09T00:34:53.819Z</time>
      </trkpt>
      <trkpt lat="44.07919" lon="3.02263">
        <ele>484.11226476958</ele>
        <time>2021-08-09T00:35:21.767Z</time>
      </trkpt>
      <trkpt lat="44.07925" lon="3.02286">
        <ele>479.63987787614</ele>
        <time>2021-08-09T00:35:49.721Z</time>
      </trkpt>
      <trkpt lat="44.07956" lon="3.02373">
        <ele>474.53401372012</ele>
        <time>2021-08-09T00:36:17.698Z</time>
      </trkpt>
      <trkpt lat="44.07973" lon="3.02438">
        <ele>469.33194349882</ele>
        <time>2021-08-09T00:36:45.692Z</time>
      </trkpt>
      <trkpt lat="44.0798" lon="3.02477">
        <ele>463.88657401289</ele>
        <time>2021-08-09T00:37:13.695Z</time>
      </trkpt>
      <trkpt lat="44.07983" lon="3.02514">
        <ele>458.2096831452</ele>
        <time>2021-08-09T00:37:41.707Z</time>
      </trkpt>
      <trkpt lat="44.07982" lon="3.02607">
        <ele>452.09162668544</ele>
        <time>2021-08-09T00:38:09.742Z</time>
      </trkpt>
      <trkpt lat="44.07969" lon="3.03053">
        <ele>444.66584515274</ele>
        <time>2021-08-09T00:38:37.884Z</time>
      </trkpt>
      <trkpt lat="44.07969" lon="3.03091">
        <ele>438.6144540674</ele>
        <time>2021-08-09T00:39:06.035Z</time>
      </trkpt>
      <trkpt lat="44.07975" lon="3.03193">
        <ele>432.25141518979</ele>
        <time>2021-08-09T00:39:34.211Z</time>
      </trkpt>
      <trkpt lat="44.07987" lon="3.03303">
        <ele>425.87875115836</ele>
        <time>2021-08-09T00:40:02.413Z</time>
      </trkpt>
      <trkpt lat="44.08004" lon="3.03399">
        <ele>419.62576121007</ele>
        <time>2021-08-09T00:40:30.639Z</time>
      </trkpt>
      <trkpt lat="44.08013" lon="3.03439">
        <ele>413.63861714175</ele>
        <time>2021-08-09T00:40:58.875Z</time>
      </trkpt>
      <trkpt lat="44.08095" lon="3.03763">
        <ele>406.73288407017</ele>
        <time>2021-08-09T00:41:27.194Z</time>
      </trkpt>
      <trkpt lat="44.08114" lon="3.03888">
        <ele>400.63591022316</ele>
        <time>2021-08-09T00:41:55.543Z</time>
      </trkpt>
      <trkpt lat="44.0815" lon="3.04173">
        <ele>394.60130312045</ele>
        <time>2021-08-09T00:42:23.962Z</time>
      </trkpt>
      <trkpt lat="44.08154" lon="3.04223">
        <ele>389.37534793415</ele>
        <time>2021-08-09T00:42:52.393Z</time>
      </trkpt>
      <trkpt lat="44.08148" lon="3.04231">
        <ele>384.59761961486</ele>
        <time>2021-08-09T00:43:20.827Z</time>
      </trkpt>
      <trkpt lat="44.08146" lon="3.04245">
        <ele>380.15707739885</ele>
        <time>2021-08-09T00:43:49.264Z</time>
      </trkpt>
      <trkpt lat="44.0815" lon="3.04258">
        <ele>376.0647104889</ele>
        <time>2021-08-09T00:44:17.705Z</time>
      </trkpt>
      <trkpt lat="44.08155" lon="3.04263">
        <ele>372.31248450309</ele>
        <time>2021-08-09T00:44:46.148Z</time>
      </trkpt>
      <trkpt lat="44.08163" lon="3.04265">
        <ele>368.94072669953</ele>
        <time>2021-08-09T00:45:14.593Z</time>
      </trkpt>
      <trkpt lat="44.0819" lon="3.0437">
        <ele>365.71934921572</ele>
        <time>2021-08-09T00:45:43.065Z</time>
      </trkpt>
      <trkpt lat="44.08198" lon="3.04412">
        <ele>363.05886451974</ele>
        <time>2021-08-09T00:46:11.548Z</time>
      </trkpt>
      <trkpt lat="44.08212" lon="3.04508">
        <ele>360.68641383852</ele>
        <time>2021-08-09T00:46:40.054Z</time>
      </trkpt>
      <trkpt lat="44.08213" lon="3.04534">
        <ele>358.85930161577</ele>
        <time>2021-08-09T00:47:08.566Z</time>
      </trkpt>
      <trkpt lat="44.08211" lon="3.04544">
        <ele>357.46766377754</ele>
        <time>2021-08-09T00:47:37.081Z</time>
      </trkpt>
      <trkpt lat="44.08205" lon="3.04552">
        <ele>356.46690842716</ele>
        <time>2021-08-09T00:48:05.599Z</time>
      </trkpt>
      <trkpt lat="44.08202" lon="3.0456">
        <ele>355.83243734976</ele>
        <time>2021-08-09T00:48:34.119Z</time>
      </trkpt>
      <trkpt lat="44.08203" lon="3.04577">
        <ele>355.54851642476</ele>
        <time>2021-08-09T00:49:02.643Z</time>
      </trkpt>
      <trkpt lat="44.08206" lon="3.04584">
        <ele>355.60276113347</ele>
        <time>2021-08-09T00:49:31.169Z</time>
      </trkpt>
      <trkpt lat="44.08211" lon="3.04589">
        <ele>355.9768800734</ele>
        <time>2021-08-09T00:49:59.697Z</time>
      </trkpt>
      <trkpt lat="44.08215" lon="3.0459">
        <ele>356.65618980562</ele>
        <time>2021-08-09T00:50:28.226Z</time>
      </trkpt>
      <trkpt lat="44.08223" lon="3.046">
        <ele>357.62315065578</ele>
        <time>2021-08-09T00:50:56.759Z</time>
      </trkpt>
      <trkpt lat="44.08247" lon="3.04656">
        <ele>358.90120453721</ele>
        <time>2021-08-09T00:51:25.307Z</time>
      </trkpt>
      <trkpt lat="44.08271" lon="3.04687">
        <ele>360.40498016486</ele>
        <time>2021-08-09T00:51:53.866Z</time>
      </trkpt>
      <trkpt lat="44.08308" lon="3.04717">
        <ele>362.26017594516</ele>
        <time>2021-08-09T00:52:22.440Z</time>
      </trkpt>
      <trkpt lat="44.08315" lon="3.04718">
        <ele>364.28988909626</ele>
        <time>2021-08-09T00:52:51.016Z</time>
      </trkpt>
      <trkpt lat="44.08347" lon="3.0474">
        <ele>366.33295597059</ele>
        <time>2021-08-09T00:53:19.604Z</time>
      </trkpt>
      <trkpt lat="44.08377" lon="3.04772">
        <ele>368.41156761019</ele>
        <time>2021-08-09T00:53:48.205Z</time>
      </trkpt>
      <trkpt lat="44.08391" lon="3.04793">
        <ele>370.5352639712</ele>
        <time>2021-08-09T00:54:16.812Z</time>
      </trkpt>
      <trkpt lat="44.08405" lon="3.04823">
        <ele>372.81957343879</ele>
        <time>2021-08-09T00:54:45.428Z</time>
      </trkpt>
      <trkpt lat="44.08466" lon="3.04984">
        <ele>375.55253406602</ele>
        <time>2021-08-09T00:55:14.088Z</time>
      </trkpt>
      <trkpt lat="44.0852" lon="3.05072">
        <ele>377.32093416815</ele>
        <time>2021-08-09T00:55:42.775Z</time>
      </trkpt>
      <trkpt lat="44.08527" lon="3.05086">
        <ele>379.28439790906</ele>
        <time>2021-08-09T00:56:11.467Z</time>
      </trkpt>
      <trkpt lat="44.08531" lon="3.05099">
        <ele>381.16704126088</ele>
        <time>2021-08-09T00:56:40.162Z</time>
      </trkpt>
      <trkpt lat="44.08534" lon="3.05116">
        <ele>382.95497905484</ele>
        <time>2021-08-09T00:57:08.861Z</time>
      </trkpt>
      <trkpt lat="44.08535" lon="3.05141">
        <ele>384.69253820951</ele>
        <time>2021-08-09T00:57:37.566Z</time>
      </trkpt>
      <trkpt lat="44.08529" lon="3.05173">
        <ele>387.74082491155</ele>
        <time>2021-08-09T00:58:06.279Z</time>
      </trkpt>
      <trkpt lat="44.08522" lon="3.05194">
        <ele>389.36476051323</ele>
        <time>2021-08-09T00:58:34.998Z</time>
      </trkpt>
      <trkpt lat="44.08516" lon="3.05208">
        <ele>389.18682821736</ele>
        <time>2021-08-09T00:59:03.721Z</time>
      </trkpt>
      <trkpt lat="44.08512" lon="3.05213">
        <ele>392.14891026799</ele>
        <time>2021-08-09T00:59:32.445Z</time>
      </trkpt>
      <trkpt lat="44.08481" lon="3.05292">
        <ele>393.5697581218</ele>
        <time>2021-08-09T01:00:01.191Z</time>
      </trkpt>
      <trkpt lat="44.08431" lon="3.05411">
        <ele>394.39536605227</ele>
        <time>2021-08-09T01:00:29.970Z</time>
      </trkpt>
      <trkpt lat="44.08421" lon="3.05441">
        <ele>395.27913289198</ele>
        <time>2021-08-09T01:00:58.757Z</time>
      </trkpt>
      <trkpt lat="44.08415" lon="3.0547">
        <ele>395.90420424235</ele>
        <time>2021-08-09T01:01:27.551Z</time>
      </trkpt>
      <trkpt lat="44.08414" lon="3.05509">
        <ele>396.14418405413</ele>
        <time>2021-08-09T01:01:56.355Z</time>
      </trkpt>
      <trkpt lat="44.08423" lon="3.05568">
        <ele>396.03009354678</ele>
        <time>2021-08-09T01:02:25.173Z</time>
      </trkpt>
      <trkpt lat="44.08425" lon="3.05572">
        <ele>396.01409892163</ele>
        <time>2021-08-09T01:02:53.992Z</time>
      </trkpt>
      <trkpt lat="44.08437" lon="3.05668">
        <ele>393.12879913312</ele>
        <time>2021-08-09T01:03:22.835Z</time>
      </trkpt>
      <trkpt lat="44.08436" lon="3.05736">
        <ele>393.16962490966</ele>
        <time>2021-08-09T01:03:51.694Z</time>
      </trkpt>
      <trkpt lat="44.08438" lon="3.0575">
        <ele>395.21757628537</ele>
        <time>2021-08-09T01:04:20.557Z</time>
      </trkpt>
      <trkpt lat="44.08443" lon="3.05769">
        <ele>392.90009268264</ele>
        <time>2021-08-09T01:04:49.424Z</time>
      </trkpt>
      <trkpt lat="44.0849" lon="3.05886">
        <ele>392.26132862718</ele>
        <time>2021-08-09T01:05:18.324Z</time>
      </trkpt>
      <trkpt lat="44.08504" lon="3.0593">
        <ele>391.63510648651</ele>
        <time>2021-08-09T01:05:47.235Z</time>
      </trkpt>
      <trkpt lat="44.08544" lon="3.06075">
        <ele>391.91352044323</ele>
        <time>2021-08-09T01:06:16.183Z</time>
      </trkpt>
      <trkpt lat="44.08546" lon="3.06091">
        <ele>390.23818125888</ele>
        <time>2021-08-09T01:06:45.135Z</time>
      </trkpt>
      <trkpt lat="44.08547" lon="3.06134">
        <ele>390.07142241433</ele>
        <time>2021-08-09T01:07:14.098Z</time>
      </trkpt>
      <trkpt lat="44.08549" lon="3.06143">
        <ele>389.06297100185</ele>
        <time>2021-08-09T01:07:43.063Z</time>
      </trkpt>
      <trkpt lat="44.08552" lon="3.06152">
        <ele>388.01612706849</ele>
        <time>2021-08-09T01:08:12.030Z</time>
      </trkpt>
      <trkpt lat="44.08558" lon="3.06161">
        <ele>386.94457160731</ele>
        <time>2021-08-09T01:08:41.000Z</time>
      </trkpt>
      <trkpt lat="44.08569" lon="3.06171">
        <ele>385.85977186309</ele>
        <time>2021-08-09T01:09:09.975Z</time>
      </trkpt>
      <trkpt lat="44.08598" lon="3.06189">
        <ele>384.82437303038</ele>
        <time>2021-08-09T01:09:38.960Z</time>
      </trkpt>
      <trkpt lat="44.08606" lon="3.0619">
        <ele>383.71332008337</ele>
        <time>2021-08-09T01:10:07.948Z</time>
      </trkpt>
      <trkpt lat="44.08633" lon="3.06213">
        <ele>384.65703236665</ele>
        <time>2021-08-09T01:10:36.946Z</time>
      </trkpt>
      <trkpt lat="44.0865" lon="3.06237">
        <ele>381.19854819011</ele>
        <time>2021-08-09T01:11:05.953Z</time>
      </trkpt>
      <trkpt lat="44.08661" lon="3.06262">
        <ele>380.05263828708</ele>
        <time>2021-08-09T01:11:34.967Z</time>
      </trkpt>
      <trkpt lat="44.08677" lon="3.06287">
        <ele>378.98971736634</ele>
        <time>2021-08-09T01:12:03.989Z</time>
      </trkpt>
      <trkpt lat="44.08689" lon="3.063">
        <ele>377.92107609708</ele>
        <time>2021-08-09T01:12:33.016Z</time>
      </trkpt>
      <trkpt lat="44.08729" lon="3.06329">
        <ele>376.79812911351</ele>
        <time>2021-08-09T01:13:02.058Z</time>
      </trkpt>
      <trkpt lat="44.0875" lon="3.06342">
        <ele>378.93460363426</ele>
        <time>2021-08-09T01:13:31.107Z</time>
      </trkpt>
      <trkpt lat="44.08771" lon="3.06361">
        <ele>377.79800565854</ele>
        <time>2021-08-09T01:14:00.165Z</time>
      </trkpt>
      <trkpt lat="44.0883" lon="3.06431">
        <ele>376.63400564288</ele>
        <time>2021-08-09T01:14:29.249Z</time>
      </trkpt>
      <trkpt lat="44.08877" lon="3.06494">
        <ele>374.8100062049</ele>
        <time>2021-08-09T01:14:58.354Z</time>
      </trkpt>
      <trkpt lat="44.0892" lon="3.06566">
        <ele>373.17287194163</ele>
        <time>2021-08-09T01:15:27.482Z</time>
      </trkpt>
      <trkpt lat="44.08934" lon="3.06595">
        <ele>372.43331516571</ele>
        <time>2021-08-09T01:15:56.618Z</time>
      </trkpt>
      <trkpt lat="44.08966" lon="3.06671">
        <ele>371.4347783717</ele>
        <time>2021-08-09T01:16:25.775Z</time>
      </trkpt>
      <trkpt lat="44.08981" lon="3.06715">
        <ele>370.66016652128</ele>
        <time>2021-08-09T01:16:54.944Z</time>
      </trkpt>
      <trkpt lat="44.08985" lon="3.06731">
        <ele>370.06570368147</ele>
        <time>2021-08-09T01:17:24.117Z</time>
      </trkpt>
      <trkpt lat="44.08991" lon="3.06763">
        <ele>369.65344773536</ele>
        <time>2021-08-09T01:17:53.298Z</time>
      </trkpt>
      <trkpt lat="44.08992" lon="3.06775">
        <ele>369.3537192034</ele>
        <time>2021-08-09T01:18:22.482Z</time>
      </trkpt>
      <trkpt lat="44.0899" lon="3.06779">
        <ele>369.11912501589</ele>
        <time>2021-08-09T01:18:51.667Z</time>
      </trkpt>
      <trkpt lat="44.0899" lon="3.06784">
        <ele>368.92429580117</ele>
        <time>2021-08-09T01:19:20.853Z</time>
      </trkpt>
      <trkpt lat="44.08991" lon="3.06787">
        <ele>368.76783599048</ele>
        <time>2021-08-09T01:19:50.040Z</time>
      </trkpt>
      <trkpt lat="44.08999" lon="3.06795">
        <ele>368.61219711231</ele>
        <time>2021-08-09T01:20:19.230Z</time>
      </trkpt>
      <trkpt lat="44.09006" lon="3.06807">
        <ele>368.52530953595</ele>
        <time>2021-08-09T01:20:48.424Z</time>
      </trkpt>
      <trkpt lat="44.0902" lon="3.06861">
        <ele>368.51788534842</ele>
        <time>2021-08-09T01:21:17.632Z</time>
      </trkpt>
      <trkpt lat="44.09029" lon="3.0692">
        <ele>367.17748627204</ele>
        <time>2021-08-09T01:21:46.854Z</time>
      </trkpt>
      <trkpt lat="44.09043" lon="3.07105">
        <ele>366.65073781429</ele>
        <time>2021-08-09T01:22:16.121Z</time>
      </trkpt>
      <trkpt lat="44.09055" lon="3.07164">
        <ele>366.21037666644</ele>
        <time>2021-08-09T01:22:45.403Z</time>
      </trkpt>
      <trkpt lat="44.09073" lon="3.07236">
        <ele>365.72021179577</ele>
        <time>2021-08-09T01:23:14.703Z</time>
      </trkpt>
      <trkpt lat="44.09079" lon="3.07268">
        <ele>365.3723604521</ele>
        <time>2021-08-09T01:23:44.011Z</time>
      </trkpt>
      <trkpt lat="44.09089" lon="3.07349">
        <ele>365.13538197731</ele>
        <time>2021-08-09T01:24:13.339Z</time>
      </trkpt>
      <trkpt lat="44.09089" lon="3.07385">
        <ele>364.84874230633</ele>
        <time>2021-08-09T01:24:42.676Z</time>
      </trkpt>
      <trkpt lat="44.09086" lon="3.0742">
        <ele>364.60221713619</ele>
        <time>2021-08-09T01:25:12.021Z</time>
      </trkpt>
      <trkpt lat="44.09086" lon="3.07453">
        <ele>364.34357953927</ele>
        <time>2021-08-09T01:25:41.374Z</time>
      </trkpt>
      <trkpt lat="44.0908" lon="3.07514">
        <ele>369.55483958182</ele>
        <time>2021-08-09T01:26:10.742Z</time>
      </trkpt>
      <trkpt lat="44.09072" lon="3.0756">
        <ele>369.48746946158</ele>
        <time>2021-08-09T01:26:40.121Z</time>
      </trkpt>
      <trkpt lat="44.09055" lon="3.07634">
        <ele>369.34537436543</ele>
        <time>2021-08-09T01:27:09.519Z</time>
      </trkpt>
      <trkpt lat="44.09053" lon="3.07649">
        <ele>369.17083719973</ele>
        <time>2021-08-09T01:27:38.920Z</time>
      </trkpt>
      <trkpt lat="44.09053" lon="3.07683">
        <ele>368.88446795957</ele>
        <time>2021-08-09T01:28:08.330Z</time>
      </trkpt>
      <trkpt lat="44.0905" lon="3.07696">
        <ele>368.67856042578</ele>
        <time>2021-08-09T01:28:37.743Z</time>
      </trkpt>
      <trkpt lat="44.09046" lon="3.07705">
        <ele>368.42862900417</ele>
        <time>2021-08-09T01:29:07.158Z</time>
      </trkpt>
      <trkpt lat="44.09045" lon="3.07711">
        <ele>368.11248717537</ele>
        <time>2021-08-09T01:29:36.575Z</time>
      </trkpt>
      <trkpt lat="44.09046" lon="3.07721">
        <ele>367.72940521939</ele>
        <time>2021-08-09T01:30:05.994Z</time>
      </trkpt>
      <trkpt lat="44.09049" lon="3.07728">
        <ele>367.29851791781</ele>
        <time>2021-08-09T01:30:35.415Z</time>
      </trkpt>
      <trkpt lat="44.09055" lon="3.07735">
        <ele>366.81348710241</ele>
        <time>2021-08-09T01:31:04.839Z</time>
      </trkpt>
      <trkpt lat="44.09063" lon="3.07738">
        <ele>366.2966922291</ele>
        <time>2021-08-09T01:31:34.266Z</time>
      </trkpt>
      <trkpt lat="44.09067" lon="3.07737">
        <ele>365.79289940585</ele>
        <time>2021-08-09T01:32:03.694Z</time>
      </trkpt>
      <trkpt lat="44.0907" lon="3.07736">
        <ele>365.2773587797</ele>
        <time>2021-08-09T01:32:33.123Z</time>
      </trkpt>
      <trkpt lat="44.09076" lon="3.0773">
        <ele>364.7406159438</ele>
        <time>2021-08-09T01:33:02.555Z</time>
      </trkpt>
      <trkpt lat="44.09079" lon="3.07724">
        <ele>364.21729078671</ele>
        <time>2021-08-09T01:33:31.988Z</time>
      </trkpt>
      <trkpt lat="44.09093" lon="3.07713">
        <ele>363.62577509712</ele>
        <time>2021-08-09T01:34:01.427Z</time>
      </trkpt>
      <trkpt lat="44.09111" lon="3.07708">
        <ele>363.03287489252</ele>
        <time>2021-08-09T01:34:30.872Z</time>
      </trkpt>
      <trkpt lat="44.09126" lon="3.07698">
        <ele>362.58808825691</ele>
        <time>2021-08-09T01:35:00.322Z</time>
      </trkpt>
      <trkpt lat="44.09193" lon="3.07633">
        <ele>362.09904242282</ele>
        <time>2021-08-09T01:35:29.800Z</time>
      </trkpt>
      <trkpt lat="44.0921" lon="3.07609">
        <ele>361.69302158005</ele>
        <time>2021-08-09T01:35:59.286Z</time>
      </trkpt>
      <trkpt lat="44.09321" lon="3.07503">
        <ele>361.28599256097</ele>
        <time>2021-08-09T01:36:28.817Z</time>
      </trkpt>
      <trkpt lat="44.09389" lon="3.07434">
        <ele>361.71339347015</ele>
        <time>2021-08-09T01:36:58.376Z</time>
      </trkpt>
      <trkpt lat="44.09408" lon="3.07417">
        <ele>362.03377407297</ele>
        <time>2021-08-09T01:37:27.942Z</time>
      </trkpt>
      <trkpt lat="44.09419" lon="3.07411">
        <ele>361.08531385877</ele>
        <time>2021-08-09T01:37:57.512Z</time>
      </trkpt>
      <trkpt lat="44.09424" lon="3.07405">
        <ele>361.00992154506</ele>
        <time>2021-08-09T01:38:27.084Z</time>
      </trkpt>
      <trkpt lat="44.09429" lon="3.0741">
        <ele>360.97388076998</ele>
        <time>2021-08-09T01:38:56.658Z</time>
      </trkpt>
      <trkpt lat="44.09437" lon="3.07409">
        <ele>361.01300483034</ele>
        <time>2021-08-09T01:39:26.235Z</time>
      </trkpt>
      <trkpt lat="44.09439" lon="3.07412">
        <ele>361.10623103721</ele>
        <time>2021-08-09T01:39:55.813Z</time>
      </trkpt>
      <trkpt lat="44.09486" lon="3.07511">
        <ele>361.14483556067</ele>
        <time>2021-08-09T01:40:25.420Z</time>
      </trkpt>
      <trkpt lat="44.09537" lon="3.07624">
        <ele>361.50585977366</ele>
        <time>2021-08-09T01:40:55.059Z</time>
      </trkpt>
      <trkpt lat="44.09536" lon="3.07645">
        <ele>361.85118571299</ele>
        <time>2021-08-09T01:41:24.703Z</time>
      </trkpt>
      <trkpt lat="44.09533" lon="3.07647">
        <ele>362.27629775104</ele>
        <time>2021-08-09T01:41:54.348Z</time>
      </trkpt>
      <trkpt lat="44.0953" lon="3.07654">
        <ele>362.79629999291</ele>
        <time>2021-08-09T01:42:23.995Z</time>
      </trkpt>
      <trkpt lat="44.09531" lon="3.07662">
        <ele>363.4321555056</ele>
        <time>2021-08-09T01:42:53.644Z</time>
      </trkpt>
      <trkpt lat="44.09535" lon="3.07667">
        <ele>364.17179487004</ele>
        <time>2021-08-09T01:43:23.294Z</time>
      </trkpt>
      <trkpt lat="44.09539" lon="3.07668">
        <ele>364.99210994991</ele>
        <time>2021-08-09T01:43:52.946Z</time>
      </trkpt>
      <trkpt lat="44.09543" lon="3.07666">
        <ele>365.88735122176</ele>
        <time>2021-08-09T01:44:22.599Z</time>
      </trkpt>
      <trkpt lat="44.09545" lon="3.07661">
        <ele>366.83963249335</ele>
        <time>2021-08-09T01:44:52.254Z</time>
      </trkpt>
      <trkpt lat="44.09563" lon="3.07658">
        <ele>370.32896426063</ele>
        <time>2021-08-09T01:45:21.915Z</time>
      </trkpt>
      <trkpt lat="44.0964" lon="3.07668">
        <ele>371.50417529097</ele>
        <time>2021-08-09T01:45:51.601Z</time>
      </trkpt>
      <trkpt lat="44.09739" lon="3.07677">
        <ele>372.55414900381</ele>
        <time>2021-08-09T01:46:21.320Z</time>
      </trkpt>
      <trkpt lat="44.09789" lon="3.0768">
        <ele>373.49521336695</ele>
        <time>2021-08-09T01:46:51.056Z</time>
      </trkpt>
      <trkpt lat="44.09822" lon="3.07684">
        <ele>374.39047067036</ele>
        <time>2021-08-09T01:47:20.803Z</time>
      </trkpt>
      <trkpt lat="44.09866" lon="3.07694">
        <ele>375.26455244378</ele>
        <time>2021-08-09T01:47:50.565Z</time>
      </trkpt>
      <trkpt lat="44.0989" lon="3.07708">
        <ele>376.05236667045</ele>
        <time>2021-08-09T01:48:20.336Z</time>
      </trkpt>
      <trkpt lat="44.099" lon="3.07718">
        <ele>376.78317524607</ele>
        <time>2021-08-09T01:48:50.111Z</time>
      </trkpt>
      <trkpt lat="44.09909" lon="3.07738">
        <ele>375.3890189227</ele>
        <time>2021-08-09T01:49:19.891Z</time>
      </trkpt>
      <trkpt lat="44.09929" lon="3.07797">
        <ele>378.08797296925</ele>
        <time>2021-08-09T01:49:49.687Z</time>
      </trkpt>
      <trkpt lat="44.0994" lon="3.07824">
        <ele>378.610620127</ele>
        <time>2021-08-09T01:50:19.491Z</time>
      </trkpt>
      <trkpt lat="44.09959" lon="3.07844">
        <ele>377.19188315603</ele>
        <time>2021-08-09T01:50:49.303Z</time>
      </trkpt>
      <trkpt lat="44.09955" lon="3.07854">
        <ele>378.57622262736</ele>
        <time>2021-08-09T01:51:19.117Z</time>
      </trkpt>
      <trkpt lat="44.09959" lon="3.07872">
        <ele>378.18815377881</ele>
        <time>2021-08-09T01:51:48.936Z</time>
      </trkpt>
      <trkpt lat="44.09964" lon="3.07879">
        <ele>377.77018291601</ele>
        <time>2021-08-09T01:52:18.757Z</time>
      </trkpt>
      <trkpt lat="44.09972" lon="3.0788">
        <ele>378.93567157481</ele>
        <time>2021-08-09T01:52:48.581Z</time>
      </trkpt>
      <trkpt lat="44.09976" lon="3.07878">
        <ele>379.61904809126</ele>
        <time>2021-08-09T01:53:18.406Z</time>
      </trkpt>
      <trkpt lat="44.09982" lon="3.07871">
        <ele>379.58331290105</ele>
        <time>2021-08-09T01:53:48.234Z</time>
      </trkpt>
      <trkpt lat="44.09984" lon="3.07865">
        <ele>379.98031389182</ele>
        <time>2021-08-09T01:54:18.063Z</time>
      </trkpt>
      <trkpt lat="44.09984" lon="3.07852">
        <ele>380.03513247142</ele>
        <time>2021-08-09T01:54:47.896Z</time>
      </trkpt>
      <trkpt lat="44.1" lon="3.0784">
        <ele>379.83391971296</ele>
        <time>2021-08-09T01:55:17.735Z</time>
      </trkpt>
      <trkpt lat="44.10017" lon="3.07832">
        <ele>380.0565830939</ele>
        <time>2021-08-09T01:55:47.580Z</time>
      </trkpt>
      <trkpt lat="44.10121" lon="3.07771">
        <ele>380.60562563544</ele>
        <time>2021-08-09T01:56:17.462Z</time>
      </trkpt>
      <trkpt lat="44.10251" lon="3.07692">
        <ele>380.87528245096</ele>
        <time>2021-08-09T01:56:47.392Z</time>
      </trkpt>
      <trkpt lat="44.10289" lon="3.07666">
        <ele>381.0921535651</ele>
        <time>2021-08-09T01:57:17.336Z</time>
      </trkpt>
      <trkpt lat="44.10298" lon="3.07665">
        <ele>381.12400388309</ele>
        <time>2021-08-09T01:57:47.283Z</time>
      </trkpt>
      <trkpt lat="44.10312" lon="3.07654">
        <ele>381.14838994587</ele>
        <time>2021-08-09T01:58:17.235Z</time>
      </trkpt>
      <trkpt lat="44.10354" lon="3.07629">
        <ele>381.09765031279</ele>
        <time>2021-08-09T01:58:47.202Z</time>
      </trkpt>
      <trkpt lat="44.10365" lon="3.07627">
        <ele>381.07526312324</ele>
        <time>2021-08-09T01:59:17.173Z</time>
      </trkpt>
      <trkpt lat="44.10365" lon="3.0763">
        <ele>381.05675996923</ele>
        <time>2021-08-09T01:59:47.145Z</time>
      </trkpt>
      <trkpt lat="44.10368" lon="3.07634">
        <ele>381.02950395501</ele>
        <time>2021-08-09T02:00:17.118Z</time>
      </trkpt>
      <trkpt lat="44.1037" lon="3.07635">
        <ele>380.99944119486</ele>
        <time>2021-08-09T02:00:47.092Z</time>
      </trkpt>
      <trkpt lat="44.10374" lon="3.07634">
        <ele>380.96653350346</ele>
        <time>2021-08-09T02:01:17.067Z</time>
      </trkpt>
      <trkpt lat="44.10377" lon="3.0763">
        <ele>380.93184791367</ele>
        <time>2021-08-09T02:01:47.044Z</time>
      </trkpt>
      <trkpt lat="44.10377" lon="3.07623">
        <ele>380.89432234016</ele>
        <time>2021-08-09T02:02:17.022Z</time>
      </trkpt>
      <trkpt lat="44.10387" lon="3.07616">
        <ele>380.85247523506</ele>
        <time>2021-08-09T02:02:47.004Z</time>
      </trkpt>
      <trkpt lat="44.10424" lon="3.07593">
        <ele>380.84509731634</ele>
        <time>2021-08-09T02:03:17.000Z</time>
      </trkpt>
      <trkpt lat="44.10435" lon="3.07594">
        <ele>380.72191412342</ele>
        <time>2021-08-09T02:03:46.999Z</time>
      </trkpt>
      <trkpt lat="44.10463" lon="3.07579">
        <ele>380.55570784925</ele>
        <time>2021-08-09T02:04:17.008Z</time>
      </trkpt>
      <trkpt lat="44.10478" lon="3.0757">
        <ele>380.43570114833</ele>
        <time>2021-08-09T02:04:47.023Z</time>
      </trkpt>
      <trkpt lat="44.10504" lon="3.07546">
        <ele>380.38018245299</ele>
        <time>2021-08-09T02:05:17.048Z</time>
      </trkpt>
      <trkpt lat="44.10505" lon="3.07547">
        <ele>380.40310183076</ele>
        <time>2021-08-09T02:05:47.073Z</time>
      </trkpt>
      <trkpt lat="44.10507" lon="3.07546">
        <ele>380.47287046428</ele>
        <time>2021-08-09T02:06:17.099Z</time>
      </trkpt>
      <trkpt lat="44.10509" lon="3.07543">
        <ele>380.59008283141</ele>
        <time>2021-08-09T02:06:47.126Z</time>
      </trkpt>
      <trkpt lat="44.10528" lon="3.07531">
        <ele>380.74926583963</ele>
        <time>2021-08-09T02:07:17.160Z</time>
      </trkpt>
      <trkpt lat="44.10602" lon="3.07488">
        <ele>380.96688033269</ele>
        <time>2021-08-09T02:07:47.221Z</time>
      </trkpt>
    </trkseg>
  </trk>
</gpx>